Wetterdaten: Freitag, 29.09.2017
Datum Zeit Temp. A. Pool Temp. Feuchte A. Luftdruck Regen Wind Richtung Richtung Sonnenschein ET UV Solar Taupunkt Windchill Windben Empfang
29.09.2017 00:00 13,1 C 13,9 C 83 % 1024,7 hPa 0,0 l/m 7,5 km/h (2 Bft) O-NO 69 0 min 0,000 mm 0,0 UV-I 0 W/m 10,3 C 12,4 C 11,3 km/h (2 Bft) 100,00 %
29.09.2017 00:02 13,1 C 13,9 C 83 % 1024,7 hPa 0,0 l/m 7,0 km/h (2 Bft) O-NO 70 0 min 0,000 mm 0,0 UV-I 0 W/m 10,3 C 12,7 C 11,3 km/h (2 Bft) 94,29 %
29.09.2017 00:04 13,1 C 13,9 C 83 % 1024,7 hPa 0,0 l/m 8,0 km/h (2 Bft) O-NO 69 0 min 0,000 mm 0,0 UV-I 0 W/m 10,3 C 12,1 C 11,3 km/h (2 Bft) 100,00 %
29.09.2017 00:06 13,0 C 13,9 C 83 % 1024,7 hPa 0,0 l/m 7,2 km/h (2 Bft) O 82 0 min 0,000 mm 0,0 UV-I 0 W/m 10,2 C 12,5 C 12,9 km/h (3 Bft) 100,00 %
29.09.2017 00:08 12,9 C 13,9 C 83 % 1024,8 hPa 0,0 l/m 6,7 km/h (2 Bft) NO 54 0 min 0,000 mm 0,0 UV-I 0 W/m 10,1 C 12,7 C 11,3 km/h (2 Bft) 100,00 %
29.09.2017 00:10 12,9 C 13,9 C 83 % 1024,8 hPa 0,0 l/m 4,4 km/h (1 Bft) O-NO 63 0 min 0,000 mm 0,0 UV-I 0 W/m 10,1 C 12,9 C 6,4 km/h (2 Bft) 100,00 %
29.09.2017 00:12 12,9 C 13,9 C 84 % 1024,8 hPa 0,0 l/m 5,1 km/h (1 Bft) O-NO 71 0 min 0,000 mm 0,0 UV-I 0 W/m 10,3 C 12,9 C 6,4 km/h (2 Bft) 100,00 %
29.09.2017 00:14 12,8 C 13,9 C 84 % 1024,8 hPa 0,0 l/m 4,8 km/h (1 Bft) O-NO 64 0 min 0,000 mm 0,0 UV-I 0 W/m 10,2 C 12,8 C 6,4 km/h (2 Bft) 100,00 %
29.09.2017 00:16 12,8 C 13,9 C 84 % 1024,8 hPa 0,0 l/m 3,0 km/h (1 Bft) O-NO 64 0 min 0,000 mm 0,0 UV-I 0 W/m 10,2 C 12,8 C 4,8 km/h (1 Bft) 100,00 %
29.09.2017 00:18 12,7 C 13,9 C 84 % 1024,8 hPa 0,0 l/m 2,3 km/h (1 Bft) O-NO 64 0 min 0,000 mm 0,0 UV-I 0 W/m 10,1 C 12,7 C 3,2 km/h (1 Bft) 100,00 %
29.09.2017 00:20 12,5 C 13,9 C 84 % 1024,8 hPa 0,0 l/m 2,1 km/h (1 Bft) O-NO 64 0 min 0,000 mm 0,0 UV-I 0 W/m 9,9 C 12,5 C 3,2 km/h (1 Bft) 97,87 %
29.09.2017 00:22 12,4 C 13,9 C 85 % 1024,8 hPa 0,0 l/m 2,6 km/h (1 Bft) O-NO 64 0 min 0,000 mm 0,0 UV-I 0 W/m 9,9 C 12,4 C 3,2 km/h (1 Bft) 100,00 %
29.09.2017 00:24 12,3 C 13,9 C 85 % 1024,8 hPa 0,0 l/m 3,1 km/h (1 Bft) O-NO 64 0 min 0,000 mm 0,0 UV-I 0 W/m 9,9 C 12,3 C 4,8 km/h (1 Bft) 100,00 %
29.09.2017 00:26 12,3 C 13,9 C 86 % 1024,7 hPa 0,0 l/m 3,7 km/h (1 Bft) O-NO 64 0 min 0,000 mm 0,0 UV-I 0 W/m 10,0 C 12,3 C 4,8 km/h (1 Bft) 100,00 %
29.09.2017 00:28 12,3 C 13,9 C 86 % 1024,7 hPa 0,0 l/m 4,5 km/h (1 Bft) O-NO 64 0 min 0,000 mm 0,0 UV-I 0 W/m 10,0 C 12,3 C 6,4 km/h (2 Bft) 98,11 %
29.09.2017 00:30 12,3 C 13,9 C 85 % 1024,7 hPa 0,0 l/m 4,6 km/h (1 Bft) O-NO 64 0 min 0,000 mm 0,0 UV-I 0 W/m 9,9 C 12,3 C 6,4 km/h (2 Bft) 100,00 %
29.09.2017 00:32 12,4 C 13,9 C 85 % 1024,6 hPa 0,0 l/m 4,4 km/h (1 Bft) O-NO 64 0 min 0,000 mm 0,0 UV-I 0 W/m 9,9 C 12,4 C 6,4 km/h (2 Bft) 100,00 %
29.09.2017 00:34 12,3 C 13,9 C 85 % 1024,7 hPa 0,0 l/m 4,4 km/h (1 Bft) O-NO 64 0 min 0,000 mm 0,0 UV-I 0 W/m 9,9 C 12,3 C 6,4 km/h (2 Bft) 100,00 %
29.09.2017 00:36 12,3 C 13,9 C 85 % 1024,7 hPa 0,0 l/m 4,4 km/h (1 Bft) O-NO 64 0 min 0,000 mm 0,0 UV-I 0 W/m 9,9 C 12,3 C 6,4 km/h (2 Bft) 100,00 %
29.09.2017 00:38 12,3 C 13,9 C 85 % 1024,7 hPa 0,0 l/m 3,7 km/h (1 Bft) O-NO 64 0 min 0,000 mm 0,0 UV-I 0 W/m 9,9 C 12,3 C 4,8 km/h (1 Bft) 100,00 %
29.09.2017 00:40 12,2 C 13,9 C 85 % 1024,7 hPa 0,0 l/m 3,0 km/h (1 Bft) O-NO 64 0 min 0,000 mm 0,0 UV-I 0 W/m 9,8 C 12,2 C 4,8 km/h (1 Bft) 100,00 %
29.09.2017 00:42 12,1 C 13,9 C 86 % 1024,7 hPa 0,0 l/m 3,3 km/h (1 Bft) O-NO 64 0 min 0,000 mm 0,0 UV-I 0 W/m 9,8 C 12,1 C 4,8 km/h (1 Bft) 100,00 %
29.09.2017 00:44 12,0 C 13,9 C 86 % 1024,6 hPa 0,0 l/m 2,5 km/h (1 Bft) O-NO 64 0 min 0,000 mm 0,0 UV-I 0 W/m 9,7 C 12,0 C 4,8 km/h (1 Bft) 98,11 %
29.09.2017 00:46 11,9 C 13,9 C 86 % 1024,6 hPa 0,0 l/m 1,5 km/h (1 Bft) O-NO 64 0 min 0,000 mm 0,0 UV-I 0 W/m 9,6 C 11,9 C 4,8 km/h (1 Bft) 100,00 %
29.09.2017 00:48 11,8 C 13,9 C 87 % 1024,6 hPa 0,0 l/m 0,7 km/h (0 Bft) O-NO 64 0 min 0,000 mm 0,0 UV-I 0 W/m 9,7 C 11,8 C 1,6 km/h (1 Bft) 98,00 %
29.09.2017 00:50 11,8 C 13,9 C 87 % 1024,6 hPa 0,0 l/m 0,9 km/h (0 Bft) O-NO 64 0 min 0,000 mm 0,0 UV-I 0 W/m 9,7 C 11,8 C 1,6 km/h (1 Bft) 95,74 %
29.09.2017 00:52 11,8 C 13,9 C 87 % 1024,6 hPa 0,0 l/m 1,2 km/h (1 Bft) O-NO 64 0 min 0,000 mm 0,0 UV-I 0 W/m 9,7 C 11,8 C 3,2 km/h (1 Bft) 98,00 %
29.09.2017 00:54 11,8 C 13,9 C 87 % 1024,5 hPa 0,0 l/m 1,5 km/h (1 Bft) O-NO 64 0 min 0,000 mm 0,0 UV-I 0 W/m 9,7 C 11,8 C 3,2 km/h (1 Bft) 98,00 %
29.09.2017 00:56 11,7 C 13,9 C 87 % 1024,6 hPa 0,0 l/m 0,8 km/h (0 Bft) O-NO 64 0 min 0,000 mm 0,0 UV-I 0 W/m 9,6 C 11,7 C 3,2 km/h (1 Bft) 97,87 %
29.09.2017 00:58 11,7 C 13,9 C 87 % 1024,6 hPa 0,0 l/m 2,2 km/h (1 Bft) O-NO 64 0 min 0,000 mm 0,0 UV-I 0 W/m 9,6 C 11,7 C 3,2 km/h (1 Bft) 97,44 %
29.09.2017 01:00 11,5 C 13,9 C 87 % 1024,6 hPa 0,0 l/m 2,6 km/h (1 Bft) O-NO 64 0 min 0,000 mm 0,0 UV-I 0 W/m 9,4 C 11,5 C 3,2 km/h (1 Bft) 98,08 %
29.09.2017 01:02 11,3 C 13,9 C 87 % 1024,5 hPa 0,0 l/m 3,0 km/h (1 Bft) O-NO 64 0 min 0,000 mm 0,0 UV-I 0 W/m 9,2 C 11,3 C 4,8 km/h (1 Bft) 98,00 %
29.09.2017 01:04 11,2 C 13,9 C 88 % 1024,5 hPa 0,0 l/m 2,4 km/h (1 Bft) O-NO 64 0 min 0,000 mm 0,0 UV-I 0 W/m 9,3 C 11,2 C 3,2 km/h (1 Bft) 97,44 %
29.09.2017 01:06 11,1 C 13,9 C 89 % 1024,5 hPa 0,0 l/m 1,6 km/h (1 Bft) O-NO 64 0 min 0,000 mm 0,0 UV-I 0 W/m 9,4 C 11,1 C 3,2 km/h (1 Bft) 98,00 %
29.09.2017 01:08 11,1 C 13,9 C 89 % 1024,5 hPa 0,0 l/m 0,7 km/h (0 Bft) O-NO 64 0 min 0,000 mm 0,0 UV-I 0 W/m 9,4 C 11,1 C 3,2 km/h (1 Bft) 96,23 %
29.09.2017 01:10 11,1 C 13,9 C 90 % 1024,5 hPa 0,0 l/m 1,6 km/h (1 Bft) O-NO 64 0 min 0,000 mm 0,0 UV-I 0 W/m 9,5 C 11,1 C 3,2 km/h (1 Bft) 95,24 %
29.09.2017 01:12 11,2 C 13,9 C 90 % 1024,5 hPa 0,0 l/m 1,3 km/h (1 Bft) O-NO 64 0 min 0,000 mm 0,0 UV-I 0 W/m 9,6 C 11,2 C 3,2 km/h (1 Bft) 97,56 %
29.09.2017 01:14 11,2 C 13,9 C 89 % 1024,5 hPa 0,0 l/m 0,1 km/h (0 Bft) O-NO 64 0 min 0,000 mm 0,0 UV-I 0 W/m 9,5 C 11,2 C 1,6 km/h (1 Bft) 98,00 %
29.09.2017 01:16 11,1 C 13,9 C 89 % 1024,5 hPa 0,0 l/m 0,0 km/h (0 Bft) O-NO 64 0 min 0,000 mm 0,0 UV-I 0 W/m 9,4 C 11,1 C 0,0 km/h (0 Bft) 100,00 %
29.09.2017 01:18 10,9 C 13,9 C 90 % 1024,5 hPa 0,0 l/m 0,0 km/h (0 Bft) O-NO 64 0 min 0,000 mm 0,0 UV-I 0 W/m 9,3 C 10,9 C 0,0 km/h (0 Bft) 98,11 %
29.09.2017 01:20 10,8 C 13,9 C 90 % 1024,4 hPa 0,0 l/m 0,0 km/h (0 Bft) O-NO 64 0 min 0,000 mm 0,0 UV-I 0 W/m 9,2 C 10,8 C 0,0 km/h (0 Bft) 97,56 %
29.09.2017 01:22 10,8 C 13,9 C 91 % 1024,5 hPa 0,0 l/m 2,6 km/h (1 Bft) O-NO 64 0 min 0,000 mm 0,0 UV-I 0 W/m 9,4 C 10,8 C 4,8 km/h (1 Bft) 98,00 %
29.09.2017 01:24 10,8 C 13,9 C 91 % 1024,4 hPa 0,0 l/m 4,0 km/h (1 Bft) O-NO 64 0 min 0,000 mm 0,0 UV-I 0 W/m 9,4 C 10,8 C 4,8 km/h (1 Bft) 97,56 %
29.09.2017 01:26 10,9 C 13,9 C 90 % 1024,4 hPa 0,0 l/m 3,9 km/h (1 Bft) O-NO 64 0 min 0,000 mm 0,0 UV-I 0 W/m 9,3 C 10,9 C 4,8 km/h (1 Bft) 100,00 %
29.09.2017 01:28 11,0 C 13,9 C 90 % 1024,4 hPa 0,0 l/m 3,7 km/h (1 Bft) O-NO 64 0 min 0,000 mm 0,0 UV-I 0 W/m 9,4 C 11,0 C 4,8 km/h (1 Bft) 100,00 %
29.09.2017 01:30 11,1 C 13,9 C 90 % 1024,4 hPa 0,0 l/m 2,6 km/h (1 Bft) O-NO 64 0 min 0,000 mm 0,0 UV-I 0 W/m 9,5 C 11,1 C 4,8 km/h (1 Bft) 100,00 %
29.09.2017 01:32 11,2 C 13,9 C 90 % 1024,4 hPa 0,0 l/m 1,0 km/h (0 Bft) O-NO 64 0 min 0,000 mm 0,0 UV-I 0 W/m 9,6 C 11,2 C 3,2 km/h (1 Bft) 100,00 %
29.09.2017 01:34 11,2 C 13,9 C 89 % 1024,4 hPa 0,0 l/m 0,6 km/h (0 Bft) O-NO 64 0 min 0,000 mm 0,0 UV-I 0 W/m 9,5 C 11,2 C 1,6 km/h (1 Bft) 98,00 %
29.09.2017 01:36 11,2 C 13,9 C 89 % 1024,4 hPa 0,0 l/m 1,1 km/h (1 Bft) O-NO 64 0 min 0,000 mm 0,0 UV-I 0 W/m 9,5 C 11,2 C 3,2 km/h (1 Bft) 100,00 %
29.09.2017 01:38 11,0 C 13,9 C 89 % 1024,4 hPa 0,0 l/m 0,9 km/h (0 Bft) O-NO 64 0 min 0,000 mm 0,0 UV-I 0 W/m 9,3 C 11,0 C 3,2 km/h (1 Bft) 97,56 %
29.09.2017 01:40 10,7 C 13,9 C 89 % 1024,4 hPa 0,0 l/m 0,0 km/h (0 Bft) O-NO 64 0 min 0,000 mm 0,0 UV-I 0 W/m 9,0 C 10,7 C 0,0 km/h (0 Bft) 100,00 %
29.09.2017 01:42 10,4 C 13,9 C 89 % 1024,4 hPa 0,0 l/m 0,0 km/h (0 Bft) O-NO 64 0 min 0,000 mm 0,0 UV-I 0 W/m 8,7 C 10,4 C 0,0 km/h (0 Bft) 100,00 %
29.09.2017 01:44 10,2 C 13,9 C 90 % 1024,4 hPa 0,0 l/m 0,1 km/h (0 Bft) O-NO 64 0 min 0,000 mm 0,0 UV-I 0 W/m 8,6 C 10,2 C 1,6 km/h (1 Bft) 100,00 %
29.09.2017 01:46 10,0 C 13,9 C 91 % 1024,4 hPa 0,0 l/m 1,2 km/h (1 Bft) O-NO 64 0 min 0,000 mm 0,0 UV-I 0 W/m 8,6 C 10,0 C 3,2 km/h (1 Bft) 94,74 %
29.09.2017 01:48 9,9 C 13,9 C 91 % 1024,4 hPa 0,0 l/m 0,2 km/h (0 Bft) O-NO 64 0 min 0,000 mm 0,0 UV-I 0 W/m 8,5 C 9,9 C 1,6 km/h (1 Bft) 100,00 %
29.09.2017 01:50 9,9 C 13,9 C 92 % 1024,3 hPa 0,0 l/m 1,6 km/h (1 Bft) O-NO 66 0 min 0,000 mm 0,0 UV-I 0 W/m 8,7 C 9,9 C 4,8 km/h (1 Bft) 100,00 %
29.09.2017 01:52 9,9 C 13,9 C 92 % 1024,3 hPa 0,0 l/m 0,8 km/h (0 Bft) O-NO 66 0 min 0,000 mm 0,0 UV-I 0 W/m 8,7 C 9,9 C 3,2 km/h (1 Bft) 97,87 %
29.09.2017 01:54 9,8 C 13,9 C 92 % 1024,4 hPa 0,0 l/m 1,1 km/h (1 Bft) O-NO 66 0 min 0,000 mm 0,0 UV-I 0 W/m 8,6 C 9,8 C 3,2 km/h (1 Bft) 100,00 %
29.09.2017 01:56 9,8 C 13,9 C 92 % 1024,3 hPa 0,0 l/m 1,5 km/h (1 Bft) O-NO 66 0 min 0,000 mm 0,0 UV-I 0 W/m 8,6 C 9,8 C 3,2 km/h (1 Bft) 97,87 %
29.09.2017 01:58 9,7 C 13,9 C 92 % 1024,3 hPa 0,0 l/m 1,5 km/h (1 Bft) O-NO 66 0 min 0,000 mm 0,0 UV-I 0 W/m 8,5 C 9,7 C 3,2 km/h (1 Bft) 100,00 %
29.09.2017 02:00 9,7 C 13,9 C 92 % 1024,3 hPa 0,0 l/m 0,7 km/h (0 Bft) O-NO 66 0 min 0,000 mm 0,0 UV-I 0 W/m 8,5 C 9,7 C 3,2 km/h (1 Bft) 100,00 %
29.09.2017 02:02 9,7 C 13,9 C 93 % 1024,3 hPa 0,0 l/m 3,4 km/h (1 Bft) O-SO 103 0 min 0,000 mm 0,0 UV-I 0 W/m 8,6 C 9,7 C 4,8 km/h (1 Bft) 100,00 %
29.09.2017 02:04 9,7 C 13,9 C 92 % 1024,3 hPa 0,0 l/m 3,1 km/h (1 Bft) O 100 0 min 0,000 mm 0,0 UV-I 0 W/m 8,5 C 9,7 C 4,8 km/h (1 Bft) 100,00 %
29.09.2017 02:06 9,6 C 13,9 C 92 % 1024,2 hPa 0,0 l/m 3,0 km/h (1 Bft) O 101 0 min 0,000 mm 0,0 UV-I 0 W/m 8,4 C 9,6 C 4,8 km/h (1 Bft) 100,00 %
29.09.2017 02:08 9,4 C 13,9 C 92 % 1024,2 hPa 0,0 l/m 2,7 km/h (1 Bft) O 100 0 min 0,000 mm 0,0 UV-I 0 W/m 8,2 C 9,4 C 4,8 km/h (1 Bft) 100,00 %
29.09.2017 02:10 9,5 C 13,9 C 93 % 1024,2 hPa 0,0 l/m 2,3 km/h (1 Bft) O 100 0 min 0,000 mm 0,0 UV-I 0 W/m 8,4 C 9,5 C 4,8 km/h (1 Bft) 97,14 %
29.09.2017 02:12 9,5 C 13,9 C 93 % 1024,2 hPa 0,0 l/m 1,9 km/h (1 Bft) O 100 0 min 0,000 mm 0,0 UV-I 0 W/m 8,4 C 9,5 C 3,2 km/h (1 Bft) 97,62 %
29.09.2017 02:14 9,6 C 13,9 C 93 % 1024,2 hPa 0,0 l/m 0,8 km/h (0 Bft) O 100 0 min 0,000 mm 0,0 UV-I 0 W/m 8,5 C 9,6 C 3,2 km/h (1 Bft) 98,18 %
29.09.2017 02:16 9,5 C 13,9 C 93 % 1024,2 hPa 0,0 l/m 0,1 km/h (0 Bft) O 100 0 min 0,000 mm 0,0 UV-I 0 W/m 8,4 C 9,5 C 1,6 km/h (1 Bft) 95,74 %
29.09.2017 02:18 9,5 C 13,9 C 93 % 1024,2 hPa 0,0 l/m 0,4 km/h (0 Bft) O 100 0 min 0,000 mm 0,0 UV-I 0 W/m 8,4 C 9,5 C 1,6 km/h (1 Bft) 97,44 %
29.09.2017 02:20 9,4 C 13,9 C 93 % 1024,1 hPa 0,0 l/m 0,9 km/h (0 Bft) O 100 0 min 0,000 mm 0,0 UV-I 0 W/m 8,3 C 9,4 C 3,2 km/h (1 Bft) 98,21 %
29.09.2017 02:22 9,3 C 13,9 C 93 % 1024,1 hPa 0,0 l/m 2,7 km/h (1 Bft) O 100 0 min 0,000 mm 0,0 UV-I 0 W/m 8,2 C 9,3 C 4,8 km/h (1 Bft) 96,15 %
29.09.2017 02:24 9,3 C 13,9 C 93 % 1024,2 hPa 0,0 l/m 2,9 km/h (1 Bft) O 100 0 min 0,000 mm 0,0 UV-I 0 W/m 8,2 C 9,3 C 4,8 km/h (1 Bft) 97,92 %
29.09.2017 02:26 9,3 C 13,9 C 93 % 1024,1 hPa 0,0 l/m 3,4 km/h (1 Bft) O 93 0 min 0,000 mm 0,0 UV-I 0 W/m 8,2 C 9,3 C 6,4 km/h (2 Bft) 97,56 %
29.09.2017 02:28 9,4 C 13,9 C 94 % 1024,1 hPa 0,0 l/m 3,1 km/h (1 Bft) O 93 0 min 0,000 mm 0,0 UV-I 0 W/m 8,5 C 9,4 C 4,8 km/h (1 Bft) 96,00 %
29.09.2017 02:30 9,6 C 13,9 C 94 % 1024,1 hPa 0,0 l/m 3,1 km/h (1 Bft) O 93 0 min 0,000 mm 0,0 UV-I 0 W/m 8,7 C 9,6 C 4,8 km/h (1 Bft) 96,00 %
29.09.2017 02:32 9,7 C 13,9 C 94 % 1024,1 hPa 0,0 l/m 3,4 km/h (1 Bft) O-NO 74 0 min 0,000 mm 0,0 UV-I 0 W/m 8,8 C 9,7 C 6,4 km/h (2 Bft) 97,73 %
29.09.2017 02:34 9,8 C 13,9 C 94 % 1024,1 hPa 0,0 l/m 2,7 km/h (1 Bft) O-NO 74 0 min 0,000 mm 0,0 UV-I 0 W/m 8,9 C 9,8 C 4,8 km/h (1 Bft) 97,73 %
29.09.2017 02:36 10,1 C 13,9 C 93 % 1024,1 hPa 0,0 l/m 2,8 km/h (1 Bft) O-NO 74 0 min 0,000 mm 0,0 UV-I 0 W/m 9,0 C 10,1 C 4,8 km/h (1 Bft) 95,74 %
29.09.2017 02:38 10,1 C 13,9 C 92 % 1024,1 hPa 0,0 l/m 1,6 km/h (1 Bft) O-NO 74 0 min 0,000 mm 0,0 UV-I 0 W/m 8,9 C 10,1 C 3,2 km/h (1 Bft) 98,11 %
29.09.2017 02:40 10,1 C 13,9 C 92 % 1024,1 hPa 0,0 l/m 2,2 km/h (1 Bft) O-NO 74 0 min 0,000 mm 0,0 UV-I 0 W/m 8,9 C 10,1 C 3,2 km/h (1 Bft) 97,14 %
29.09.2017 02:42 9,9 C 13,9 C 92 % 1024,0 hPa 0,0 l/m 3,4 km/h (1 Bft) O-NO 74 0 min 0,000 mm 0,0 UV-I 0 W/m 8,7 C 9,9 C 6,4 km/h (2 Bft) 96,23 %
29.09.2017 02:44 9,9 C 13,9 C 92 % 1024,1 hPa 0,0 l/m 2,1 km/h (1 Bft) O 92 0 min 0,000 mm 0,0 UV-I 0 W/m 8,7 C 9,9 C 4,8 km/h (1 Bft) 97,37 %
29.09.2017 02:46 9,9 C 13,9 C 92 % 1024,0 hPa 0,0 l/m 2,6 km/h (1 Bft) O 92 0 min 0,000 mm 0,0 UV-I 0 W/m 8,7 C 9,9 C 4,8 km/h (1 Bft) 98,21 %
29.09.2017 02:48 9,9 C 13,9 C 92 % 1024,0 hPa 0,0 l/m 1,6 km/h (1 Bft) O 92 0 min 0,000 mm 0,0 UV-I 0 W/m 8,7 C 9,9 C 3,2 km/h (1 Bft) 92,11 %
29.09.2017 02:50 9,9 C 13,9 C 92 % 1024,0 hPa 0,0 l/m 2,4 km/h (1 Bft) O 92 0 min 0,000 mm 0,0 UV-I 0 W/m 8,7 C 9,9 C 4,8 km/h (1 Bft) 98,11 %
29.09.2017 02:52 9,9 C 13,9 C 92 % 1024,0 hPa 0,0 l/m 3,2 km/h (1 Bft) O 92 0 min 0,000 mm 0,0 UV-I 0 W/m 8,7 C 9,9 C 4,8 km/h (1 Bft) 95,74 %
29.09.2017 02:54 9,9 C 13,3 C 92 % 1024,0 hPa 0,0 l/m 2,5 km/h (1 Bft) O 92 0 min 0,000 mm 0,0 UV-I 0 W/m 8,7 C 9,9 C 4,8 km/h (1 Bft) 98,11 %
29.09.2017 02:56 10,0 C 13,3 C 92 % 1024,0 hPa 0,0 l/m 2,2 km/h (1 Bft) O 92 0 min 0,000 mm 0,0 UV-I 0 W/m 8,8 C 10,0 C 3,2 km/h (1 Bft) 90,91 %
29.09.2017 02:58 9,9 C 13,3 C 91 % 1024,1 hPa 0,0 l/m 3,1 km/h (1 Bft) O 92 0 min 0,000 mm 0,0 UV-I 0 W/m 8,5 C 9,9 C 4,8 km/h (1 Bft) 97,44 %
29.09.2017 03:00 9,9 C 13,3 C 92 % 1024,0 hPa 0,0 l/m 1,6 km/h (1 Bft) O 92 0 min 0,000 mm 0,0 UV-I 0 W/m 8,7 C 9,9 C 3,2 km/h (1 Bft) 98,11 %
29.09.2017 03:02 9,8 C 13,3 C 91 % 1024,0 hPa 0,0 l/m 0,0 km/h (0 Bft) O 92 0 min 0,000 mm 0,0 UV-I 0 W/m 8,4 C 9,8 C 0,0 km/h (0 Bft) 95,74 %
29.09.2017 03:04 9,6 C 13,3 C 91 % 1024,0 hPa 0,0 l/m 0,0 km/h (0 Bft) O 92 0 min 0,000 mm 0,0 UV-I 0 W/m 8,2 C 9,6 C 0,0 km/h (0 Bft) 97,37 %
29.09.2017 03:06 9,3 C 13,3 C 91 % 1024,0 hPa 0,0 l/m 0,0 km/h (0 Bft) O 92 0 min 0,000 mm 0,0 UV-I 0 W/m 7,9 C 9,3 C 0,0 km/h (0 Bft) 96,77 %
29.09.2017 03:08 9,2 C 13,3 C 92 % 1024,0 hPa 0,0 l/m 0,0 km/h (0 Bft) O 92 0 min 0,000 mm 0,0 UV-I 0 W/m 8,0 C 9,2 C 0,0 km/h (0 Bft) 97,56 %
29.09.2017 03:10 9,2 C 13,3 C 93 % 1024,0 hPa 0,0 l/m 0,0 km/h (0 Bft) O 92 0 min 0,000 mm 0,0 UV-I 0 W/m 8,1 C 9,2 C 0,0 km/h (0 Bft) 98,00 %
29.09.2017 03:12 9,2 C 13,3 C 93 % 1024,0 hPa 0,0 l/m 1,0 km/h (0 Bft) O 92 0 min 0,000 mm 0,0 UV-I 0 W/m 8,1 C 9,2 C 3,2 km/h (1 Bft) 97,37 %
29.09.2017 03:14 9,1 C 13,3 C 93 % 1024,0 hPa 0,0 l/m 1,7 km/h (1 Bft) O 92 0 min 0,000 mm 0,0 UV-I 0 W/m 8,0 C 9,1 C 3,2 km/h (1 Bft) 94,64 %
29.09.2017 03:16 9,1 C 13,3 C 93 % 1024,1 hPa 0,0 l/m 1,7 km/h (1 Bft) O 92 0 min 0,000 mm 0,0 UV-I 0 W/m 8,0 C 9,1 C 3,2 km/h (1 Bft) 97,14 %
29.09.2017 03:18 9,1 C 13,3 C 94 % 1024,1 hPa 0,0 l/m 0,7 km/h (0 Bft) O 92 0 min 0,000 mm 0,0 UV-I 0 W/m 8,2 C 9,1 C 1,6 km/h (1 Bft) 98,00 %
29.09.2017 03:20 9,2 C 13,3 C 94 % 1024,1 hPa 0,0 l/m 0,4 km/h (0 Bft) O 92 0 min 0,000 mm 0,0 UV-I 0 W/m 8,3 C 9,2 C 1,6 km/h (1 Bft) 95,74 %
29.09.2017 03:22 9,2 C 13,3 C 94 % 1024,1 hPa 0,0 l/m 0,5 km/h (0 Bft) O 92 0 min 0,000 mm 0,0 UV-I 0 W/m 8,3 C 9,2 C 1,6 km/h (1 Bft) 97,87 %
29.09.2017 03:24 9,2 C 13,3 C 94 % 1024,1 hPa 0,0 l/m 0,0 km/h (0 Bft) O 92 0 min 0,000 mm 0,0 UV-I 0 W/m 8,3 C 9,2 C 0,0 km/h (0 Bft) 97,87 %
29.09.2017 03:26 9,1 C 13,3 C 94 % 1024,0 hPa 0,0 l/m 0,0 km/h (0 Bft) O 92 0 min 0,000 mm 0,0 UV-I 0 W/m 8,2 C 9,1 C 0,0 km/h (0 Bft) 96,00 %
29.09.2017 03:28 9,1 C 13,3 C 94 % 1024,0 hPa 0,0 l/m 0,0 km/h (0 Bft) O 92 0 min 0,000 mm 0,0 UV-I 0 W/m 8,2 C 9,1 C 0,0 km/h (0 Bft) 97,87 %
29.09.2017 03:30 9,0 C 13,3 C 94 % 1024,0 hPa 0,0 l/m 0,0 km/h (0 Bft) O 92 0 min 0,000 mm 0,0 UV-I 0 W/m 8,1 C 9,0 C 0,0 km/h (0 Bft) 93,62 %
29.09.2017 03:32 9,0 C 13,3 C 94 % 1024,0 hPa 0,0 l/m 0,0 km/h (0 Bft) O 92 0 min 0,000 mm 0,0 UV-I 0 W/m 8,1 C 9,0 C 0,0 km/h (0 Bft) 97,87 %
29.09.2017 03:34 9,0 C 13,3 C 94 % 1024,0 hPa 0,0 l/m 0,0 km/h (0 Bft) O 92 0 min 0,000 mm 0,0 UV-I 0 W/m 8,1 C 9,0 C 0,0 km/h (0 Bft) 95,74 %
29.09.2017 03:36 9,0 C 13,3 C 94 % 1023,9 hPa 0,0 l/m 0,0 km/h (0 Bft) O 92 0 min 0,000 mm 0,0 UV-I 0 W/m 8,1 C 9,0 C 0,0 km/h (0 Bft) 97,44 %
29.09.2017 03:38 8,9 C 13,3 C 94 % 1024,0 hPa 0,0 l/m 0,0 km/h (0 Bft) O 92 0 min 0,000 mm 0,0 UV-I 0 W/m 8,0 C 8,9 C 0,0 km/h (0 Bft) 98,00 %
29.09.2017 03:40 8,8 C 13,3 C 94 % 1024,0 hPa 0,0 l/m 0,0 km/h (0 Bft) O 92 0 min 0,000 mm 0,0 UV-I 0 W/m 7,9 C 8,8 C 0,0 km/h (0 Bft) 97,87 %
29.09.2017 03:42 8,7 C 13,3 C 94 % 1024,0 hPa 0,0 l/m 0,0 km/h (0 Bft) O 92 0 min 0,000 mm 0,0 UV-I 0 W/m 7,8 C 8,7 C 0,0 km/h (0 Bft) 96,23 %
29.09.2017 03:44 8,7 C 13,3 C 94 % 1024,0 hPa 0,0 l/m 0,0 km/h (0 Bft) O 92 0 min 0,000 mm 0,0 UV-I 0 W/m 7,8 C 8,7 C 0,0 km/h (0 Bft) 95,74 %
29.09.2017 03:46 8,7 C 13,3 C 94 % 1024,0 hPa 0,0 l/m 0,0 km/h (0 Bft) O 92 0 min 0,000 mm 0,0 UV-I 0 W/m 7,8 C 8,7 C 0,0 km/h (0 Bft) 100,00 %
29.09.2017 03:48 8,7 C 13,3 C 94 % 1024,0 hPa 0,0 l/m 0,0 km/h (0 Bft) O 92 0 min 0,000 mm 0,0 UV-I 0 W/m 7,8 C 8,7 C 0,0 km/h (0 Bft) 100,00 %
29.09.2017 03:50 8,7 C 13,3 C 94 % 1024,0 hPa 0,0 l/m 0,0 km/h (0 Bft) O 92 0 min 0,000 mm 0,0 UV-I 0 W/m 7,8 C 8,7 C 0,0 km/h (0 Bft) 100,00 %
29.09.2017 03:52 8,6 C 13,3 C 94 % 1024,0 hPa 0,0 l/m 0,0 km/h (0 Bft) O 92 0 min 0,000 mm 0,0 UV-I 0 W/m 7,7 C 8,6 C 0,0 km/h (0 Bft) 100,00 %
29.09.2017 03:54 8,6 C 13,3 C 94 % 1024,0 hPa 0,0 l/m 0,0 km/h (0 Bft) O 92 0 min 0,000 mm 0,0 UV-I 0 W/m 7,7 C 8,6 C 0,0 km/h (0 Bft) 97,87 %
29.09.2017 03:56 8,6 C 13,3 C 94 % 1024,1 hPa 0,0 l/m 0,0 km/h (0 Bft) O 92 0 min 0,000 mm 0,0 UV-I 0 W/m 7,7 C 8,6 C 0,0 km/h (0 Bft) 97,87 %
29.09.2017 03:58 8,6 C 13,3 C 94 % 1024,1 hPa 0,0 l/m 0,0 km/h (0 Bft) O 92 0 min 0,000 mm 0,0 UV-I 0 W/m 7,7 C 8,6 C 0,0 km/h (0 Bft) 100,00 %
29.09.2017 04:00 8,6 C 13,3 C 94 % 1024,1 hPa 0,0 l/m 0,0 km/h (0 Bft) O 92 0 min 0,000 mm 0,0 UV-I 0 W/m 7,7 C 8,6 C 0,0 km/h (0 Bft) 100,00 %
29.09.2017 04:02 8,6 C 13,3 C 94 % 1024,1 hPa 0,0 l/m 0,0 km/h (0 Bft) O 92 0 min 0,000 mm 0,0 UV-I 0 W/m 7,7 C 8,6 C 0,0 km/h (0 Bft) 94,12 %
29.09.2017 04:04 8,5 C 13,3 C 94 % 1024,1 hPa 0,0 l/m 0,0 km/h (0 Bft) O 92 0 min 0,000 mm 0,0 UV-I 0 W/m 7,6 C 8,5 C 0,0 km/h (0 Bft) 97,87 %
29.09.2017 04:06 8,4 C 13,3 C 94 % 1024,0 hPa 0,0 l/m 0,2 km/h (0 Bft) O 92 0 min 0,000 mm 0,0 UV-I 0 W/m 7,5 C 8,4 C 1,6 km/h (1 Bft) 97,87 %
29.09.2017 04:08 8,4 C 13,3 C 94 % 1024,0 hPa 0,0 l/m 2,5 km/h (1 Bft) O 92 0 min 0,000 mm 0,0 UV-I 0 W/m 7,5 C 8,4 C 3,2 km/h (1 Bft) 100,00 %
29.09.2017 04:10 8,6 C 13,3 C 95 % 1024,1 hPa 0,0 l/m 2,5 km/h (1 Bft) O 92 0 min 0,000 mm 0,0 UV-I 0 W/m 7,8 C 8,6 C 3,2 km/h (1 Bft) 98,00 %
29.09.2017 04:12 8,7 C 13,3 C 95 % 1024,0 hPa 0,0 l/m 2,5 km/h (1 Bft) O 92 0 min 0,000 mm 0,0 UV-I 0 W/m 7,9 C 8,7 C 3,2 km/h (1 Bft) 100,00 %
29.09.2017 04:14 8,8 C 13,3 C 95 % 1024,0 hPa 0,0 l/m 2,0 km/h (1 Bft) O 92 0 min 0,000 mm 0,0 UV-I 0 W/m 8,0 C 8,8 C 4,8 km/h (1 Bft) 98,57 %
29.09.2017 04:16 8,8 C 13,3 C 95 % 1024,0 hPa 0,0 l/m 3,2 km/h (1 Bft) O 92 0 min 0,000 mm 0,0 UV-I 0 W/m 8,0 C 8,8 C 4,8 km/h (1 Bft) 100,00 %
29.09.2017 04:18 8,8 C 13,3 C 95 % 1023,9 hPa 0,0 l/m 3,6 km/h (1 Bft) O 92 0 min 0,000 mm 0,0 UV-I 0 W/m 8,0 C 8,8 C 4,8 km/h (1 Bft) 100,00 %
29.09.2017 04:20 8,8 C 13,3 C 95 % 1023,9 hPa 0,0 l/m 4,0 km/h (1 Bft) O-NO 78 0 min 0,000 mm 0,0 UV-I 0 W/m 8,0 C 8,8 C 6,4 km/h (2 Bft) 98,11 %
29.09.2017 04:22 8,9 C 13,3 C 95 % 1023,9 hPa 0,0 l/m 4,0 km/h (1 Bft) O-NO 70 0 min 0,000 mm 0,0 UV-I 0 W/m 8,1 C 8,9 C 6,4 km/h (2 Bft) 100,00 %
29.09.2017 04:24 8,9 C 13,3 C 95 % 1023,9 hPa 0,0 l/m 3,2 km/h (1 Bft) O-NO 69 0 min 0,000 mm 0,0 UV-I 0 W/m 8,1 C 8,9 C 6,4 km/h (2 Bft) 100,00 %
29.09.2017 04:26 9,0 C 13,3 C 95 % 1023,9 hPa 0,0 l/m 2,7 km/h (1 Bft) O-NO 69 0 min 0,000 mm 0,0 UV-I 0 W/m 8,2 C 9,0 C 3,2 km/h (1 Bft) 100,00 %
29.09.2017 04:28 9,1 C 13,3 C 95 % 1023,9 hPa 0,0 l/m 2,3 km/h (1 Bft) O-NO 69 0 min 0,000 mm 0,0 UV-I 0 W/m 8,3 C 9,1 C 4,8 km/h (1 Bft) 100,00 %
29.09.2017 04:30 9,1 C 13,3 C 95 % 1023,9 hPa 0,0 l/m 3,1 km/h (1 Bft) O-NO 69 0 min 0,000 mm 0,0 UV-I 0 W/m 8,3 C 9,1 C 4,8 km/h (1 Bft) 100,00 %
29.09.2017 04:32 9,1 C 13,3 C 95 % 1023,9 hPa 0,0 l/m 3,2 km/h (1 Bft) O-NO 69 0 min 0,000 mm 0,0 UV-I 0 W/m 8,3 C 9,1 C 4,8 km/h (1 Bft) 100,00 %
29.09.2017 04:34 9,2 C 13,3 C 95 % 1023,9 hPa 0,0 l/m 2,8 km/h (1 Bft) O-NO 69 0 min 0,000 mm 0,0 UV-I 0 W/m 8,4 C 9,2 C 4,8 km/h (1 Bft) 97,87 %
29.09.2017 04:36 9,1 C 13,3 C 94 % 1023,9 hPa 0,0 l/m 0,0 km/h (0 Bft) O-NO 69 0 min 0,000 mm 0,0 UV-I 0 W/m 8,2 C 9,1 C 1,6 km/h (1 Bft) 100,00 %
29.09.2017 04:38 8,9 C 13,3 C 94 % 1023,9 hPa 0,0 l/m 0,0 km/h (0 Bft) O-NO 69 0 min 0,000 mm 0,0 UV-I 0 W/m 8,0 C 8,9 C 0,0 km/h (0 Bft) 100,00 %
29.09.2017 04:40 8,7 C 13,3 C 94 % 1023,9 hPa 0,0 l/m 0,0 km/h (0 Bft) O-NO 69 0 min 0,000 mm 0,0 UV-I 0 W/m 7,8 C 8,7 C 0,0 km/h (0 Bft) 98,00 %
29.09.2017 04:42 8,4 C 13,3 C 94 % 1023,9 hPa 0,0 l/m 0,2 km/h (0 Bft) O-NO 69 0 min 0,000 mm 0,0 UV-I 0 W/m 7,5 C 8,4 C 1,6 km/h (1 Bft) 98,00 %
29.09.2017 04:44 8,3 C 13,3 C 94 % 1023,9 hPa 0,0 l/m 1,7 km/h (1 Bft) O-NO 69 0 min 0,000 mm 0,0 UV-I 0 W/m 7,4 C 8,3 C 3,2 km/h (1 Bft) 97,87 %
29.09.2017 04:46 8,3 C 13,3 C 95 % 1023,9 hPa 0,0 l/m 0,2 km/h (0 Bft) O-NO 69 0 min 0,000 mm 0,0 UV-I 0 W/m 7,5 C 8,3 C 1,6 km/h (1 Bft) 100,00 %
29.09.2017 04:48 8,3 C 13,3 C 95 % 1023,9 hPa 0,0 l/m 0,1 km/h (0 Bft) O-NO 69 0 min 0,000 mm 0,0 UV-I 0 W/m 7,5 C 8,3 C 1,6 km/h (1 Bft) 100,00 %
29.09.2017 04:50 8,3 C 13,3 C 95 % 1023,9 hPa 0,0 l/m 0,3 km/h (0 Bft) O-NO 69 0 min 0,000 mm 0,0 UV-I 0 W/m 7,5 C 8,3 C 1,6 km/h (1 Bft) 97,87 %
29.09.2017 04:52 8,3 C 13,3 C 95 % 1023,9 hPa 0,0 l/m 0,0 km/h (0 Bft) O-NO 69 0 min 0,000 mm 0,0 UV-I 0 W/m 7,5 C 8,3 C 0,0 km/h (0 Bft) 100,00 %
29.09.2017 04:54 8,3 C 13,3 C 95 % 1023,9 hPa 0,0 l/m 0,0 km/h (0 Bft) O-NO 69 0 min 0,000 mm 0,0 UV-I 0 W/m 7,5 C 8,3 C 0,0 km/h (0 Bft) 100,00 %
29.09.2017 04:56 8,4 C 13,3 C 95 % 1023,9 hPa 0,0 l/m 0,0 km/h (0 Bft) O-NO 69 0 min 0,000 mm 0,0 UV-I 0 W/m 7,6 C 8,4 C 0,0 km/h (0 Bft) 100,00 %
29.09.2017 04:58 8,4 C 13,3 C 95 % 1023,9 hPa 0,0 l/m 0,0 km/h (0 Bft) O-NO 69 0 min 0,000 mm 0,0 UV-I 0 W/m 7,6 C 8,4 C 0,0 km/h (0 Bft) 100,00 %
29.09.2017 05:00 8,3 C 13,3 C 95 % 1023,9 hPa 0,0 l/m 0,0 km/h (0 Bft) O-NO 69 0 min 0,000 mm 0,0 UV-I 0 W/m 7,5 C 8,3 C 0,0 km/h (0 Bft) 100,00 %
29.09.2017 05:02 8,3 C 13,3 C 95 % 1024,0 hPa 0,0 l/m 0,0 km/h (0 Bft) O-NO 69 0 min 0,000 mm 0,0 UV-I 0 W/m 7,5 C 8,3 C 0,0 km/h (0 Bft) 100,00 %
29.09.2017 05:04 8,2 C 13,3 C 95 % 1023,9 hPa 0,0 l/m 0,0 km/h (0 Bft) O-NO 69 0 min 0,000 mm 0,0 UV-I 0 W/m 7,4 C 8,2 C 0,0 km/h (0 Bft) 100,00 %
29.09.2017 05:06 8,1 C 13,3 C 94 % 1023,9 hPa 0,0 l/m 1,2 km/h (1 Bft) O-NO 69 0 min 0,000 mm 0,0 UV-I 0 W/m 7,2 C 8,1 C 3,2 km/h (1 Bft) 98,00 %
29.09.2017 05:08 8,1 C 13,3 C 95 % 1023,9 hPa 0,0 l/m 2,4 km/h (1 Bft) O-NO 69 0 min 0,000 mm 0,0 UV-I 0 W/m 7,3 C 8,1 C 3,2 km/h (1 Bft) 100,00 %
29.09.2017 05:10 8,2 C 13,3 C 95 % 1023,9 hPa 0,0 l/m 1,6 km/h (1 Bft) O-NO 69 0 min 0,000 mm 0,0 UV-I 0 W/m 7,4 C 8,2 C 3,2 km/h (1 Bft) 95,74 %
29.09.2017 05:12 7,9 C 13,3 C 94 % 1023,9 hPa 0,0 l/m 0,0 km/h (0 Bft) O-NO 69 0 min 0,000 mm 0,0 UV-I 0 W/m 7,0 C 7,9 C 1,6 km/h (1 Bft) 100,00 %
29.09.2017 05:14 7,8 C 13,3 C 94 % 1023,9 hPa 0,0 l/m 0,6 km/h (0 Bft) O-NO 69 0 min 0,000 mm 0,0 UV-I 0 W/m 6,9 C 7,8 C 1,6 km/h (1 Bft) 98,00 %
29.09.2017 05:16 7,7 C 13,3 C 94 % 1023,9 hPa 0,0 l/m 0,1 km/h (0 Bft) O-NO 69 0 min 0,000 mm 0,0 UV-I 0 W/m 6,8 C 7,7 C 1,6 km/h (1 Bft) 100,00 %
29.09.2017 05:18 7,7 C 13,3 C 95 % 1023,9 hPa 0,0 l/m 2,2 km/h (1 Bft) O-NO 69 0 min 0,000 mm 0,0 UV-I 0 W/m 7,0 C 7,7 C 3,2 km/h (1 Bft) 100,00 %
29.09.2017 05:20 7,8 C 13,3 C 95 % 1023,9 hPa 0,0 l/m 0,5 km/h (0 Bft) O-NO 69 0 min 0,000 mm 0,0 UV-I 0 W/m 7,0 C 7,8 C 3,2 km/h (1 Bft) 98,00 %
29.09.2017 05:23 7,8 C 13,3 C 95 % 1023,9 hPa 0,0 l/m 0,0 km/h (0 Bft) O-NO 69 0 min 0,000 mm 0,0 UV-I 0 W/m 7,0 C 7,8 C 0,0 km/h (0 Bft) 94,59 %
29.09.2017 05:24 7,8 C 13,3 C 95 % 1023,8 hPa 0,0 l/m 0,0 km/h (0 Bft) O-NO 69 0 min 0,000 mm 0,0 UV-I 0 W/m 7,0 C 7,8 C 0,0 km/h (0 Bft) 91,30 %
29.09.2017 05:26 7,8 C 13,3 C 95 % 1023,8 hPa 0,0 l/m 0,0 km/h (0 Bft) O-NO 69 0 min 0,000 mm 0,0 UV-I 0 W/m 7,0 C 7,8 C 0,0 km/h (0 Bft) 87,23 %
29.09.2017 05:28 7,8 C 13,3 C 96 % 1023,8 hPa 0,0 l/m 0,0 km/h (0 Bft) O-NO 69 0 min 0,000 mm 0,0 UV-I 0 W/m 7,2 C 7,8 C 0,0 km/h (0 Bft) 96,00 %
29.09.2017 05:30 7,8 C 13,3 C 95 % 1023,8 hPa 0,0 l/m 0,0 km/h (0 Bft) O-NO 69 0 min 0,000 mm 0,0 UV-I 0 W/m 7,0 C 7,8 C 0,0 km/h (0 Bft) 95,74 %
29.09.2017 05:32 7,8 C 13,3 C 96 % 1023,8 hPa 0,0 l/m 0,0 km/h (0 Bft) O-NO 69 0 min 0,000 mm 0,0 UV-I 0 W/m 7,2 C 7,8 C 0,0 km/h (0 Bft) 94,74 %
29.09.2017 05:34 7,9 C 13,3 C 96 % 1023,8 hPa 0,0 l/m 0,0 km/h (0 Bft) O-NO 69 0 min 0,000 mm 0,0 UV-I 0 W/m 7,3 C 7,9 C 0,0 km/h (0 Bft) 95,83 %
29.09.2017 05:36 7,8 C 13,3 C 95 % 1023,8 hPa 0,0 l/m 0,0 km/h (0 Bft) O-NO 69 0 min 0,000 mm 0,0 UV-I 0 W/m 7,0 C 7,8 C 0,0 km/h (0 Bft) 94,23 %
29.09.2017 05:38 7,9 C 13,3 C 96 % 1023,8 hPa 0,0 l/m 1,3 km/h (1 Bft) O-NO 69 0 min 0,000 mm 0,0 UV-I 0 W/m 7,3 C 7,9 C 3,2 km/h (1 Bft) 94,00 %
29.09.2017 05:40 7,9 C 13,3 C 96 % 1023,8 hPa 0,0 l/m 2,4 km/h (1 Bft) O-NO 69 0 min 0,000 mm 0,0 UV-I 0 W/m 7,3 C 7,9 C 4,8 km/h (1 Bft) 97,22 %
29.09.2017 05:42 7,9 C 13,3 C 96 % 1023,8 hPa 0,0 l/m 2,0 km/h (1 Bft) O-NO 69 0 min 0,000 mm 0,0 UV-I 0 W/m 7,3 C 7,9 C 3,2 km/h (1 Bft) 91,49 %
29.09.2017 05:44 8,0 C 13,3 C 96 % 1023,8 hPa 0,0 l/m 1,2 km/h (1 Bft) O-NO 69 0 min 0,000 mm 0,0 UV-I 0 W/m 7,4 C 8,0 C 3,2 km/h (1 Bft) 94,64 %
29.09.2017 05:46 8,0 C 13,3 C 96 % 1023,9 hPa 0,0 l/m 0,0 km/h (0 Bft) O-NO 69 0 min 0,000 mm 0,0 UV-I 0 W/m 7,4 C 8,0 C 1,6 km/h (1 Bft) 95,74 %
29.09.2017 05:48 7,9 C 13,3 C 95 % 1023,8 hPa 0,0 l/m 0,0 km/h (0 Bft) O-NO 69 0 min 0,000 mm 0,0 UV-I 0 W/m 7,1 C 7,9 C 0,0 km/h (0 Bft) 93,62 %
29.09.2017 05:50 7,7 C 13,3 C 95 % 1023,8 hPa 0,0 l/m 0,0 km/h (0 Bft) O-NO 69 0 min 0,000 mm 0,0 UV-I 0 W/m 7,0 C 7,7 C 0,0 km/h (0 Bft) 94,74 %
29.09.2017 05:54 7,4 C 13,3 C 95 % 1023,8 hPa 0,0 l/m 0,0 km/h (0 Bft) O-NO 69 0 min 0,000 mm 0,0 UV-I 0 W/m 6,7 C 7,4 C 0,0 km/h (0 Bft) 100,00 %
29.09.2017 05:56 7,4 C 13,3 C 96 % 1023,8 hPa 0,0 l/m 0,0 km/h (0 Bft) O-NO 69 0 min 0,000 mm 0,0 UV-I 0 W/m 6,8 C 7,4 C 0,0 km/h (0 Bft) 96,00 %
29.09.2017 05:58 7,3 C 13,3 C 96 % 1023,8 hPa 0,0 l/m 0,0 km/h (0 Bft) O-NO 69 0 min 0,000 mm 0,0 UV-I 0 W/m 6,7 C 7,3 C 0,0 km/h (0 Bft) 95,74 %
29.09.2017 06:00 7,3 C 13,3 C 95 % 1023,8 hPa 0,0 l/m 0,0 km/h (0 Bft) O-NO 69 0 min 0,000 mm 0,0 UV-I 0 W/m 6,6 C 7,3 C 0,0 km/h (0 Bft) 97,37 %
29.09.2017 06:02 7,3 C 13,3 C 95 % 1023,8 hPa 0,0 l/m 0,0 km/h (0 Bft) O-NO 69 0 min 0,000 mm 0,0 UV-I 0 W/m 6,6 C 7,3 C 0,0 km/h (0 Bft) 97,87 %
29.09.2017 06:04 7,3 C 13,3 C 96 % 1023,8 hPa 0,0 l/m 0,0 km/h (0 Bft) O-NO 69 0 min 0,000 mm 0,0 UV-I 0 W/m 6,7 C 7,3 C 0,0 km/h (0 Bft) 96,00 %
29.09.2017 06:06 7,4 C 13,3 C 96 % 1023,8 hPa 0,0 l/m 0,0 km/h (0 Bft) O-NO 69 0 min 0,000 mm 0,0 UV-I 0 W/m 6,8 C 7,4 C 0,0 km/h (0 Bft) 97,87 %
29.09.2017 06:08 7,4 C 13,3 C 96 % 1023,8 hPa 0,0 l/m 0,0 km/h (0 Bft) O-NO 69 0 min 0,000 mm 0,0 UV-I 0 W/m 6,8 C 7,4 C 0,0 km/h (0 Bft) 97,87 %
29.09.2017 06:10 7,4 C 13,3 C 96 % 1023,7 hPa 0,0 l/m 0,0 km/h (0 Bft) O-NO 69 0 min 0,000 mm 0,0 UV-I 0 W/m 6,8 C 7,4 C 0,0 km/h (0 Bft) 96,67 %
29.09.2017 06:12 7,6 C 13,3 C 96 % 1023,8 hPa 0,0 l/m 0,0 km/h (0 Bft) O-NO 69 0 min 0,000 mm 0,0 UV-I 0 W/m 7,0 C 7,6 C 0,0 km/h (0 Bft) 100,00 %
29.09.2017 06:14 7,6 C 13,3 C 96 % 1023,8 hPa 0,0 l/m 0,0 km/h (0 Bft) O-NO 69 0 min 0,000 mm 0,0 UV-I 0 W/m 7,0 C 7,6 C 0,0 km/h (0 Bft) 100,00 %
29.09.2017 06:16 7,6 C 13,3 C 96 % 1023,8 hPa 0,0 l/m 0,5 km/h (0 Bft) O-NO 69 0 min 0,000 mm 0,0 UV-I 0 W/m 7,0 C 7,6 C 1,6 km/h (1 Bft) 95,74 %
29.09.2017 06:18 7,6 C 13,3 C 96 % 1023,8 hPa 0,0 l/m 0,5 km/h (0 Bft) O-NO 69 0 min 0,000 mm 0,0 UV-I 0 W/m 7,0 C 7,6 C 1,6 km/h (1 Bft) 100,00 %
29.09.2017 06:20 7,6 C 13,3 C 96 % 1023,8 hPa 0,0 l/m 0,0 km/h (0 Bft) O-NO 69 0 min 0,000 mm 0,0 UV-I 0 W/m 7,0 C 7,6 C 0,0 km/h (0 Bft) 100,00 %
29.09.2017 06:22 7,5 C 13,3 C 96 % 1023,8 hPa 0,0 l/m 0,0 km/h (0 Bft) O-NO 69 0 min 0,000 mm 0,0 UV-I 0 W/m 6,9 C 7,5 C 0,0 km/h (0 Bft) 100,00 %
29.09.2017 06:24 7,4 C 13,3 C 96 % 1023,8 hPa 0,0 l/m 0,0 km/h (0 Bft) O-NO 69 0 min 0,000 mm 0,0 UV-I 0 W/m 6,8 C 7,4 C 0,0 km/h (0 Bft) 98,00 %
29.09.2017 06:26 7,4 C 13,3 C 96 % 1023,8 hPa 0,0 l/m 0,0 km/h (0 Bft) O-NO 69 0 min 0,000 mm 0,0 UV-I 0 W/m 6,8 C 7,4 C 0,0 km/h (0 Bft) 100,00 %
29.09.2017 06:28 7,4 C 13,3 C 96 % 1023,9 hPa 0,0 l/m 0,1 km/h (0 Bft) O-NO 69 0 min 0,000 mm 0,0 UV-I 0 W/m 6,8 C 7,4 C 1,6 km/h (1 Bft) 100,00 %
29.09.2017 06:30 7,4 C 13,3 C 96 % 1023,9 hPa 0,0 l/m 0,0 km/h (0 Bft) O-NO 69 0 min 0,000 mm 0,0 UV-I 0 W/m 6,8 C 7,4 C 1,6 km/h (1 Bft) 98,00 %
29.09.2017 06:32 7,4 C 13,3 C 96 % 1024,0 hPa 0,0 l/m 0,0 km/h (0 Bft) O-NO 69 0 min 0,000 mm 0,0 UV-I 0 W/m 6,8 C 7,4 C 0,0 km/h (0 Bft) 100,00 %
29.09.2017 06:34 7,3 C 13,3 C 96 % 1024,0 hPa 0,0 l/m 0,0 km/h (0 Bft) O-NO 69 0 min 0,000 mm 0,0 UV-I 0 W/m 6,7 C 7,3 C 0,0 km/h (0 Bft) 100,00 %
29.09.2017 06:36 7,3 C 13,3 C 96 % 1024,0 hPa 0,0 l/m 0,0 km/h (0 Bft) O-NO 69 0 min 0,000 mm 0,0 UV-I 0 W/m 6,7 C 7,3 C 0,0 km/h (0 Bft) 100,00 %
29.09.2017 06:38 7,3 C 13,3 C 96 % 1024,0 hPa 0,0 l/m 0,3 km/h (0 Bft) O-NO 69 0 min 0,000 mm 0,0 UV-I 0 W/m 6,7 C 7,3 C 1,6 km/h (1 Bft) 100,00 %
29.09.2017 06:40 7,3 C 13,3 C 96 % 1024,0 hPa 0,0 l/m 2,1 km/h (1 Bft) O-NO 69 0 min 0,000 mm 0,0 UV-I 0 W/m 6,7 C 7,3 C 3,2 km/h (1 Bft) 100,00 %
29.09.2017 06:42 7,5 C 13,3 C 97 % 1024,0 hPa 0,0 l/m 0,2 km/h (0 Bft) O-NO 69 0 min 0,000 mm 0,0 UV-I 0 W/m 7,1 C 7,5 C 1,6 km/h (1 Bft) 100,00 %
29.09.2017 06:44 7,6 C 13,3 C 97 % 1024,0 hPa 0,0 l/m 0,0 km/h (0 Bft) O-NO 69 0 min 0,000 mm 0,0 UV-I 0 W/m 7,2 C 7,6 C 0,0 km/h (0 Bft) 100,00 %
29.09.2017 06:46 7,6 C 13,3 C 97 % 1024,1 hPa 0,0 l/m 0,0 km/h (0 Bft) O-NO 69 0 min 0,000 mm 0,0 UV-I 0 W/m 7,2 C 7,6 C 0,0 km/h (0 Bft) 97,87 %
29.09.2017 06:48 7,6 C 13,3 C 96 % 1024,0 hPa 0,0 l/m 0,0 km/h (0 Bft) O-NO 69 0 min 0,000 mm 0,0 UV-I 5 W/m 7,0 C 7,6 C 0,0 km/h (0 Bft) 100,00 %
29.09.2017 06:50 7,6 C 13,3 C 96 % 1024,0 hPa 0,0 l/m 0,0 km/h (0 Bft) O-NO 69 0 min 0,000 mm 0,0 UV-I 5 W/m 7,0 C 7,6 C 0,0 km/h (0 Bft) 100,00 %
29.09.2017 06:52 7,4 C 13,3 C 96 % 1024,0 hPa 0,0 l/m 0,0 km/h (0 Bft) O-NO 69 0 min 0,000 mm 0,0 UV-I 5 W/m 6,8 C 7,4 C 0,0 km/h (0 Bft) 100,00 %
29.09.2017 06:54 7,4 C 13,3 C 96 % 1024,0 hPa 0,0 l/m 1,0 km/h (0 Bft) O-NO 69 0 min 0,000 mm 0,0 UV-I 5 W/m 6,8 C 7,4 C 1,6 km/h (1 Bft) 95,74 %
29.09.2017 06:56 7,4 C 13,3 C 97 % 1024,0 hPa 0,0 l/m 0,0 km/h (0 Bft) O-NO 69 0 min 0,000 mm 0,0 UV-I 6 W/m 7,0 C 7,4 C 0,0 km/h (0 Bft) 97,87 %
29.09.2017 06:58 7,3 C 13,3 C 96 % 1024,0 hPa 0,0 l/m 0,0 km/h (0 Bft) O-NO 69 0 min 0,000 mm 0,0 UV-I 7 W/m 6,7 C 7,3 C 0,0 km/h (0 Bft) 100,00 %
29.09.2017 07:00 7,3 C 13,3 C 96 % 1024,0 hPa 0,0 l/m 0,0 km/h (0 Bft) O-NO 69 0 min 0,000 mm 0,0 UV-I 8 W/m 6,7 C 7,3 C 0,0 km/h (0 Bft) 100,00 %
29.09.2017 07:02 7,3 C 13,3 C 97 % 1024,0 hPa 0,0 l/m 0,0 km/h (0 Bft) O-NO 69 0 min 0,000 mm 0,0 UV-I 9 W/m 6,9 C 7,3 C 0,0 km/h (0 Bft) 97,56 %
29.09.2017 07:04 7,3 C 13,3 C 97 % 1024,0 hPa 0,0 l/m 0,0 km/h (0 Bft) O-NO 69 0 min 0,000 mm 0,0 UV-I 10 W/m 6,9 C 7,3 C 0,0 km/h (0 Bft) 100,00 %
29.09.2017 07:06 7,3 C 13,3 C 97 % 1023,9 hPa 0,0 l/m 0,0 km/h (0 Bft) O-NO 69 0 min 0,000 mm 0,0 UV-I 11 W/m 6,9 C 7,3 C 0,0 km/h (0 Bft) 100,00 %
29.09.2017 07:08 7,3 C 13,3 C 97 % 1024,0 hPa 0,0 l/m 0,0 km/h (0 Bft) O-NO 69 0 min 0,000 mm 0,0 UV-I 12 W/m 6,9 C 7,3 C 0,0 km/h (0 Bft) 95,74 %
29.09.2017 07:10 7,3 C 13,3 C 97 % 1024,0 hPa 0,0 l/m 0,0 km/h (0 Bft) O-NO 69 0 min 0,000 mm 0,0 UV-I 13 W/m 6,9 C 7,3 C 0,0 km/h (0 Bft) 100,00 %
29.09.2017 07:12 7,3 C 13,3 C 97 % 1024,0 hPa 0,0 l/m 0,0 km/h (0 Bft) O-NO 69 2 min 0,000 mm 0,0 UV-I 14 W/m 6,9 C 7,3 C 1,6 km/h (1 Bft) 100,00 %
29.09.2017 07:14 7,3 C 13,3 C 97 % 1024,0 hPa 0,0 l/m 0,0 km/h (0 Bft) O-NO 69 2 min 0,000 mm 0,0 UV-I 18 W/m 6,9 C 7,3 C 0,0 km/h (0 Bft) 97,87 %
29.09.2017 07:16 7,3 C 13,3 C 97 % 1024,1 hPa 0,0 l/m 0,0 km/h (0 Bft) O-NO 69 2 min 0,000 mm 0,0 UV-I 20 W/m 6,9 C 7,3 C 0,0 km/h (0 Bft) 100,00 %
29.09.2017 07:18 7,3 C 13,3 C 97 % 1024,1 hPa 0,0 l/m 0,0 km/h (0 Bft) O-NO 69 2 min 0,000 mm 0,0 UV-I 22 W/m 6,9 C 7,3 C 0,0 km/h (0 Bft) 100,00 %
29.09.2017 07:20 7,3 C 13,3 C 97 % 1024,1 hPa 0,0 l/m 0,0 km/h (0 Bft) O-NO 69 2 min 0,000 mm 0,0 UV-I 26 W/m 6,9 C 7,3 C 0,0 km/h (0 Bft) 100,00 %
29.09.2017 07:22 7,4 C 13,3 C 97 % 1024,1 hPa 0,0 l/m 0,0 km/h (0 Bft) O-NO 69 2 min 0,000 mm 0,0 UV-I 28 W/m 7,0 C 7,4 C 0,0 km/h (0 Bft) 100,00 %
29.09.2017 07:24 7,4 C 13,3 C 97 % 1024,1 hPa 0,0 l/m 0,0 km/h (0 Bft) O-NO 69 2 min 0,000 mm 0,0 UV-I 31 W/m 7,0 C 7,4 C 0,0 km/h (0 Bft) 100,00 %
29.09.2017 07:26 7,3 C 13,3 C 97 % 1024,1 hPa 0,0 l/m 0,0 km/h (0 Bft) O-NO 69 2 min 0,000 mm 0,0 UV-I 34 W/m 6,9 C 7,3 C 0,0 km/h (0 Bft) 100,00 %
29.09.2017 07:28 7,3 C 13,3 C 97 % 1024,1 hPa 0,0 l/m 0,0 km/h (0 Bft) O-NO 69 2 min 0,000 mm 0,0 UV-I 37 W/m 6,9 C 7,3 C 0,0 km/h (0 Bft) 100,00 %
29.09.2017 07:30 7,4 C 13,3 C 97 % 1024,1 hPa 0,0 l/m 0,0 km/h (0 Bft) O-NO 69 2 min 0,000 mm 0,0 UV-I 40 W/m 7,0 C 7,4 C 0,0 km/h (0 Bft) 98,00 %
29.09.2017 07:32 7,3 C 13,3 C 97 % 1024,1 hPa 0,0 l/m 0,0 km/h (0 Bft) O-NO 69 2 min 0,000 mm 0,0 UV-I 43 W/m 6,9 C 7,3 C 0,0 km/h (0 Bft) 98,11 %
29.09.2017 07:34 7,3 C 13,3 C 97 % 1024,2 hPa 0,0 l/m 0,0 km/h (0 Bft) O-NO 69 2 min 0,000 mm 0,0 UV-I 49 W/m 6,9 C 7,3 C 0,0 km/h (0 Bft) 97,87 %
29.09.2017 07:36 7,2 C 13,3 C 97 % 1024,1 hPa 0,0 l/m 0,0 km/h (0 Bft) O-NO 69 2 min 0,000 mm 0,0 UV-I 52 W/m 6,8 C 7,2 C 0,0 km/h (0 Bft) 97,92 %
29.09.2017 07:38 7,3 C 13,3 C 97 % 1024,1 hPa 0,0 l/m 0,0 km/h (0 Bft) O-NO 69 2 min 0,000 mm 0,0 UV-I 53 W/m 6,9 C 7,3 C 0,0 km/h (0 Bft) 97,87 %
29.09.2017 07:40 7,3 C 13,3 C 97 % 1024,1 hPa 0,0 l/m 0,0 km/h (0 Bft) O-NO 69 2 min 0,000 mm 0,0 UV-I 58 W/m 6,9 C 7,3 C 0,0 km/h (0 Bft) 97,92 %
29.09.2017 07:42 7,4 C 13,3 C 97 % 1024,2 hPa 0,0 l/m 0,0 km/h (0 Bft) O-NO 69 0 min 0,000 mm 0,0 UV-I 55 W/m 7,0 C 7,4 C 0,0 km/h (0 Bft) 95,74 %
29.09.2017 07:44 7,4 C 13,3 C 97 % 1024,2 hPa 0,0 l/m 0,0 km/h (0 Bft) O-NO 69 0 min 0,000 mm 0,0 UV-I 61 W/m 7,0 C 7,4 C 0,0 km/h (0 Bft) 97,87 %
29.09.2017 07:46 7,4 C 13,3 C 97 % 1024,2 hPa 0,0 l/m 0,0 km/h (0 Bft) O-NO 69 2 min 0,000 mm 0,0 UV-I 72 W/m 7,0 C 7,4 C 0,0 km/h (0 Bft) 95,12 %
29.09.2017 07:48 7,5 C 13,3 C 97 % 1024,2 hPa 0,0 l/m 0,0 km/h (0 Bft) O-NO 69 2 min 0,000 mm 0,0 UV-I 78 W/m 7,1 C 7,5 C 0,0 km/h (0 Bft) 97,87 %
29.09.2017 07:50 7,6 C 13,3 C 97 % 1024,2 hPa 0,0 l/m 0,0 km/h (0 Bft) O-NO 69 2 min 0,000 mm 0,0 UV-I 86 W/m 7,2 C 7,6 C 0,0 km/h (0 Bft) 97,87 %
29.09.2017 07:52 7,6 C 13,3 C 97 % 1024,1 hPa 0,0 l/m 0,0 km/h (0 Bft) O-NO 69 2 min 0,000 mm 0,0 UV-I 91 W/m 7,2 C 7,6 C 0,0 km/h (0 Bft) 98,00 %
29.09.2017 07:54 7,7 C 13,3 C 97 % 1024,2 hPa 0,0 l/m 0,0 km/h (0 Bft) O-NO 69 2 min 0,000 mm 0,0 UV-I 95 W/m 7,3 C 7,7 C 0,0 km/h (0 Bft) 95,65 %
29.09.2017 07:56 7,7 C 13,3 C 97 % 1024,2 hPa 0,0 l/m 0,0 km/h (0 Bft) O-NO 69 2 min 0,000 mm 0,0 UV-I 97 W/m 7,3 C 7,7 C 0,0 km/h (0 Bft) 96,92 %
29.09.2017 07:58 7,7 C 13,3 C 97 % 1024,2 hPa 0,0 l/m 0,0 km/h (0 Bft) O-NO 69 2 min 0,000 mm 0,0 UV-I 99 W/m 7,3 C 7,7 C 0,0 km/h (0 Bft) 98,00 %
29.09.2017 08:00 7,8 C 13,3 C 97 % 1024,2 hPa 0,0 l/m 0,0 km/h (0 Bft) O-NO 69 2 min 0,025 mm 0,0 UV-I 105 W/m 7,4 C 7,8 C 0,0 km/h (0 Bft) 96,00 %
29.09.2017 08:02 7,8 C 13,3 C 97 % 1024,2 hPa 0,0 l/m 0,0 km/h (0 Bft) O-NO 69 2 min 0,000 mm 0,0 UV-I 110 W/m 7,4 C 7,8 C 0,0 km/h (0 Bft) 100,00 %
29.09.2017 08:04 7,9 C 13,3 C 97 % 1024,2 hPa 0,0 l/m 0,0 km/h (0 Bft) O-NO 69 2 min 0,000 mm 0,0 UV-I 114 W/m 7,5 C 7,9 C 0,0 km/h (0 Bft) 96,23 %
29.09.2017 08:06 7,9 C 13,3 C 97 % 1024,2 hPa 0,0 l/m 0,0 km/h (0 Bft) O-NO 69 2 min 0,000 mm 0,0 UV-I 118 W/m 7,5 C 7,9 C 0,0 km/h (0 Bft) 97,37 %
29.09.2017 08:08 8,1 C 13,3 C 97 % 1024,2 hPa 0,0 l/m 0,0 km/h (0 Bft) O-NO 69 2 min 0,000 mm 0,0 UV-I 122 W/m 7,7 C 8,1 C 0,0 km/h (0 Bft) 100,00 %
29.09.2017 08:10 8,2 C 13,3 C 97 % 1024,3 hPa 0,0 l/m 0,2 km/h (0 Bft) O-NO 69 2 min 0,000 mm 0,0 UV-I 128 W/m 7,8 C 8,2 C 1,6 km/h (1 Bft) 97,92 %
29.09.2017 08:12 8,4 C 13,3 C 97 % 1024,3 hPa 0,0 l/m 0,0 km/h (0 Bft) O-NO 69 2 min 0,000 mm 0,0 UV-I 132 W/m 8,0 C 8,4 C 0,0 km/h (0 Bft) 97,92 %
29.09.2017 08:14 8,6 C 13,3 C 97 % 1024,3 hPa 0,0 l/m 0,0 km/h (0 Bft) O-NO 69 2 min 0,000 mm 0,0 UV-I 135 W/m 8,2 C 8,6 C 1,6 km/h (1 Bft) 98,00 %
29.09.2017 08:16 8,7 C 13,3 C 97 % 1024,2 hPa 0,0 l/m 0,0 km/h (0 Bft) O-NO 69 2 min 0,000 mm 0,0 UV-I 140 W/m 8,3 C 8,7 C 0,0 km/h (0 Bft) 100,00 %
29.09.2017 08:19 8,8 C 13,3 C 97 % 1024,2 hPa 0,0 l/m 0,0 km/h (0 Bft) O-NO 69 3 min 0,000 mm 0,0 UV-I 146 W/m 8,4 C 8,8 C 0,0 km/h (0 Bft) 98,68 %
29.09.2017 08:20 8,9 C 13,3 C 98 % 1024,3 hPa 0,0 l/m 0,0 km/h (0 Bft) O-NO 69 1 min 0,000 mm 0,0 UV-I 149 W/m 8,6 C 8,9 C 0,0 km/h (0 Bft) 100,00 %
29.09.2017 08:22 9,0 C 13,3 C 98 % 1024,3 hPa 0,0 l/m 0,0 km/h (0 Bft) O-NO 69 2 min 0,000 mm 0,0 UV-I 152 W/m 8,7 C 9,0 C 0,0 km/h (0 Bft) 100,00 %
29.09.2017 08:24 9,1 C 13,3 C 97 % 1024,3 hPa 0,0 l/m 0,0 km/h (0 Bft) O-NO 69 2 min 0,000 mm 0,0 UV-I 155 W/m 8,6 C 9,1 C 0,0 km/h (0 Bft) 98,00 %
29.09.2017 08:26 9,1 C 13,3 C 97 % 1024,3 hPa 0,0 l/m 0,0 km/h (0 Bft) O-NO 69 2 min 0,000 mm 0,0 UV-I 157 W/m 8,6 C 9,1 C 0,0 km/h (0 Bft) 97,87 %
29.09.2017 08:28 9,2 C 13,3 C 97 % 1024,3 hPa 0,0 l/m 0,0 km/h (0 Bft) O-NO 69 2 min 0,000 mm 0,0 UV-I 164 W/m 8,7 C 9,2 C 0,0 km/h (0 Bft) 95,74 %
29.09.2017 08:30 9,2 C 13,3 C 97 % 1024,4 hPa 0,0 l/m 0,0 km/h (0 Bft) O-NO 69 2 min 0,000 mm 0,0 UV-I 169 W/m 8,7 C 9,2 C 0,0 km/h (0 Bft) 100,00 %
29.09.2017 08:32 9,3 C 13,3 C 97 % 1024,3 hPa 0,0 l/m 0,0 km/h (0 Bft) O-NO 69 2 min 0,000 mm 0,0 UV-I 163 W/m 8,8 C 9,3 C 0,0 km/h (0 Bft) 96,30 %
29.09.2017 08:34 9,3 C 13,3 C 97 % 1024,3 hPa 0,0 l/m 0,0 km/h (0 Bft) O-NO 69 2 min 0,000 mm 0,0 UV-I 176 W/m 8,8 C 9,3 C 0,0 km/h (0 Bft) 98,11 %
29.09.2017 08:36 9,4 C 13,3 C 97 % 1024,4 hPa 0,0 l/m 0,0 km/h (0 Bft) O-NO 69 2 min 0,000 mm 0,0 UV-I 170 W/m 8,9 C 9,4 C 0,0 km/h (0 Bft) 97,37 %
29.09.2017 08:38 9,5 C 13,3 C 97 % 1024,4 hPa 0,0 l/m 0,6 km/h (0 Bft) O-NO 69 2 min 0,000 mm 0,0 UV-I 150 W/m 9,0 C 9,5 C 3,2 km/h (1 Bft) 98,11 %
29.09.2017 08:40 9,6 C 13,3 C 97 % 1024,4 hPa 0,0 l/m 0,0 km/h (0 Bft) O-NO 69 0 min 0,000 mm 0,0 UV-I 127 W/m 9,1 C 9,6 C 0,0 km/h (0 Bft) 93,62 %
29.09.2017 08:42 9,6 C 13,3 C 97 % 1024,4 hPa 0,0 l/m 0,0 km/h (0 Bft) O-NO 69 0 min 0,000 mm 0,0 UV-I 137 W/m 9,1 C 9,6 C 0,0 km/h (0 Bft) 97,87 %
29.09.2017 08:44 9,6 C 13,3 C 97 % 1024,4 hPa 0,0 l/m 0,0 km/h (0 Bft) O-NO 69 0 min 0,000 mm 0,0 UV-I 148 W/m 9,1 C 9,6 C 0,0 km/h (0 Bft) 98,41 %
29.09.2017 08:48 9,8 C 13,3 C 97 % 1024,4 hPa 0,0 l/m 2,1 km/h (1 Bft) O-NO 69 4 min 0,000 mm 0,0 UV-I 177 W/m 9,3 C 9,8 C 3,2 km/h (1 Bft) 97,20 %
29.09.2017 08:50 9,8 C 13,3 C 97 % 1024,4 hPa 0,0 l/m 0,1 km/h (0 Bft) O-NO 69 2 min 0,000 mm 0,0 UV-I 183 W/m 9,3 C 9,8 C 1,6 km/h (1 Bft) 100,00 %
29.09.2017 08:52 9,8 C 13,3 C 97 % 1024,4 hPa 0,0 l/m 0,6 km/h (0 Bft) O-NO 69 2 min 0,000 mm 0,0 UV-I 176 W/m 9,3 C 9,8 C 3,2 km/h (1 Bft) 94,00 %
29.09.2017 08:54 9,9 C 13,3 C 97 % 1024,4 hPa 0,0 l/m 1,7 km/h (1 Bft) O-NO 69 2 min 0,000 mm 0,1 UV-I 169 W/m 9,4 C 9,9 C 3,2 km/h (1 Bft) 100,00 %
29.09.2017 08:56 9,9 C 13,3 C 97 % 1024,4 hPa 0,0 l/m 1,0 km/h (0 Bft) O-NO 69 2 min 0,000 mm 0,5 UV-I 208 W/m 9,4 C 9,9 C 3,2 km/h (1 Bft) 94,00 %
29.09.2017 08:58 10,1 C 13,3 C 97 % 1024,5 hPa 0,0 l/m 1,1 km/h (1 Bft) O-NO 69 2 min 0,000 mm 0,5 UV-I 244 W/m 9,6 C 10,1 C 3,2 km/h (1 Bft) 98,00 %
29.09.2017 09:00 10,2 C 13,3 C 97 % 1024,4 hPa 0,0 l/m 2,1 km/h (1 Bft) O-NO 68 2 min 0,077 mm 0,5 UV-I 231 W/m 9,7 C 10,2 C 4,8 km/h (1 Bft) 98,21 %
29.09.2017 09:02 10,3 C 13,3 C 97 % 1024,5 hPa 0,0 l/m 2,2 km/h (1 Bft) O-NO 68 2 min 0,000 mm 0,5 UV-I 262 W/m 9,8 C 10,3 C 4,8 km/h (1 Bft) 97,37 %
29.09.2017 09:04 10,4 C 13,3 C 97 % 1024,4 hPa 0,0 l/m 1,1 km/h (1 Bft) O-NO 68 2 min 0,000 mm 0,6 UV-I 260 W/m 9,9 C 10,4 C 3,2 km/h (1 Bft) 96,00 %
29.09.2017 09:06 10,6 C 13,3 C 96 % 1024,4 hPa 0,0 l/m 3,2 km/h (1 Bft) O 81 2 min 0,000 mm 0,6 UV-I 270 W/m 10,0 C 10,6 C 4,8 km/h (1 Bft) 98,00 %
29.09.2017 09:08 10,6 C 13,3 C 96 % 1024,4 hPa 0,0 l/m 7,2 km/h (2 Bft) NO 56 2 min 0,000 mm 0,6 UV-I 256 W/m 10,0 C 10,0 C 12,9 km/h (3 Bft) 97,56 %
29.09.2017 09:10 10,6 C 13,3 C 96 % 1024,4 hPa 0,0 l/m 9,2 km/h (2 Bft) O-NO 74 2 min 0,000 mm 0,6 UV-I 240 W/m 10,0 C 8,7 C 12,9 km/h (3 Bft) 96,43 %
29.09.2017 09:12 10,6 C 13,3 C 95 % 1024,4 hPa 0,0 l/m 9,7 km/h (2 Bft) O-NO 58 2 min 0,000 mm 0,6 UV-I 238 W/m 9,8 C 8,4 C 12,9 km/h (3 Bft) 97,87 %
29.09.2017 09:14 10,6 C 13,3 C 95 % 1024,4 hPa 0,0 l/m 8,9 km/h (2 Bft) O-NO 61 2 min 0,000 mm 0,7 UV-I 235 W/m 9,8 C 8,9 C 14,5 km/h (3 Bft) 100,00 %
29.09.2017 09:16 10,7 C 13,3 C 95 % 1024,4 hPa 0,0 l/m 7,2 km/h (2 Bft) O-NO 64 2 min 0,000 mm 0,7 UV-I 272 W/m 9,9 C 10,1 C 12,9 km/h (3 Bft) 94,34 %
29.09.2017 09:18 10,7 C 13,3 C 95 % 1024,4 hPa 0,0 l/m 5,2 km/h (1 Bft) O-NO 57 2 min 0,000 mm 0,7 UV-I 295 W/m 9,9 C 10,7 C 9,7 km/h (2 Bft) 100,00 %
29.09.2017 09:20 10,8 C 13,3 C 95 % 1024,4 hPa 0,0 l/m 6,1 km/h (2 Bft) O-NO 60 2 min 0,000 mm 0,8 UV-I 321 W/m 10,0 C 10,8 C 9,7 km/h (2 Bft) 98,00 %
29.09.2017 09:22 10,9 C 13,3 C 94 % 1024,4 hPa 0,0 l/m 7,0 km/h (2 Bft) O-NO 61 2 min 0,000 mm 0,8 UV-I 323 W/m 10,0 C 10,5 C 9,7 km/h (2 Bft) 93,62 %
29.09.2017 09:24 11,0 C 13,3 C 94 % 1024,4 hPa 0,0 l/m 7,9 km/h (2 Bft) O-NO 58 2 min 0,000 mm 0,8 UV-I 334 W/m 10,1 C 10,0 C 9,7 km/h (2 Bft) 97,22 %
29.09.2017 09:26 11,0 C 13,3 C 94 % 1024,4 hPa 0,0 l/m 7,3 km/h (2 Bft) O-NO 72 2 min 0,000 mm 0,8 UV-I 285 W/m 10,1 C 10,4 C 12,9 km/h (3 Bft) 100,00 %
29.09.2017 09:28 11,2 C 13,3 C 94 % 1024,4 hPa 0,0 l/m 6,8 km/h (2 Bft) O-NO 64 2 min 0,000 mm 0,8 UV-I 272 W/m 10,3 C 10,9 C 9,7 km/h (2 Bft) 100,00 %
29.09.2017 09:30 11,2 C 13,3 C 93 % 1024,4 hPa 0,0 l/m 6,5 km/h (2 Bft) NO 51 2 min 0,000 mm 0,8 UV-I 247 W/m 10,1 C 11,2 C 8,0 km/h (2 Bft) 100,00 %
29.09.2017 09:32 11,2 C 13,3 C 93 % 1024,5 hPa 0,0 l/m 6,8 km/h (2 Bft) O-NO 63 0 min 0,000 mm 0,8 UV-I 204 W/m 10,1 C 10,9 C 9,7 km/h (2 Bft) 97,87 %
29.09.2017 09:34 11,2 C 13,3 C 92 % 1024,4 hPa 0,0 l/m 6,9 km/h (2 Bft) O-NO 74 2 min 0,000 mm 0,9 UV-I 254 W/m 9,9 C 10,9 C 12,9 km/h (3 Bft) 97,87 %
29.09.2017 09:36 11,2 C 13,3 C 92 % 1024,5 hPa 0,0 l/m 7,7 km/h (2 Bft) NO 53 2 min 0,000 mm 0,9 UV-I 258 W/m 9,9 C 10,3 C 12,9 km/h (3 Bft) 98,00 %
29.09.2017 09:38 11,3 C 13,3 C 92 % 1024,5 hPa 0,0 l/m 8,5 km/h (2 Bft) NO 34 2 min 0,000 mm 0,9 UV-I 234 W/m 10,0 C 9,9 C 12,9 km/h (3 Bft) 97,87 %
29.09.2017 09:40 11,3 C 13,3 C 92 % 1024,4 hPa 0,0 l/m 6,7 km/h (2 Bft) O-NO 63 2 min 0,000 mm 1,0 UV-I 326 W/m 10,0 C 11,1 C 9,7 km/h (2 Bft) 95,74 %
29.09.2017 09:42 11,4 C 13,3 C 92 % 1024,4 hPa 0,0 l/m 8,2 km/h (2 Bft) NO 53 2 min 0,000 mm 1,0 UV-I 346 W/m 10,1 C 10,2 C 12,9 km/h (3 Bft) 95,74 %
29.09.2017 09:44 11,5 C 13,3 C 92 % 1024,4 hPa 0,0 l/m 6,5 km/h (2 Bft) O-NO 67 2 min 0,000 mm 1,0 UV-I 365 W/m 10,2 C 11,5 C 12,9 km/h (3 Bft) 98,00 %
29.09.2017 09:46 11,7 C 13,3 C 92 % 1024,4 hPa 0,0 l/m 7,0 km/h (2 Bft) N-NO 28 2 min 0,000 mm 1,1 UV-I 401 W/m 10,4 C 11,3 C 11,3 km/h (2 Bft) 93,62 %
29.09.2017 09:48 11,8 C 13,3 C 92 % 1024,4 hPa 0,0 l/m 8,2 km/h (2 Bft) O-NO 74 2 min 0,000 mm 1,1 UV-I 402 W/m 10,5 C 10,6 C 14,5 km/h (3 Bft) 97,87 %
29.09.2017 09:50 11,8 C 13,3 C 91 % 1024,4 hPa 0,0 l/m 7,3 km/h (2 Bft) NO 48 2 min 0,000 mm 1,1 UV-I 382 W/m 10,4 C 11,2 C 11,3 km/h (2 Bft) 97,87 %
29.09.2017 09:52 11,9 C 13,3 C 91 % 1024,4 hPa 0,0 l/m 9,0 km/h (2 Bft) NO 47 2 min 0,000 mm 1,1 UV-I 407 W/m 10,5 C 10,2 C 14,5 km/h (3 Bft) 95,74 %
29.09.2017 09:54 11,9 C 13,3 C 90 % 1024,4 hPa 0,0 l/m 9,3 km/h (2 Bft) O 80 2 min 0,000 mm 1,2 UV-I 373 W/m 10,3 C 10,1 C 16,1 km/h (3 Bft) 97,87 %
29.09.2017 09:56 11,9 C 13,3 C 90 % 1024,5 hPa 0,0 l/m 8,9 km/h (2 Bft) O-NO 77 2 min 0,000 mm 1,2 UV-I 276 W/m 10,3 C 10,3 C 14,5 km/h (3 Bft) 94,74 %
29.09.2017 09:58 11,9 C 13,3 C 90 % 1024,4 hPa 0,0 l/m 10,4 km/h (2 Bft) O 79 2 min 0,000 mm 1,2 UV-I 367 W/m 10,3 C 9,5 C 12,9 km/h (3 Bft) 96,00 %
29.09.2017 10:00 11,9 C 13,3 C 90 % 1024,5 hPa 0,0 l/m 7,7 km/h (2 Bft) O-NO 74 2 min 0,152 mm 1,1 UV-I 291 W/m 10,3 C 11,0 C 12,9 km/h (3 Bft) 95,74 %
29.09.2017 10:02 11,9 C 13,3 C 90 % 1024,5 hPa 0,0 l/m 5,9 km/h (2 Bft) O-NO 67 2 min 0,000 mm 1,2 UV-I 288 W/m 10,3 C 11,9 C 8,0 km/h (2 Bft) 100,00 %
29.09.2017 10:04 12,0 C 13,3 C 90 % 1024,5 hPa 0,0 l/m 5,2 km/h (1 Bft) O 88 2 min 0,000 mm 1,2 UV-I 313 W/m 10,4 C 12,0 C 8,0 km/h (2 Bft) 97,87 %
29.09.2017 10:06 12,0 C 13,3 C 90 % 1024,5 hPa 0,0 l/m 5,3 km/h (1 Bft) O-SO 103 2 min 0,000 mm 1,2 UV-I 408 W/m 10,4 C 12,0 C 9,7 km/h (2 Bft) 97,87 %
29.09.2017 10:08 12,0 C 13,3 C 90 % 1024,4 hPa 0,0 l/m 6,6 km/h (2 Bft) O 83 2 min 0,000 mm 1,2 UV-I 413 W/m 10,4 C 11,9 C 9,7 km/h (2 Bft) 100,00 %
29.09.2017 10:10 12,1 C 13,3 C 90 % 1024,4 hPa 0,0 l/m 6,0 km/h (2 Bft) O-NO 67 2 min 0,000 mm 1,3 UV-I 433 W/m 10,5 C 12,1 C 8,0 km/h (2 Bft) 100,00 %
29.09.2017 10:12 12,2 C 13,3 C 91 % 1024,4 hPa 0,0 l/m 6,2 km/h (2 Bft) NO 48 2 min 0,000 mm 1,4 UV-I 504 W/m 10,8 C 12,2 C 8,0 km/h (2 Bft) 100,00 %
29.09.2017 10:14 12,3 C 13,3 C 90 % 1024,4 hPa 0,0 l/m 4,0 km/h (1 Bft) O-NO 65 2 min 0,000 mm 1,4 UV-I 476 W/m 10,7 C 12,3 C 8,0 km/h (2 Bft) 100,00 %
29.09.2017 10:16 12,4 C 13,3 C 90 % 1024,4 hPa 0,0 l/m 5,3 km/h (1 Bft) O-SO 107 2 min 0,000 mm 1,5 UV-I 456 W/m 10,8 C 12,4 C 9,7 km/h (2 Bft) 97,87 %
29.09.2017 10:18 12,4 C 13,3 C 89 % 1024,3 hPa 0,0 l/m 3,2 km/h (1 Bft) O-SO 120 2 min 0,000 mm 1,5 UV-I 474 W/m 10,6 C 12,4 C 6,4 km/h (2 Bft) 100,00 %
29.09.2017 10:20 12,5 C 13,3 C 89 % 1024,3 hPa 0,0 l/m 4,0 km/h (1 Bft) O-NO 75 2 min 0,000 mm 1,5 UV-I 481 W/m 10,7 C 12,5 C 6,4 km/h (2 Bft) 97,87 %
29.09.2017 10:22 12,7 C 13,3 C 89 % 1024,3 hPa 0,0 l/m 4,2 km/h (1 Bft) NO 50 2 min 0,000 mm 1,6 UV-I 473 W/m 10,9 C 12,7 C 8,0 km/h (2 Bft) 97,87 %
29.09.2017 10:24 12,7 C 13,3 C 89 % 1024,3 hPa 0,0 l/m 2,1 km/h (1 Bft) NO 50 2 min 0,000 mm 1,6 UV-I 489 W/m 10,9 C 12,7 C 4,8 km/h (1 Bft) 97,87 %
29.09.2017 10:26 12,8 C 13,3 C 89 % 1024,3 hPa 0,0 l/m 2,8 km/h (1 Bft) O-NO 67 2 min 0,000 mm 1,6 UV-I 487 W/m 11,0 C 12,8 C 6,4 km/h (2 Bft) 97,87 %
29.09.2017 10:28 12,9 C 13,3 C 88 % 1024,2 hPa 0,0 l/m 4,3 km/h (1 Bft) O-NO 64 2 min 0,000 mm 1,6 UV-I 489 W/m 11,0 C 12,9 C 6,4 km/h (2 Bft) 100,00 %
29.09.2017 10:30 13,1 C 13,3 C 88 % 1024,2 hPa 0,0 l/m 4,8 km/h (1 Bft) O-NO 73 2 min 0,000 mm 1,7 UV-I 483 W/m 11,2 C 13,1 C 8,0 km/h (2 Bft) 100,00 %
29.09.2017 10:32 13,2 C 13,3 C 88 % 1024,2 hPa 0,0 l/m 4,1 km/h (1 Bft) O-NO 70 2 min 0,000 mm 1,7 UV-I 487 W/m 11,3 C 13,2 C 4,8 km/h (1 Bft) 95,74 %
29.09.2017 10:34 13,1 C 13,3 C 86 % 1024,2 hPa 0,0 l/m 1,1 km/h (1 Bft) O-NO 70 2 min 0,000 mm 1,7 UV-I 531 W/m 10,8 C 13,1 C 3,2 km/h (1 Bft) 100,00 %
29.09.2017 10:36 13,1 C 13,3 C 87 % 1024,1 hPa 0,0 l/m 4,2 km/h (1 Bft) O-NO 62 2 min 0,000 mm 1,7 UV-I 521 W/m 11,0 C 13,1 C 8,0 km/h (2 Bft) 100,00 %
29.09.2017 10:38 13,2 C 13,3 C 88 % 1024,1 hPa 0,0 l/m 5,3 km/h (1 Bft) NO 53 2 min 0,000 mm 1,8 UV-I 510 W/m 11,3 C 13,2 C 8,0 km/h (2 Bft) 95,74 %
29.09.2017 10:40 13,3 C 13,3 C 88 % 1024,1 hPa 0,0 l/m 3,1 km/h (1 Bft) NO 43 2 min 0,000 mm 1,8 UV-I 533 W/m 11,4 C 13,3 C 6,4 km/h (2 Bft) 98,00 %
29.09.2017 10:42 13,3 C 13,3 C 88 % 1024,1 hPa 0,0 l/m 5,5 km/h (1 Bft) O 92 2 min 0,000 mm 1,8 UV-I 526 W/m 11,4 C 13,3 C 11,3 km/h (2 Bft) 100,00 %
29.09.2017 10:44 13,4 C 13,3 C 87 % 1024,1 hPa 0,0 l/m 3,2 km/h (1 Bft) O-NO 69 2 min 0,000 mm 1,9 UV-I 523 W/m 11,3 C 13,4 C 8,0 km/h (2 Bft) 100,00 %
29.09.2017 10:46 13,5 C 13,3 C 88 % 1024,1 hPa 0,0 l/m 3,6 km/h (1 Bft) O-NO 67 2 min 0,000 mm 1,9 UV-I 559 W/m 11,6 C 13,5 C 6,4 km/h (2 Bft) 100,00 %
29.09.2017 10:48 13,6 C 13,3 C 88 % 1024,1 hPa 0,0 l/m 2,7 km/h (1 Bft) NO 54 2 min 0,000 mm 1,8 UV-I 443 W/m 11,6 C 13,6 C 4,8 km/h (1 Bft) 98,00 %
29.09.2017 10:50 13,6 C 13,3 C 87 % 1024,1 hPa 0,0 l/m 5,3 km/h (1 Bft) NO 53 2 min 0,000 mm 1,9 UV-I 494 W/m 11,5 C 13,6 C 8,0 km/h (2 Bft) 100,00 %
29.09.2017 10:52 13,8 C 13,3 C 87 % 1024,1 hPa 0,0 l/m 3,9 km/h (1 Bft) O-NO 71 2 min 0,000 mm 1,9 UV-I 511 W/m 11,7 C 13,8 C 6,4 km/h (2 Bft) 100,00 %
29.09.2017 10:54 13,7 C 13,3 C 86 % 1024,1 hPa 0,0 l/m 3,3 km/h (1 Bft) O-NO 68 2 min 0,000 mm 2,0 UV-I 538 W/m 11,4 C 13,7 C 8,0 km/h (2 Bft) 100,00 %
29.09.2017 10:56 13,7 C 13,3 C 86 % 1024,0 hPa 0,0 l/m 0,9 km/h (0 Bft) O-NO 60 2 min 0,000 mm 2,0 UV-I 548 W/m 11,4 C 13,7 C 3,2 km/h (1 Bft) 97,87 %
29.09.2017 10:58 13,8 C 13,3 C 86 % 1024,0 hPa 0,0 l/m 4,0 km/h (1 Bft) O-NO 67 2 min 0,000 mm 2,0 UV-I 475 W/m 11,5 C 13,8 C 8,0 km/h (2 Bft) 100,00 %
29.09.2017 11:00 13,9 C 13,3 C 86 % 1024,0 hPa 0,0 l/m 5,1 km/h (1 Bft) O-NO 69 2 min 0,229 mm 2,0 UV-I 416 W/m 11,6 C 13,9 C 9,7 km/h (2 Bft) 100,00 %
29.09.2017 11:02 14,0 C 13,3 C 85 % 1023,9 hPa 0,0 l/m 2,7 km/h (1 Bft) NO 34 2 min 0,000 mm 2,1 UV-I 563 W/m 11,5 C 14,0 C 4,8 km/h (1 Bft) 97,87 %
29.09.2017 11:04 14,2 C 13,3 C 86 % 1023,9 hPa 0,0 l/m 5,4 km/h (1 Bft) O-NO 67 2 min 0,000 mm 2,1 UV-I 543 W/m 11,9 C 14,2 C 8,0 km/h (2 Bft) 100,00 %
29.09.2017 11:06 14,3 C 13,3 C 86 % 1023,9 hPa 0,0 l/m 1,8 km/h (1 Bft) O-NO 67 2 min 0,000 mm 2,1 UV-I 564 W/m 12,0 C 14,3 C 3,2 km/h (1 Bft) 100,00 %
29.09.2017 11:08 14,4 C 13,3 C 86 % 1024,0 hPa 0,0 l/m 3,0 km/h (1 Bft) O 92 2 min 0,000 mm 2,2 UV-I 521 W/m 12,1 C 14,4 C 9,7 km/h (2 Bft) 100,00 %
29.09.2017 11:10 14,6 C 13,3 C 85 % 1023,9 hPa 0,0 l/m 5,5 km/h (1 Bft) O 84 2 min 0,000 mm 2,2 UV-I 532 W/m 12,1 C 14,6 C 8,0 km/h (2 Bft) 100,00 %
29.09.2017 11:12 14,6 C 13,3 C 84 % 1023,9 hPa 0,0 l/m 3,7 km/h (1 Bft) O 93 2 min 0,000 mm 2,2 UV-I 583 W/m 11,9 C 14,6 C 9,7 km/h (2 Bft) 97,87 %
29.09.2017 11:14 14,6 C 13,3 C 83 % 1023,9 hPa 0,0 l/m 2,8 km/h (1 Bft) O-SO 108 2 min 0,000 mm 2,2 UV-I 581 W/m 11,7 C 14,6 C 4,8 km/h (1 Bft) 95,92 %
29.09.2017 11:16 14,6 C 13,3 C 84 % 1023,9 hPa 0,0 l/m 2,4 km/h (1 Bft) NO 34 2 min 0,000 mm 2,3 UV-I 588 W/m 11,9 C 14,6 C 6,4 km/h (2 Bft) 94,00 %
29.09.2017 11:18 14,8 C 13,3 C 85 % 1023,8 hPa 0,0 l/m 2,1 km/h (1 Bft) N 5 2 min 0,000 mm 2,3 UV-I 573 W/m 12,3 C 14,8 C 6,4 km/h (2 Bft) 93,62 %
29.09.2017 11:20 14,9 C 13,3 C 84 % 1023,8 hPa 0,0 l/m 2,2 km/h (1 Bft) N-NO 21 2 min 0,000 mm 2,4 UV-I 574 W/m 12,2 C 14,9 C 3,2 km/h (1 Bft) 97,37 %
29.09.2017 11:22 14,8 C 13,3 C 83 % 1023,8 hPa 0,0 l/m 2,4 km/h (1 Bft) N-NO 33 2 min 0,000 mm 2,4 UV-I 573 W/m 11,9 C 14,8 C 4,8 km/h (1 Bft) 97,87 %
29.09.2017 11:24 14,9 C 13,3 C 83 % 1023,8 hPa 0,0 l/m 2,7 km/h (1 Bft) O-NO 63 2 min 0,000 mm 2,5 UV-I 572 W/m 12,0 C 14,9 C 8,0 km/h (2 Bft) 91,67 %
29.09.2017 11:26 15,0 C 13,3 C 84 % 1023,8 hPa 0,0 l/m 6,3 km/h (2 Bft) O-NO 58 2 min 0,000 mm 2,5 UV-I 574 W/m 12,3 C 15,0 C 8,0 km/h (2 Bft) 95,74 %
29.09.2017 11:28 15,2 C 13,3 C 85 % 1023,7 hPa 0,0 l/m 4,1 km/h (1 Bft) N-NO 28 2 min 0,000 mm 2,5 UV-I 570 W/m 12,7 C 15,2 C 6,4 km/h (2 Bft) 97,87 %
29.09.2017 11:30 15,4 C 13,3 C 84 % 1023,7 hPa 0,0 l/m 3,8 km/h (1 Bft) NO 37 2 min 0,000 mm 2,5 UV-I 576 W/m 12,7 C 15,4 C 8,0 km/h (2 Bft) 97,87 %
29.09.2017 11:32 15,6 C 13,3 C 83 % 1023,7 hPa 0,0 l/m 4,7 km/h (1 Bft) N-NO 31 2 min 0,000 mm 2,5 UV-I 579 W/m 12,7 C 15,6 C 8,0 km/h (2 Bft) 95,74 %
29.09.2017 11:34 15,7 C 13,3 C 83 % 1023,7 hPa 0,0 l/m 4,2 km/h (1 Bft) O-NO 57 2 min 0,000 mm 2,5 UV-I 570 W/m 12,8 C 15,7 C 9,7 km/h (2 Bft) 97,87 %
29.09.2017 11:36 15,7 C 13,3 C 83 % 1023,7 hPa 0,0 l/m 4,5 km/h (1 Bft) N-NO 20 2 min 0,000 mm 2,5 UV-I 576 W/m 12,8 C 15,7 C 8,0 km/h (2 Bft) 97,87 %
29.09.2017 11:38 15,8 C 13,3 C 81 % 1023,7 hPa 0,0 l/m 6,5 km/h (2 Bft) NO 42 2 min 0,000 mm 2,5 UV-I 569 W/m 12,5 C 15,8 C 12,9 km/h (3 Bft) 97,87 %
29.09.2017 11:40 15,7 C 13,3 C 82 % 1023,6 hPa 0,0 l/m 4,8 km/h (1 Bft) NO 36 2 min 0,000 mm 2,5 UV-I 573 W/m 12,6 C 15,7 C 8,0 km/h (2 Bft) 100,00 %
29.09.2017 11:42 15,7 C 13,3 C 80 % 1023,6 hPa 0,0 l/m 3,1 km/h (1 Bft) NO 36 2 min 0,000 mm 2,6 UV-I 589 W/m 12,3 C 15,7 C 4,8 km/h (1 Bft) 98,11 %
29.09.2017 11:44 15,6 C 13,3 C 81 % 1023,6 hPa 0,0 l/m 3,7 km/h (1 Bft) NO 48 2 min 0,000 mm 2,6 UV-I 577 W/m 12,3 C 15,6 C 6,4 km/h (2 Bft) 100,00 %
29.09.2017 11:46 15,7 C 13,3 C 82 % 1023,6 hPa 0,0 l/m 5,3 km/h (1 Bft) N 5 2 min 0,000 mm 2,6 UV-I 586 W/m 12,6 C 15,7 C 11,3 km/h (2 Bft) 97,87 %
29.09.2017 11:48 15,7 C 13,3 C 81 % 1023,6 hPa 0,0 l/m 2,2 km/h (1 Bft) O-NO 76 2 min 0,000 mm 2,7 UV-I 594 W/m 12,4 C 15,7 C 6,4 km/h (2 Bft) 100,00 %
29.09.2017 11:50 15,7 C 13,3 C 80 % 1023,6 hPa 0,0 l/m 3,8 km/h (1 Bft) O-NO 77 2 min 0,000 mm 2,7 UV-I 592 W/m 12,3 C 15,7 C 8,0 km/h (2 Bft) 100,00 %
29.09.2017 11:52 15,7 C 13,3 C 80 % 1023,6 hPa 0,0 l/m 2,7 km/h (1 Bft) NO 55 2 min 0,000 mm 2,7 UV-I 589 W/m 12,3 C 15,7 C 6,4 km/h (2 Bft) 100,00 %
29.09.2017 11:54 15,7 C 13,3 C 80 % 1023,5 hPa 0,0 l/m 3,5 km/h (1 Bft) NO 53 2 min 0,000 mm 2,7 UV-I 583 W/m 12,3 C 15,7 C 6,4 km/h (2 Bft) 100,00 %
29.09.2017 11:56 15,8 C 13,3 C 80 % 1023,5 hPa 0,0 l/m 3,4 km/h (1 Bft) NO 45 2 min 0,000 mm 2,7 UV-I 580 W/m 12,4 C 15,8 C 4,8 km/h (1 Bft) 100,00 %
29.09.2017 11:58 15,9 C 13,3 C 80 % 1023,5 hPa 0,0 l/m 5,3 km/h (1 Bft) O-NO 78 2 min 0,000 mm 2,7 UV-I 594 W/m 12,5 C 15,9 C 8,0 km/h (2 Bft) 100,00 %
29.09.2017 12:00 16,1 C 13,3 C 80 % 1023,5 hPa 0,0 l/m 6,2 km/h (2 Bft) NO 49 2 min 0,304 mm 2,7 UV-I 593 W/m 12,6 C 16,1 C 11,3 km/h (2 Bft) 100,00 %
29.09.2017 12:02 16,2 C 13,3 C 80 % 1023,5 hPa 0,0 l/m 3,0 km/h (1 Bft) N-NO 30 2 min 0,000 mm 2,8 UV-I 598 W/m 12,7 C 16,2 C 6,4 km/h (2 Bft) 100,00 %
29.09.2017 12:04 16,3 C 13,3 C 80 % 1023,4 hPa 0,0 l/m 6,7 km/h (2 Bft) N-NO 23 2 min 0,000 mm 2,8 UV-I 605 W/m 12,8 C 16,2 C 11,3 km/h (2 Bft) 97,92 %
29.09.2017 12:06 16,3 C 13,3 C 78 % 1023,4 hPa 0,0 l/m 6,7 km/h (2 Bft) NO 51 2 min 0,000 mm 2,8 UV-I 606 W/m 12,5 C 16,2 C 8,0 km/h (2 Bft) 100,00 %
29.09.2017 12:08 16,3 C 13,3 C 80 % 1023,4 hPa 0,0 l/m 3,5 km/h (1 Bft) O-NO 57 2 min 0,000 mm 2,8 UV-I 610 W/m 12,8 C 16,3 C 6,4 km/h (2 Bft) 100,00 %
29.09.2017 12:10 16,3 C 13,3 C 79 % 1023,4 hPa 0,0 l/m 4,2 km/h (1 Bft) NO 46 2 min 0,000 mm 2,9 UV-I 611 W/m 12,6 C 16,3 C 6,4 km/h (2 Bft) 100,00 %
29.09.2017 12:12 16,2 C 13,3 C 78 % 1023,4 hPa 0,0 l/m 1,3 km/h (1 Bft) NO 46 2 min 0,000 mm 2,9 UV-I 614 W/m 12,4 C 16,2 C 3,2 km/h (1 Bft) 95,74 %
29.09.2017 12:14 16,2 C 13,3 C 78 % 1023,3 hPa 0,0 l/m 2,4 km/h (1 Bft) NO 50 2 min 0,000 mm 2,9 UV-I 612 W/m 12,4 C 16,2 C 6,4 km/h (2 Bft) 98,00 %
29.09.2017 12:16 16,2 C 13,3 C 77 % 1023,3 hPa 0,0 l/m 3,7 km/h (1 Bft) O-NO 61 2 min 0,000 mm 2,9 UV-I 612 W/m 12,2 C 16,2 C 6,4 km/h (2 Bft) 100,00 %
29.09.2017 12:18 16,3 C 13,3 C 78 % 1023,3 hPa 0,0 l/m 5,1 km/h (1 Bft) O 92 2 min 0,000 mm 2,9 UV-I 614 W/m 12,5 C 16,3 C 9,7 km/h (2 Bft) 100,00 %
29.09.2017 12:20 16,3 C 13,3 C 77 % 1023,3 hPa 0,0 l/m 4,5 km/h (1 Bft) NO 36 2 min 0,000 mm 2,9 UV-I 614 W/m 12,3 C 16,3 C 6,4 km/h (2 Bft) 100,00 %
29.09.2017 12:22 16,4 C 13,3 C 80 % 1023,3 hPa 0,0 l/m 5,7 km/h (1 Bft) N 5 2 min 0,000 mm 2,9 UV-I 616 W/m 12,9 C 16,4 C 11,3 km/h (2 Bft) 100,00 %
29.09.2017 12:24 16,3 C 13,3 C 79 % 1023,2 hPa 0,0 l/m 4,1 km/h (1 Bft) NO 51 2 min 0,000 mm 2,9 UV-I 613 W/m 12,6 C 16,3 C 9,7 km/h (2 Bft) 100,00 %
29.09.2017 12:26 16,4 C 13,3 C 78 % 1023,2 hPa 0,0 l/m 5,3 km/h (1 Bft) NO 56 2 min 0,000 mm 3,0 UV-I 619 W/m 12,6 C 16,4 C 9,7 km/h (2 Bft) 100,00 %
29.09.2017 12:28 16,4 C 13,3 C 77 % 1023,2 hPa 0,0 l/m 3,6 km/h (1 Bft) O 94 2 min 0,000 mm 3,0 UV-I 619 W/m 12,4 C 16,4 C 8,0 km/h (2 Bft) 93,62 %
29.09.2017 12:30 16,4 C 13,3 C 78 % 1023,2 hPa 0,0 l/m 3,6 km/h (1 Bft) NO 42 2 min 0,000 mm 3,0 UV-I 617 W/m 12,6 C 16,4 C 6,4 km/h (2 Bft) 96,00 %
29.09.2017 12:32 16,7 C 13,3 C 78 % 1023,2 hPa 0,0 l/m 5,1 km/h (1 Bft) NO 46 2 min 0,000 mm 3,0 UV-I 615 W/m 12,8 C 16,7 C 8,0 km/h (2 Bft) 100,00 %
29.09.2017 12:34 16,8 C 13,3 C 78 % 1023,2 hPa 0,0 l/m 5,9 km/h (2 Bft) O-NO 58 2 min 0,000 mm 3,0 UV-I 617 W/m 12,9 C 16,8 C 8,0 km/h (2 Bft) 97,14 %
29.09.2017 12:36 16,8 C 13,3 C 77 % 1023,2 hPa 0,0 l/m 4,6 km/h (1 Bft) O-SO 118 2 min 0,000 mm 3,0 UV-I 618 W/m 12,7 C 16,8 C 8,0 km/h (2 Bft) 100,00 %
29.09.2017 12:38 16,8 C 13,3 C 77 % 1023,1 hPa 0,0 l/m 5,5 km/h (1 Bft) NO 51 2 min 0,000 mm 3,0 UV-I 617 W/m 12,7 C 16,8 C 8,0 km/h (2 Bft) 96,00 %
29.09.2017 12:40 16,9 C 13,3 C 78 % 1023,1 hPa 0,0 l/m 1,6 km/h (1 Bft) NO 51 2 min 0,000 mm 3,0 UV-I 619 W/m 13,0 C 16,9 C 3,2 km/h (1 Bft) 100,00 %
29.09.2017 12:42 16,9 C 13,3 C 77 % 1023,1 hPa 0,0 l/m 2,5 km/h (1 Bft) NO 51 2 min 0,000 mm 3,0 UV-I 620 W/m 12,8 C 16,9 C 4,8 km/h (1 Bft) 100,00 %
29.09.2017 12:44 17,0 C 13,3 C 78 % 1023,1 hPa 0,0 l/m 1,6 km/h (1 Bft) NO 46 2 min 0,000 mm 3,0 UV-I 618 W/m 13,1 C 17,0 C 4,8 km/h (1 Bft) 100,00 %
29.09.2017 12:46 17,1 C 13,3 C 77 % 1023,1 hPa 0,0 l/m 1,5 km/h (1 Bft) N 5 2 min 0,000 mm 3,0 UV-I 620 W/m 13,0 C 17,1 C 4,8 km/h (1 Bft) 100,00 %
29.09.2017 12:48 17,3 C 13,3 C 79 % 1023,0 hPa 0,0 l/m 5,3 km/h (1 Bft) O-NO 65 2 min 0,000 mm 3,0 UV-I 619 W/m 13,6 C 17,3 C 8,0 km/h (2 Bft) 100,00 %
29.09.2017 12:50 17,4 C 13,3 C 75 % 1023,0 hPa 0,0 l/m 4,5 km/h (1 Bft) O-NO 63 2 min 0,000 mm 3,0 UV-I 622 W/m 12,9 C 17,4 C 8,0 km/h (2 Bft) 100,00 %
29.09.2017 12:52 17,6 C 13,3 C 76 % 1023,1 hPa 0,0 l/m 5,0 km/h (1 Bft) O-NO 62 2 min 0,000 mm 3,0 UV-I 622 W/m 13,3 C 17,6 C 8,0 km/h (2 Bft) 97,87 %
29.09.2017 12:54 17,5 C 13,3 C 74 % 1023,0 hPa 0,0 l/m 5,9 km/h (2 Bft) O-SO 102 2 min 0,000 mm 3,0 UV-I 623 W/m 12,8 C 17,5 C 9,7 km/h (2 Bft) 100,00 %
29.09.2017 12:56 17,6 C 13,3 C 74 % 1023,0 hPa 0,0 l/m 7,8 km/h (2 Bft) O-SO 111 2 min 0,000 mm 3,0 UV-I 624 W/m 12,9 C 16,9 C 11,3 km/h (2 Bft) 96,00 %
29.09.2017 12:58 17,3 C 13,3 C 73 % 1022,9 hPa 0,0 l/m 1,5 km/h (1 Bft) O-SO 111 2 min 0,000 mm 3,0 UV-I 624 W/m 12,4 C 17,3 C 4,8 km/h (1 Bft) 97,87 %
29.09.2017 13:00 17,2 C 13,3 C 75 % 1022,9 hPa 0,0 l/m 1,3 km/h (1 Bft) O-NO 74 2 min 0,000 mm 3,0 UV-I 621 W/m 12,7 C 17,2 C 4,8 km/h (1 Bft) 97,14 %
29.09.2017 13:02 17,3 C 13,3 C 78 % 1022,9 hPa 0,0 l/m 5,4 km/h (1 Bft) NO 42 2 min 0,331 mm 3,0 UV-I 618 W/m 13,4 C 17,3 C 11,3 km/h (2 Bft) 95,74 %
29.09.2017 13:04 17,4 C 13,3 C 76 % 1022,9 hPa 0,0 l/m 6,2 km/h (2 Bft) NO 34 2 min 0,000 mm 3,0 UV-I 619 W/m 13,1 C 17,4 C 8,0 km/h (2 Bft) 95,74 %
29.09.2017 13:06 17,6 C 13,3 C 77 % 1022,9 hPa 0,0 l/m 5,2 km/h (1 Bft) N 10 2 min 0,000 mm 3,0 UV-I 620 W/m 13,5 C 17,6 C 11,3 km/h (2 Bft) 97,87 %
29.09.2017 13:08 17,6 C 13,3 C 75 % 1022,8 hPa 0,0 l/m 3,2 km/h (1 Bft) N-NW 329 2 min 0,000 mm 3,0 UV-I 623 W/m 13,1 C 17,6 C 6,4 km/h (2 Bft) 97,87 %
29.09.2017 13:10 17,5 C 13,3 C 73 % 1022,8 hPa 0,0 l/m 2,9 km/h (1 Bft) O-NO 59 2 min 0,000 mm 3,0 UV-I 618 W/m 12,6 C 17,5 C 6,4 km/h (2 Bft) 95,74 %
29.09.2017 13:12 17,6 C 13,3 C 74 % 1022,8 hPa 0,0 l/m 4,7 km/h (1 Bft) NO 52 2 min 0,000 mm 3,0 UV-I 619 W/m 12,9 C 17,6 C 8,0 km/h (2 Bft) 98,00 %
29.09.2017 13:14 17,7 C 13,3 C 74 % 1022,8 hPa 0,0 l/m 5,9 km/h (2 Bft) O-NO 59 2 min 0,000 mm 3,0 UV-I 617 W/m 13,0 C 17,7 C 9,7 km/h (2 Bft) 95,74 %
29.09.2017 13:16 17,7 C 13,3 C 75 % 1022,8 hPa 0,0 l/m 4,3 km/h (1 Bft) NO 52 2 min 0,000 mm 3,0 UV-I 615 W/m 13,2 C 17,7 C 8,0 km/h (2 Bft) 94,00 %
29.09.2017 13:18 17,7 C 13,3 C 74 % 1022,8 hPa 0,0 l/m 5,1 km/h (1 Bft) O-NO 61 2 min 0,000 mm 3,0 UV-I 615 W/m 13,0 C 17,7 C 8,0 km/h (2 Bft) 97,87 %
29.09.2017 13:20 17,7 C 13,3 C 74 % 1022,8 hPa 0,0 l/m 7,3 km/h (2 Bft) NO 46 2 min 0,000 mm 3,0 UV-I 612 W/m 13,0 C 17,3 C 11,3 km/h (2 Bft) 98,00 %
29.09.2017 13:22 17,8 C 13,3 C 76 % 1022,8 hPa 0,0 l/m 2,1 km/h (1 Bft) NO 36 2 min 0,000 mm 3,0 UV-I 612 W/m 13,5 C 17,8 C 8,0 km/h (2 Bft) 97,87 %
29.09.2017 13:24 17,9 C 13,3 C 75 % 1022,8 hPa 0,0 l/m 3,9 km/h (1 Bft) O-NO 63 2 min 0,000 mm 3,0 UV-I 613 W/m 13,4 C 17,9 C 8,0 km/h (2 Bft) 97,87 %
29.09.2017 13:26 17,9 C 13,3 C 73 % 1022,8 hPa 0,0 l/m 4,1 km/h (1 Bft) O-NO 72 2 min 0,000 mm 3,0 UV-I 613 W/m 13,0 C 17,9 C 8,0 km/h (2 Bft) 93,75 %
29.09.2017 13:28 18,0 C 13,3 C 75 % 1022,7 hPa 0,0 l/m 4,2 km/h (1 Bft) W-NW 297 2 min 0,000 mm 3,0 UV-I 610 W/m 13,5 C 18,0 C 12,9 km/h (3 Bft) 100,00 %
29.09.2017 13:30 18,1 C 13,3 C 74 % 1022,7 hPa 0,0 l/m 5,4 km/h (1 Bft) NO 52 2 min 0,000 mm 2,9 UV-I 606 W/m 13,4 C 18,1 C 12,9 km/h (3 Bft) 100,00 %
29.09.2017 13:32 18,2 C 13,3 C 75 % 1022,7 hPa 0,0 l/m 5,7 km/h (1 Bft) O-NO 58 2 min 0,000 mm 2,9 UV-I 604 W/m 13,7 C 18,2 C 12,9 km/h (3 Bft) 98,00 %
29.09.2017 13:34 18,3 C 13,3 C 75 % 1022,7 hPa 0,0 l/m 5,1 km/h (1 Bft) NO 41 2 min 0,000 mm 2,9 UV-I 606 W/m 13,8 C 18,3 C 9,7 km/h (2 Bft) 100,00 %
29.09.2017 13:36 18,2 C 13,3 C 72 % 1022,7 hPa 0,0 l/m 4,5 km/h (1 Bft) N-NO 26 2 min 0,000 mm 2,9 UV-I 606 W/m 13,1 C 18,2 C 6,4 km/h (2 Bft) 100,00 %
29.09.2017 13:38 18,1 C 13,3 C 72 % 1022,7 hPa 0,0 l/m 1,6 km/h (1 Bft) W-NW 284 2 min 0,000 mm 2,9 UV-I 604 W/m 13,0 C 18,1 C 4,8 km/h (1 Bft) 100,00 %
29.09.2017 13:40 18,1 C 13,3 C 73 % 1022,7 hPa 0,0 l/m 9,4 km/h (2 Bft) N-NW 334 2 min 0,000 mm 2,9 UV-I 605 W/m 13,2 C 16,8 C 16,1 km/h (3 Bft) 98,00 %
29.09.2017 13:42 18,0 C 13,3 C 74 % 1022,7 hPa 0,0 l/m 2,3 km/h (1 Bft) N-NO 33 2 min 0,000 mm 2,9 UV-I 600 W/m 13,3 C 18,0 C 8,0 km/h (2 Bft) 100,00 %
29.09.2017 13:44 18,0 C 13,3 C 74 % 1022,7 hPa 0,0 l/m 6,2 km/h (2 Bft) NO 49 2 min 0,000 mm 2,9 UV-I 597 W/m 13,3 C 18,0 C 8,0 km/h (2 Bft) 98,00 %
29.09.2017 13:46 18,1 C 13,3 C 74 % 1022,7 hPa 0,0 l/m 8,3 km/h (2 Bft) NO 55 2 min 0,000 mm 2,8 UV-I 598 W/m 13,4 C 17,2 C 16,1 km/h (3 Bft) 97,87 %
29.09.2017 13:48 18,2 C 13,3 C 74 % 1022,7 hPa 0,0 l/m 4,2 km/h (1 Bft) N-NO 17 2 min 0,000 mm 2,8 UV-I 596 W/m 13,5 C 18,2 C 6,4 km/h (2 Bft) 100,00 %
29.09.2017 13:50 18,3 C 13,3 C 75 % 1022,6 hPa 0,0 l/m 5,0 km/h (1 Bft) O-NO 76 2 min 0,000 mm 2,8 UV-I 594 W/m 13,8 C 18,3 C 8,0 km/h (2 Bft) 100,00 %
29.09.2017 13:52 18,4 C 13,3 C 73 % 1022,6 hPa 0,0 l/m 4,2 km/h (1 Bft) O-SO 122 2 min 0,000 mm 2,8 UV-I 594 W/m 13,5 C 18,4 C 6,4 km/h (2 Bft) 100,00 %
29.09.2017 13:54 18,4 C 13,3 C 73 % 1022,5 hPa 0,0 l/m 3,6 km/h (1 Bft) NO 47 2 min 0,000 mm 2,8 UV-I 590 W/m 13,5 C 18,4 C 6,4 km/h (2 Bft) 100,00 %
29.09.2017 13:56 18,6 C 13,3 C 75 % 1022,5 hPa 0,0 l/m 5,7 km/h (1 Bft) NO 37 2 min 0,000 mm 2,8 UV-I 589 W/m 14,1 C 18,6 C 9,7 km/h (2 Bft) 100,00 %
29.09.2017 13:58 18,6 C 13,3 C 75 % 1022,5 hPa 0,0 l/m 5,5 km/h (1 Bft) N 10 2 min 0,000 mm 2,7 UV-I 585 W/m 14,1 C 18,6 C 9,7 km/h (2 Bft) 97,87 %
29.09.2017 14:00 18,7 C 13,3 C 74 % 1022,5 hPa 0,0 l/m 6,7 km/h (2 Bft) N-NO 21 2 min 0,355 mm 2,7 UV-I 588 W/m 14,0 C 18,6 C 12,9 km/h (3 Bft) 100,00 %
29.09.2017 14:02 18,7 C 13,3 C 75 % 1022,5 hPa 0,0 l/m 3,9 km/h (1 Bft) N 11 2 min 0,000 mm 2,7 UV-I 585 W/m 14,2 C 18,7 C 8,0 km/h (2 Bft) 97,87 %
29.09.2017 14:04 18,7 C 13,3 C 72 % 1022,4 hPa 0,0 l/m 4,8 km/h (1 Bft) N-NO 30 2 min 0,000 mm 2,7 UV-I 583 W/m 13,5 C 18,7 C 9,7 km/h (2 Bft) 95,83 %
29.09.2017 14:06 18,7 C 13,3 C 72 % 1022,4 hPa 0,0 l/m 7,5 km/h (2 Bft) NO 37 2 min 0,000 mm 2,7 UV-I 581 W/m 13,5 C 18,2 C 11,3 km/h (2 Bft) 100,00 %
29.09.2017 14:08 18,7 C 13,3 C 72 % 1022,4 hPa 0,0 l/m 6,6 km/h (2 Bft) O 96 2 min 0,000 mm 2,7 UV-I 579 W/m 13,5 C 18,6 C 12,9 km/h (3 Bft) 100,00 %
29.09.2017 14:10 18,7 C 13,3 C 71 % 1022,4 hPa 0,0 l/m 7,9 km/h (2 Bft) O-SO 109 2 min 0,000 mm 2,6 UV-I 578 W/m 13,3 C 18,0 C 12,9 km/h (3 Bft) 100,00 %
29.09.2017 14:12 18,8 C 13,3 C 73 % 1022,4 hPa 0,0 l/m 6,6 km/h (2 Bft) O-SO 119 2 min 0,000 mm 2,6 UV-I 578 W/m 13,9 C 18,7 C 9,7 km/h (2 Bft) 100,00 %
29.09.2017 14:14 18,9 C 13,3 C 71 % 1022,3 hPa 0,0 l/m 7,2 km/h (2 Bft) O-NO 69 2 min 0,000 mm 2,6 UV-I 577 W/m 13,5 C 18,5 C 14,5 km/h (3 Bft) 100,00 %
29.09.2017 14:16 18,9 C 13,3 C 70 % 1022,3 hPa 0,0 l/m 8,5 km/h (2 Bft) O-NO 58 2 min 0,000 mm 2,6 UV-I 573 W/m 13,3 C 18,0 C 14,5 km/h (3 Bft) 100,00 %
29.09.2017 14:18 18,9 C 13,3 C 70 % 1022,3 hPa 0,0 l/m 8,1 km/h (2 Bft) O-NO 70 2 min 0,000 mm 2,6 UV-I 572 W/m 13,3 C 18,2 C 12,9 km/h (3 Bft) 98,00 %
29.09.2017 14:20 18,9 C 13,3 C 72 % 1022,2 hPa 0,0 l/m 6,6 km/h (2 Bft) O-NO 72 2 min 0,000 mm 2,5 UV-I 569 W/m 13,7 C 18,8 C 12,9 km/h (3 Bft) 100,00 %
29.09.2017 14:22 18,9 C 13,3 C 69 % 1022,2 hPa 0,0 l/m 7,3 km/h (2 Bft) NO 48 2 min 0,000 mm 2,5 UV-I 569 W/m 13,1 C 18,5 C 12,9 km/h (3 Bft) 95,74 %
29.09.2017 14:24 18,9 C 13,3 C 71 % 1022,2 hPa 0,0 l/m 8,6 km/h (2 Bft) NO 54 2 min 0,000 mm 2,5 UV-I 567 W/m 13,5 C 18,0 C 14,5 km/h (3 Bft) 100,00 %
29.09.2017 14:26 19,0 C 13,3 C 71 % 1022,2 hPa 0,0 l/m 8,2 km/h (2 Bft) O-NO 76 2 min 0,000 mm 2,5 UV-I 569 W/m 13,6 C 18,2 C 14,5 km/h (3 Bft) 98,00 %
29.09.2017 14:28 19,1 C 13,3 C 70 % 1022,2 hPa 0,0 l/m 6,5 km/h (2 Bft) O-NO 60 2 min 0,000 mm 2,4 UV-I 567 W/m 13,5 C 19,1 C 11,3 km/h (2 Bft) 97,87 %
29.09.2017 14:30 19,1 C 13,3 C 71 % 1022,1 hPa 0,0 l/m 10,4 km/h (2 Bft) SO 130 2 min 0,000 mm 2,4 UV-I 560 W/m 13,7 C 17,5 C 14,5 km/h (3 Bft) 100,00 %
29.09.2017 14:32 19,1 C 13,3 C 71 % 1022,1 hPa 0,0 l/m 6,5 km/h (2 Bft) O 80 2 min 0,000 mm 2,3 UV-I 502 W/m 13,7 C 19,1 C 9,7 km/h (2 Bft) 97,37 %
29.09.2017 14:34 19,2 C 13,3 C 72 % 1022,0 hPa 0,0 l/m 8,2 km/h (2 Bft) NO 38 2 min 0,000 mm 2,3 UV-I 549 W/m 14,0 C 18,4 C 12,9 km/h (3 Bft) 100,00 %
29.09.2017 14:36 19,1 C 13,3 C 71 % 1022,1 hPa 0,0 l/m 7,8 km/h (2 Bft) N-NO 19 2 min 0,000 mm 2,3 UV-I 551 W/m 13,7 C 18,5 C 14,5 km/h (3 Bft) 100,00 %
29.09.2017 14:38 19,1 C 13,3 C 72 % 1022,1 hPa 0,0 l/m 9,5 km/h (2 Bft) O-NO 69 2 min 0,000 mm 2,3 UV-I 549 W/m 13,9 C 17,8 C 17,7 km/h (3 Bft) 100,00 %
29.09.2017 14:40 19,2 C 13,3 C 70 % 1022,0 hPa 0,0 l/m 7,7 km/h (2 Bft) O 86 2 min 0,000 mm 2,3 UV-I 542 W/m 13,6 C 18,6 C 16,1 km/h (3 Bft) 100,00 %
29.09.2017 14:42 19,2 C 13,3 C 70 % 1022,0 hPa 0,0 l/m 7,3 km/h (2 Bft) N-NO 30 2 min 0,000 mm 2,3 UV-I 541 W/m 13,6 C 18,8 C 12,9 km/h (3 Bft) 100,00 %
29.09.2017 14:44 19,1 C 13,3 C 71 % 1022,1 hPa 0,0 l/m 2,2 km/h (1 Bft) N-NO 22 2 min 0,000 mm 2,2 UV-I 536 W/m 13,7 C 19,1 C 6,4 km/h (2 Bft) 100,00 %
29.09.2017 14:46 19,2 C 13,3 C 71 % 1022,0 hPa 0,0 l/m 6,3 km/h (2 Bft) O-NO 71 2 min 0,000 mm 2,2 UV-I 534 W/m 13,8 C 19,2 C 12,9 km/h (3 Bft) 93,62 %
29.09.2017 14:48 19,2 C 13,3 C 69 % 1022,0 hPa 0,0 l/m 9,2 km/h (2 Bft) O-SO 112 2 min 0,000 mm 2,2 UV-I 532 W/m 13,4 C 18,0 C 14,5 km/h (3 Bft) 97,96 %
29.09.2017 14:50 19,2 C 13,3 C 69 % 1022,0 hPa 0,0 l/m 4,1 km/h (1 Bft) O-SO 115 2 min 0,000 mm 2,2 UV-I 501 W/m 13,4 C 19,2 C 6,4 km/h (2 Bft) 95,74 %
29.09.2017 14:52 19,2 C 13,3 C 70 % 1022,1 hPa 0,0 l/m 5,8 km/h (2 Bft) NO 56 2 min 0,000 mm 2,2 UV-I 527 W/m 13,6 C 19,2 C 14,5 km/h (3 Bft) 97,87 %
29.09.2017 14:54 19,2 C 13,3 C 72 % 1022,0 hPa 0,0 l/m 7,5 km/h (2 Bft) NO 39 2 min 0,000 mm 2,1 UV-I 523 W/m 14,0 C 18,7 C 11,3 km/h (2 Bft) 97,87 %
29.09.2017 14:56 19,2 C 13,3 C 71 % 1022,0 hPa 0,0 l/m 6,9 km/h (2 Bft) NO 36 2 min 0,000 mm 2,1 UV-I 515 W/m 13,8 C 19,0 C 14,5 km/h (3 Bft) 94,29 %
29.09.2017 14:58 19,3 C 13,3 C 71 % 1022,0 hPa 0,0 l/m 8,2 km/h (2 Bft) O-NO 59 2 min 0,000 mm 2,1 UV-I 512 W/m 13,9 C 18,5 C 12,9 km/h (3 Bft) 97,96 %
29.09.2017 15:00 19,4 C 13,3 C 70 % 1022,0 hPa 0,0 l/m 8,7 km/h (2 Bft) NO 42 2 min 0,330 mm 2,0 UV-I 506 W/m 13,8 C 18,4 C 12,9 km/h (3 Bft) 93,62 %
29.09.2017 15:02 19,3 C 13,3 C 71 % 1022,0 hPa 0,0 l/m 5,2 km/h (1 Bft) N-NO 22 2 min 0,000 mm 2,0 UV-I 501 W/m 13,9 C 19,3 C 8,0 km/h (2 Bft) 95,74 %
29.09.2017 15:04 19,3 C 13,3 C 70 % 1021,9 hPa 0,0 l/m 6,1 km/h (2 Bft) N-NO 22 2 min 0,000 mm 1,9 UV-I 492 W/m 13,7 C 19,3 C 9,7 km/h (2 Bft) 98,00 %
29.09.2017 15:06 19,3 C 13,3 C 71 % 1021,9 hPa 0,0 l/m 7,0 km/h (2 Bft) NO 35 2 min 0,000 mm 1,9 UV-I 492 W/m 13,9 C 19,0 C 11,3 km/h (2 Bft) 95,74 %
29.09.2017 15:08 19,2 C 13,3 C 70 % 1021,9 hPa 0,0 l/m 7,6 km/h (2 Bft) O-NO 74 2 min 0,000 mm 1,9 UV-I 491 W/m 13,6 C 18,7 C 12,9 km/h (3 Bft) 97,50 %
29.09.2017 15:10 19,3 C 13,3 C 69 % 1021,9 hPa 0,0 l/m 8,0 km/h (2 Bft) O 93 2 min 0,000 mm 1,9 UV-I 489 W/m 13,5 C 18,6 C 12,9 km/h (3 Bft) 98,00 %
29.09.2017 15:12 19,3 C 13,3 C 69 % 1021,8 hPa 0,0 l/m 5,3 km/h (1 Bft) SO 124 2 min 0,000 mm 1,9 UV-I 484 W/m 13,5 C 19,3 C 9,7 km/h (2 Bft) 95,74 %
29.09.2017 15:14 19,4 C 13,3 C 68 % 1021,9 hPa 0,0 l/m 5,7 km/h (1 Bft) O 90 2 min 0,000 mm 1,8 UV-I 481 W/m 13,3 C 19,4 C 12,9 km/h (3 Bft) 97,87 %
29.09.2017 15:16 19,4 C 13,3 C 70 % 1021,8 hPa 0,0 l/m 8,9 km/h (2 Bft) O-NO 69 2 min 0,000 mm 1,8 UV-I 477 W/m 13,8 C 18,4 C 14,5 km/h (3 Bft) 97,87 %
29.09.2017 15:18 19,6 C 13,3 C 68 % 1021,8 hPa 0,0 l/m 6,7 km/h (2 Bft) O-NO 76 2 min 0,000 mm 1,8 UV-I 474 W/m 13,5 C 19,5 C 9,7 km/h (2 Bft) 96,15 %
29.09.2017 15:20 19,6 C 13,3 C 68 % 1021,8 hPa 0,0 l/m 5,3 km/h (1 Bft) NO 55 2 min 0,000 mm 1,8 UV-I 470 W/m 13,5 C 19,6 C 9,7 km/h (2 Bft) 100,00 %
29.09.2017 15:22 19,6 C 13,3 C 68 % 1021,8 hPa 0,0 l/m 9,2 km/h (2 Bft) O-NO 61 2 min 0,000 mm 1,7 UV-I 464 W/m 13,5 C 18,5 C 12,9 km/h (3 Bft) 100,00 %
29.09.2017 15:24 19,7 C 13,9 C 69 % 1021,8 hPa 0,0 l/m 7,8 km/h (2 Bft) O-NO 62 2 min 0,000 mm 1,7 UV-I 460 W/m 13,8 C 19,1 C 11,3 km/h (2 Bft) 95,74 %
29.09.2017 15:26 19,7 C 13,9 C 66 % 1021,8 hPa 0,0 l/m 9,1 km/h (2 Bft) O-NO 72 2 min 0,000 mm 1,7 UV-I 455 W/m 13,2 C 18,6 C 14,5 km/h (3 Bft) 100,00 %
29.09.2017 15:28 19,7 C 13,9 C 67 % 1021,8 hPa 0,0 l/m 7,5 km/h (2 Bft) O-NO 72 2 min 0,000 mm 1,6 UV-I 450 W/m 13,4 C 19,2 C 12,9 km/h (3 Bft) 100,00 %
29.09.2017 15:30 19,7 C 13,9 C 67 % 1021,8 hPa 0,0 l/m 5,7 km/h (1 Bft) NO 46 2 min 0,000 mm 1,6 UV-I 440 W/m 13,4 C 19,7 C 8,0 km/h (2 Bft) 100,00 %
29.09.2017 15:32 19,6 C 13,9 C 67 % 1021,8 hPa 0,0 l/m 7,2 km/h (2 Bft) NO 54 2 min 0,000 mm 1,6 UV-I 435 W/m 13,3 C 19,3 C 14,5 km/h (3 Bft) 97,87 %
29.09.2017 15:34 19,6 C 13,9 C 68 % 1021,7 hPa 0,0 l/m 4,9 km/h (1 Bft) NO 35 2 min 0,000 mm 1,5 UV-I 436 W/m 13,5 C 19,6 C 9,7 km/h (2 Bft) 100,00 %
29.09.2017 15:36 19,6 C 13,9 C 68 % 1021,7 hPa 0,0 l/m 7,4 km/h (2 Bft) NO 38 2 min 0,000 mm 1,5 UV-I 432 W/m 13,5 C 19,2 C 12,9 km/h (3 Bft) 97,14 %
29.09.2017 15:38 19,6 C 13,9 C 69 % 1021,7 hPa 0,0 l/m 4,7 km/h (1 Bft) N-NO 22 2 min 0,000 mm 1,5 UV-I 425 W/m 13,8 C 19,6 C 8,0 km/h (2 Bft) 100,00 %
29.09.2017 15:40 19,6 C 13,9 C 69 % 1021,7 hPa 0,0 l/m 8,8 km/h (2 Bft) NO 44 2 min 0,000 mm 1,5 UV-I 421 W/m 13,8 C 18,6 C 17,7 km/h (3 Bft) 97,87 %
29.09.2017 15:42 19,6 C 13,9 C 68 % 1021,7 hPa 0,0 l/m 9,7 km/h (2 Bft) NO 54 2 min 0,000 mm 1,4 UV-I 415 W/m 13,5 C 18,3 C 14,5 km/h (3 Bft) 100,00 %
29.09.2017 15:44 19,6 C 13,9 C 66 % 1021,7 hPa 0,0 l/m 8,4 km/h (2 Bft) O-NO 75 2 min 0,000 mm 1,4 UV-I 408 W/m 13,1 C 18,8 C 12,9 km/h (3 Bft) 100,00 %
29.09.2017 15:46 19,6 C 13,9 C 66 % 1021,6 hPa 0,0 l/m 9,7 km/h (2 Bft) O-NO 69 2 min 0,000 mm 1,4 UV-I 410 W/m 13,1 C 18,3 C 16,1 km/h (3 Bft) 98,00 %
29.09.2017 15:48 19,6 C 13,9 C 66 % 1021,6 hPa 0,0 l/m 6,6 km/h (2 Bft) NO 42 2 min 0,000 mm 1,3 UV-I 408 W/m 13,1 C 19,5 C 11,3 km/h (2 Bft) 100,00 %
29.09.2017 15:50 19,7 C 13,9 C 67 % 1021,6 hPa 0,0 l/m 8,0 km/h (2 Bft) NO 45 2 min 0,000 mm 1,3 UV-I 406 W/m 13,4 C 19,0 C 14,5 km/h (3 Bft) 94,74 %
29.09.2017 15:52 19,7 C 13,9 C 66 % 1021,5 hPa 0,0 l/m 5,3 km/h (1 Bft) O 81 2 min 0,000 mm 1,3 UV-I 401 W/m 13,2 C 19,7 C 8,0 km/h (2 Bft) 98,94 %
29.09.2017 15:54 19,7 C 13,9 C 67 % 1021,5 hPa 0,0 l/m 5,7 km/h (1 Bft) NO 53 2 min 0,000 mm 1,3 UV-I 399 W/m 13,4 C 19,7 C 14,5 km/h (3 Bft) 100,00 %
29.09.2017 15:56 19,8 C 13,9 C 66 % 1021,4 hPa 0,0 l/m 11,4 km/h (2 Bft) O-NO 63 2 min 0,000 mm 1,3 UV-I 397 W/m 13,3 C 18,0 C 17,7 km/h (3 Bft) 97,87 %
29.09.2017 15:58 19,8 C 13,9 C 66 % 1021,4 hPa 0,0 l/m 7,9 km/h (2 Bft) NO 48 2 min 0,000 mm 1,2 UV-I 395 W/m 13,3 C 19,2 C 12,9 km/h (3 Bft) 100,00 %
29.09.2017 16:00 19,8 C 13,9 C 67 % 1021,4 hPa 0,0 l/m 10,6 km/h (2 Bft) O-NO 75 2 min 0,280 mm 1,2 UV-I 394 W/m 13,5 C 18,2 C 16,1 km/h (3 Bft) 97,87 %
29.09.2017 16:02 19,8 C 13,9 C 67 % 1021,4 hPa 0,0 l/m 8,2 km/h (2 Bft) O-NO 67 2 min 0,000 mm 1,2 UV-I 377 W/m 13,5 C 19,1 C 14,5 km/h (3 Bft) 97,87 %
29.09.2017 16:04 19,7 C 13,9 C 66 % 1021,4 hPa 0,0 l/m 6,5 km/h (2 Bft) O 80 2 min 0,000 mm 1,0 UV-I 287 W/m 13,2 C 19,7 C 11,3 km/h (2 Bft) 97,87 %
29.09.2017 16:06 19,7 C 13,9 C 66 % 1021,4 hPa 0,0 l/m 11,1 km/h (2 Bft) O-NO 57 2 min 0,000 mm 1,1 UV-I 299 W/m 13,2 C 18,0 C 14,5 km/h (3 Bft) 97,96 %
29.09.2017 16:08 19,6 C 13,9 C 66 % 1021,4 hPa 0,0 l/m 10,1 km/h (2 Bft) O 88 2 min 0,000 mm 1,0 UV-I 330 W/m 13,1 C 18,2 C 14,5 km/h (3 Bft) 95,74 %
29.09.2017 16:10 19,7 C 13,9 C 67 % 1021,4 hPa 0,0 l/m 7,6 km/h (2 Bft) NO 49 2 min 0,000 mm 1,0 UV-I 292 W/m 13,4 C 19,2 C 12,9 km/h (3 Bft) 96,00 %
29.09.2017 16:12 19,6 C 13,9 C 67 % 1021,5 hPa 0,0 l/m 8,3 km/h (2 Bft) NO 42 0 min 0,000 mm 0,9 UV-I 199 W/m 13,3 C 18,8 C 14,5 km/h (3 Bft) 97,87 %
29.09.2017 16:14 19,5 C 13,9 C 67 % 1021,5 hPa 0,0 l/m 7,5 km/h (2 Bft) NO 56 0 min 0,000 mm 0,8 UV-I 106 W/m 13,2 C 19,0 C 11,3 km/h (2 Bft) 97,87 %
29.09.2017 16:16 19,3 C 13,9 C 67 % 1021,5 hPa 0,0 l/m 6,6 km/h (2 Bft) O-NO 72 0 min 0,000 mm 0,7 UV-I 79 W/m 13,0 C 19,2 C 9,7 km/h (2 Bft) 97,96 %
29.09.2017 16:18 19,2 C 13,9 C 68 % 1021,4 hPa 0,0 l/m 9,1 km/h (2 Bft) O 86 0 min 0,000 mm 0,7 UV-I 78 W/m 13,1 C 18,1 C 14,5 km/h (3 Bft) 97,92 %
29.09.2017 16:20 19,0 C 13,9 C 67 % 1021,4 hPa 0,0 l/m 10,1 km/h (2 Bft) O 83 0 min 0,000 mm 0,7 UV-I 80 W/m 12,7 C 17,5 C 14,5 km/h (3 Bft) 94,74 %
29.09.2017 16:22 18,8 C 13,9 C 68 % 1021,4 hPa 0,0 l/m 6,9 km/h (2 Bft) O-SO 116 0 min 0,000 mm 0,7 UV-I 80 W/m 12,8 C 18,6 C 11,3 km/h (2 Bft) 98,00 %
29.09.2017 16:24 18,7 C 13,9 C 69 % 1021,5 hPa 0,0 l/m 4,7 km/h (1 Bft) O-NO 71 0 min 0,000 mm 0,6 UV-I 86 W/m 12,9 C 18,7 C 6,4 km/h (2 Bft) 97,87 %
29.09.2017 16:26 18,7 C 13,9 C 69 % 1021,5 hPa 0,0 l/m 3,7 km/h (1 Bft) O 88 0 min 0,000 mm 0,7 UV-I 117 W/m 12,9 C 18,7 C 6,4 km/h (2 Bft) 95,92 %
29.09.2017 16:28 18,6 C 13,9 C 70 % 1021,5 hPa 0,0 l/m 4,4 km/h (1 Bft) O-NO 76 2 min 0,000 mm 0,7 UV-I 263 W/m 13,0 C 18,6 C 8,0 km/h (2 Bft) 96,00 %
29.09.2017 16:30 18,7 C 13,9 C 70 % 1021,4 hPa 0,0 l/m 4,8 km/h (1 Bft) O 80 2 min 0,000 mm 0,7 UV-I 285 W/m 13,1 C 18,7 C 6,4 km/h (2 Bft) 97,87 %
29.09.2017 16:32 18,8 C 13,9 C 70 % 1021,4 hPa 0,0 l/m 5,9 km/h (2 Bft) O-NO 64 2 min 0,000 mm 0,7 UV-I 300 W/m 13,2 C 18,8 C 8,0 km/h (2 Bft) 97,87 %
29.09.2017 16:34 18,9 C 13,9 C 69 % 1021,4 hPa 0,0 l/m 9,1 km/h (2 Bft) O 83 2 min 0,000 mm 0,7 UV-I 317 W/m 13,1 C 17,8 C 12,9 km/h (3 Bft) 97,87 %
29.09.2017 16:36 19,1 C 13,9 C 68 % 1021,4 hPa 0,0 l/m 8,6 km/h (2 Bft) O 85 2 min 0,000 mm 0,7 UV-I 321 W/m 13,1 C 18,2 C 12,9 km/h (3 Bft) 97,14 %
29.09.2017 16:38 19,2 C 13,9 C 68 % 1021,4 hPa 0,0 l/m 7,7 km/h (2 Bft) O-NO 68 2 min 0,000 mm 0,7 UV-I 310 W/m 13,1 C 18,6 C 12,9 km/h (3 Bft) 98,00 %
29.09.2017 16:40 19,2 C 13,9 C 66 % 1021,4 hPa 0,0 l/m 11,0 km/h (2 Bft) O-NO 74 2 min 0,000 mm 0,6 UV-I 211 W/m 12,7 C 17,4 C 14,5 km/h (3 Bft) 95,74 %
29.09.2017 16:42 19,2 C 13,9 C 67 % 1021,3 hPa 0,0 l/m 8,0 km/h (2 Bft) O-NO 72 0 min 0,000 mm 0,5 UV-I 116 W/m 12,9 C 18,5 C 12,9 km/h (3 Bft) 97,87 %
29.09.2017 16:44 19,1 C 13,9 C 67 % 1021,3 hPa 0,0 l/m 7,0 km/h (2 Bft) O 90 0 min 0,000 mm 0,5 UV-I 84 W/m 12,8 C 18,8 C 11,3 km/h (2 Bft) 93,62 %
29.09.2017 16:46 18,8 C 13,9 C 67 % 1021,4 hPa 0,0 l/m 8,5 km/h (2 Bft) O 82 0 min 0,000 mm 0,5 UV-I 81 W/m 12,5 C 17,9 C 14,5 km/h (3 Bft) 96,23 %
29.09.2017 16:48 18,7 C 13,9 C 67 % 1021,4 hPa 0,0 l/m 5,2 km/h (1 Bft) O-NO 71 0 min 0,000 mm 0,4 UV-I 81 W/m 12,4 C 18,7 C 9,7 km/h (2 Bft) 95,83 %
29.09.2017 16:50 18,6 C 13,9 C 68 % 1021,3 hPa 0,0 l/m 4,8 km/h (1 Bft) O 83 0 min 0,000 mm 0,0 UV-I 81 W/m 12,6 C 18,6 C 6,4 km/h (2 Bft) 92,19 %
29.09.2017 16:52 18,5 C 13,9 C 68 % 1021,4 hPa 0,0 l/m 2,7 km/h (1 Bft) O 101 0 min 0,000 mm 0,0 UV-I 83 W/m 12,5 C 18,5 C 4,8 km/h (1 Bft) 95,83 %
29.09.2017 16:54 18,4 C 13,9 C 69 % 1021,3 hPa 0,0 l/m 4,1 km/h (1 Bft) O 101 0 min 0,000 mm 0,0 UV-I 85 W/m 12,6 C 18,4 C 4,8 km/h (1 Bft) 94,29 %
29.09.2017 16:56 18,3 C 13,9 C 69 % 1021,4 hPa 0,0 l/m 2,2 km/h (1 Bft) O 101 0 min 0,000 mm 0,0 UV-I 87 W/m 12,5 C 18,3 C 3,2 km/h (1 Bft) 95,16 %
29.09.2017 16:58 18,3 C 13,9 C 68 % 1021,4 hPa 0,0 l/m 2,0 km/h (1 Bft) O 101 0 min 0,000 mm 0,0 UV-I 90 W/m 12,3 C 18,3 C 3,2 km/h (1 Bft) 94,00 %
29.09.2017 17:00 18,3 C 13,9 C 69 % 1021,4 hPa 0,0 l/m 2,0 km/h (1 Bft) O 101 0 min 0,000 mm 0,0 UV-I 92 W/m 12,5 C 18,3 C 3,2 km/h (1 Bft) 97,37 %
29.09.2017 17:02 18,2 C 13,9 C 68 % 1021,4 hPa 0,0 l/m 0,4 km/h (0 Bft) O 101 0 min 0,127 mm 0,0 UV-I 94 W/m 12,2 C 18,2 C 3,2 km/h (1 Bft) 91,49 %
29.09.2017 17:04 18,2 C 13,9 C 69 % 1021,4 hPa 0,0 l/m 0,0 km/h (0 Bft) O 101 0 min 0,000 mm 0,0 UV-I 98 W/m 12,4 C 18,2 C 0,0 km/h (0 Bft) 93,62 %
29.09.2017 17:06 18,2 C 13,9 C 69 % 1021,4 hPa 0,0 l/m 1,2 km/h (1 Bft) O 101 0 min 0,000 mm 0,0 UV-I 110 W/m 12,4 C 18,2 C 3,2 km/h (1 Bft) 95,74 %
29.09.2017 17:08 18,3 C 13,9 C 69 % 1021,4 hPa 0,0 l/m 1,7 km/h (1 Bft) O 101 2 min 0,000 mm 0,0 UV-I 146 W/m 12,5 C 18,3 C 3,2 km/h (1 Bft) 95,74 %
29.09.2017 17:10 18,3 C 13,9 C 71 % 1021,4 hPa 0,0 l/m 1,5 km/h (1 Bft) O 101 2 min 0,000 mm 0,0 UV-I 175 W/m 12,9 C 18,3 C 3,2 km/h (1 Bft) 93,62 %
29.09.2017 17:12 18,2 C 13,9 C 71 % 1021,4 hPa 0,0 l/m 1,6 km/h (1 Bft) O 101 2 min 0,000 mm 0,0 UV-I 188 W/m 12,9 C 18,2 C 3,2 km/h (1 Bft) 95,74 %
29.09.2017 17:14 18,3 C 13,9 C 71 % 1021,4 hPa 0,0 l/m 2,1 km/h (1 Bft) O 101 2 min 0,000 mm 0,0 UV-I 227 W/m 12,9 C 18,3 C 3,2 km/h (1 Bft) 95,74 %
29.09.2017 17:16 18,3 C 13,9 C 72 % 1021,4 hPa 0,0 l/m 0,1 km/h (0 Bft) O 101 2 min 0,000 mm 0,0 UV-I 236 W/m 13,2 C 18,3 C 1,6 km/h (1 Bft) 94,00 %
29.09.2017 17:18 18,4 C 13,9 C 71 % 1021,5 hPa 0,0 l/m 0,1 km/h (0 Bft) O 101 2 min 0,000 mm 0,0 UV-I 232 W/m 13,0 C 18,4 C 1,6 km/h (1 Bft) 98,00 %
29.09.2017 17:20 18,4 C 13,9 C 72 % 1021,5 hPa 0,0 l/m 2,3 km/h (1 Bft) O-NO 58 2 min 0,000 mm 0,0 UV-I 230 W/m 13,3 C 18,4 C 6,4 km/h (2 Bft) 100,00 %
29.09.2017 17:22 18,6 C 13,9 C 72 % 1021,4 hPa 0,0 l/m 3,2 km/h (1 Bft) O-NO 58 2 min 0,000 mm 0,0 UV-I 240 W/m 13,4 C 18,6 C 6,4 km/h (2 Bft) 97,87 %
29.09.2017 17:24 18,7 C 13,9 C 71 % 1021,4 hPa 0,0 l/m 3,7 km/h (1 Bft) O-NO 63 2 min 0,000 mm 0,0 UV-I 242 W/m 13,3 C 18,7 C 6,4 km/h (2 Bft) 95,74 %
29.09.2017 17:26 18,7 C 13,9 C 70 % 1021,4 hPa 0,0 l/m 3,0 km/h (1 Bft) O-NO 63 2 min 0,000 mm 0,0 UV-I 221 W/m 13,1 C 18,7 C 4,8 km/h (1 Bft) 98,00 %
29.09.2017 17:28 18,7 C 13,9 C 70 % 1021,4 hPa 0,0 l/m 2,7 km/h (1 Bft) O-NO 63 2 min 0,000 mm 0,0 UV-I 197 W/m 13,1 C 18,7 C 4,8 km/h (1 Bft) 97,87 %
29.09.2017 17:30 18,7 C 13,9 C 71 % 1021,5 hPa 0,0 l/m 3,9 km/h (1 Bft) O-NO 74 2 min 0,000 mm 0,0 UV-I 182 W/m 13,3 C 18,7 C 6,4 km/h (2 Bft) 97,87 %
29.09.2017 17:32 18,7 C 13,9 C 70 % 1021,5 hPa 0,0 l/m 4,7 km/h (1 Bft) O 82 2 min 0,000 mm 0,0 UV-I 156 W/m 13,1 C 18,7 C 6,4 km/h (2 Bft) 97,92 %
29.09.2017 17:34 18,7 C 13,9 C 69 % 1021,5 hPa 0,0 l/m 5,4 km/h (1 Bft) O 79 2 min 0,000 mm 0,0 UV-I 128 W/m 12,9 C 18,7 C 8,0 km/h (2 Bft) 100,00 %
29.09.2017 17:36 18,7 C 13,9 C 70 % 1021,5 hPa 0,0 l/m 5,3 km/h (1 Bft) O 80 2 min 0,000 mm 0,0 UV-I 112 W/m 13,1 C 18,7 C 6,4 km/h (2 Bft) 97,87 %
29.09.2017 17:38 18,6 C 13,9 C 70 % 1021,5 hPa 0,0 l/m 5,3 km/h (1 Bft) O 81 2 min 0,000 mm 0,0 UV-I 102 W/m 13,0 C 18,6 C 8,0 km/h (2 Bft) 100,00 %
29.09.2017 17:40 18,6 C 13,9 C 70 % 1021,5 hPa 0,0 l/m 7,0 km/h (2 Bft) NO 43 0 min 0,000 mm 0,0 UV-I 93 W/m 13,0 C 18,3 C 11,3 km/h (2 Bft) 100,00 %
29.09.2017 17:42 18,4 C 13,9 C 71 % 1021,5 hPa 0,0 l/m 6,2 km/h (2 Bft) O 94 0 min 0,000 mm 0,0 UV-I 83 W/m 13,0 C 18,4 C 9,7 km/h (2 Bft) 93,62 %
29.09.2017 17:44 18,3 C 13,9 C 71 % 1021,5 hPa 0,0 l/m 4,6 km/h (1 Bft) O 86 0 min 0,000 mm 0,0 UV-I 75 W/m 12,9 C 18,3 C 6,4 km/h (2 Bft) 100,00 %
29.09.2017 17:46 18,2 C 13,9 C 73 % 1021,5 hPa 0,0 l/m 4,1 km/h (1 Bft) O 86 0 min 0,000 mm 0,0 UV-I 67 W/m 13,3 C 18,2 C 6,4 km/h (2 Bft) 100,00 %
29.09.2017 17:48 17,9 C 13,9 C 73 % 1021,5 hPa 0,0 l/m 5,0 km/h (1 Bft) O 98 0 min 0,000 mm 0,0 UV-I 62 W/m 13,0 C 17,9 C 6,4 km/h (2 Bft) 95,74 %
29.09.2017 17:50 17,8 C 13,9 C 74 % 1021,5 hPa 0,0 l/m 5,1 km/h (1 Bft) O-NO 78 0 min 0,000 mm 0,0 UV-I 55 W/m 13,1 C 17,8 C 6,4 km/h (2 Bft) 100,00 %
29.09.2017 17:52 17,7 C 13,9 C 74 % 1021,5 hPa 0,0 l/m 4,9 km/h (1 Bft) O 101 0 min 0,000 mm 0,0 UV-I 51 W/m 13,0 C 17,7 C 8,0 km/h (2 Bft) 100,00 %
29.09.2017 17:54 17,7 C 13,9 C 74 % 1021,5 hPa 0,0 l/m 6,0 km/h (2 Bft) O 79 0 min 0,000 mm 0,0 UV-I 48 W/m 13,0 C 17,7 C 9,7 km/h (2 Bft) 100,00 %
29.09.2017 17:56 17,6 C 13,9 C 75 % 1021,5 hPa 0,0 l/m 5,3 km/h (1 Bft) O 92 0 min 0,000 mm 0,0 UV-I 47 W/m 13,1 C 17,6 C 9,7 km/h (2 Bft) 100,00 %
29.09.2017 17:58 17,4 C 13,9 C 75 % 1021,5 hPa 0,0 l/m 6,5 km/h (2 Bft) O 100 0 min 0,000 mm 0,0 UV-I 45 W/m 12,9 C 17,4 C 11,3 km/h (2 Bft) 100,00 %
29.09.2017 18:00 17,4 C 13,9 C 75 % 1021,5 hPa 0,0 l/m 7,1 km/h (2 Bft) O-NO 70 0 min 0,101 mm 0,0 UV-I 42 W/m 12,9 C 17,1 C 12,9 km/h (3 Bft) 97,87 %
29.09.2017 18:02 17,4 C 13,9 C 75 % 1021,5 hPa 0,0 l/m 5,6 km/h (1 Bft) O 80 0 min 0,000 mm 0,0 UV-I 39 W/m 12,9 C 17,4 C 8,0 km/h (2 Bft) 97,87 %
29.09.2017 18:04 17,3 C 13,9 C 76 % 1021,5 hPa 0,0 l/m 5,6 km/h (1 Bft) O 95 0 min 0,000 mm 0,0 UV-I 36 W/m 13,0 C 17,3 C 9,7 km/h (2 Bft) 97,87 %
29.09.2017 18:06 17,2 C 13,9 C 76 % 1021,4 hPa 0,0 l/m 6,1 km/h (2 Bft) O 94 0 min 0,000 mm 0,0 UV-I 33 W/m 12,9 C 17,2 C 9,7 km/h (2 Bft) 100,00 %
29.09.2017 18:08 17,2 C 13,9 C 76 % 1021,4 hPa 0,0 l/m 5,5 km/h (1 Bft) O-NO 78 0 min 0,000 mm 0,0 UV-I 30 W/m 12,9 C 17,2 C 8,0 km/h (2 Bft) 100,00 %
29.09.2017 18:10 17,1 C 13,9 C 77 % 1021,4 hPa 0,0 l/m 4,4 km/h (1 Bft) O-NO 78 0 min 0,000 mm 0,0 UV-I 27 W/m 13,0 C 17,1 C 6,4 km/h (2 Bft) 100,00 %
29.09.2017 18:12 16,9 C 13,9 C 77 % 1021,4 hPa 0,0 l/m 4,2 km/h (1 Bft) O-SO 105 0 min 0,000 mm 0,0 UV-I 26 W/m 12,8 C 16,9 C 6,4 km/h (2 Bft) 100,00 %
29.09.2017 18:14 16,8 C 13,9 C 77 % 1021,5 hPa 0,0 l/m 5,8 km/h (2 Bft) O 93 0 min 0,000 mm 0,0 UV-I 26 W/m 12,7 C 16,8 C 9,7 km/h (2 Bft) 100,00 %
29.09.2017 18:16 16,8 C 13,9 C 77 % 1021,5 hPa 0,0 l/m 4,3 km/h (1 Bft) O 93 0 min 0,000 mm 0,0 UV-I 26 W/m 12,7 C 16,8 C 6,4 km/h (2 Bft) 97,87 %
29.09.2017 18:18 16,7 C 13,9 C 77 % 1021,5 hPa 0,0 l/m 4,6 km/h (1 Bft) O 98 0 min 0,000 mm 0,0 UV-I 25 W/m 12,6 C 16,7 C 9,7 km/h (2 Bft) 100,00 %
29.09.2017 18:20 16,7 C 13,9 C 77 % 1021,5 hPa 0,0 l/m 6,0 km/h (2 Bft) O 92 0 min 0,000 mm 0,0 UV-I 23 W/m 12,6 C 16,7 C 9,7 km/h (2 Bft) 100,00 %
29.09.2017 18:23 16,6 C 13,9 C 78 % 1021,4 hPa 0,0 l/m 5,2 km/h (1 Bft) O 90 0 min 0,000 mm 0,0 UV-I 21 W/m 12,7 C 16,6 C 9,7 km/h (2 Bft) 100,00 %
29.09.2017 18:24 16,6 C 13,9 C 78 % 1021,4 hPa 0,0 l/m 7,1 km/h (2 Bft) O 92 0 min 0,000 mm 0,0 UV-I 19 W/m 12,7 C 16,2 C 9,7 km/h (2 Bft) 100,00 %
29.09.2017 18:26 16,5 C 13,9 C 78 % 1021,4 hPa 0,0 l/m 5,0 km/h (1 Bft) O 84 0 min 0,000 mm 0,0 UV-I 19 W/m 12,6 C 16,5 C 8,0 km/h (2 Bft) 100,00 %
29.09.2017 18:28 16,5 C 13,9 C 78 % 1021,4 hPa 0,0 l/m 5,7 km/h (1 Bft) O 79 0 min 0,000 mm 0,0 UV-I 18 W/m 12,6 C 16,5 C 8,0 km/h (2 Bft) 100,00 %
29.09.2017 18:30 16,5 C 13,9 C 78 % 1021,4 hPa 0,0 l/m 6,0 km/h (2 Bft) O-SO 112 0 min 0,000 mm 0,0 UV-I 16 W/m 12,6 C 16,5 C 11,3 km/h (2 Bft) 100,00 %
29.09.2017 18:32 16,5 C 13,9 C 78 % 1021,3 hPa 0,0 l/m 6,0 km/h (2 Bft) O 81 0 min 0,000 mm 0,0 UV-I 14 W/m 12,6 C 16,5 C 9,7 km/h (2 Bft) 100,00 %
29.09.2017 18:34 16,5 C 13,9 C 78 % 1021,3 hPa 0,0 l/m 5,3 km/h (1 Bft) O-NO 74 0 min 0,000 mm 0,0 UV-I 12 W/m 12,6 C 16,5 C 9,7 km/h (2 Bft) 100,00 %
29.09.2017 18:36 16,5 C 13,9 C 78 % 1021,3 hPa 0,0 l/m 5,4 km/h (1 Bft) O 90 2 min 0,000 mm 0,0 UV-I 12 W/m 12,6 C 16,5 C 6,4 km/h (2 Bft) 97,87 %
29.09.2017 18:38 16,5 C 13,9 C 78 % 1021,3 hPa 0,0 l/m 4,5 km/h (1 Bft) O-NO 76 0 min 0,000 mm 0,0 UV-I 11 W/m 12,6 C 16,5 C 8,0 km/h (2 Bft) 100,00 %
29.09.2017 18:40 16,4 C 13,9 C 78 % 1021,3 hPa 0,0 l/m 4,7 km/h (1 Bft) O-NO 77 0 min 0,000 mm 0,0 UV-I 10 W/m 12,6 C 16,4 C 8,0 km/h (2 Bft) 97,87 %
29.09.2017 18:42 16,3 C 13,9 C 78 % 1021,4 hPa 0,0 l/m 5,6 km/h (1 Bft) O-SO 115 0 min 0,000 mm 0,0 UV-I 9 W/m 12,5 C 16,3 C 9,7 km/h (2 Bft) 100,00 %
29.09.2017 18:44 16,3 C 13,9 C 79 % 1021,4 hPa 0,0 l/m 5,2 km/h (1 Bft) O-NO 72 0 min 0,000 mm 0,0 UV-I 7 W/m 12,6 C 16,3 C 11,3 km/h (2 Bft) 97,87 %
29.09.2017 18:46 16,2 C 13,9 C 79 % 1021,4 hPa 0,0 l/m 4,6 km/h (1 Bft) O 86 0 min 0,000 mm 0,0 UV-I 7 W/m 12,6 C 16,2 C 8,0 km/h (2 Bft) 97,87 %
29.09.2017 18:48 16,2 C 13,9 C 79 % 1021,4 hPa 0,0 l/m 3,7 km/h (1 Bft) O 82 0 min 0,000 mm 0,0 UV-I 6 W/m 12,6 C 16,2 C 6,4 km/h (2 Bft) 97,87 %
29.09.2017 18:50 16,1 C 13,9 C 79 % 1021,4 hPa 0,0 l/m 3,7 km/h (1 Bft) O-NO 69 0 min 0,000 mm 0,0 UV-I 5 W/m 12,5 C 16,1 C 6,4 km/h (2 Bft) 97,87 %
29.09.2017 18:52 16,1 C 13,9 C 79 % 1021,4 hPa 0,0 l/m 1,9 km/h (1 Bft) O-NO 69 0 min 0,000 mm 0,0 UV-I 5 W/m 12,5 C 16,1 C 4,8 km/h (1 Bft) 95,74 %
29.09.2017 18:54 15,9 C 13,9 C 80 % 1021,4 hPa 0,0 l/m 3,0 km/h (1 Bft) O-NO 69 0 min 0,000 mm 0,0 UV-I 5 W/m 12,5 C 15,9 C 4,8 km/h (1 Bft) 93,75 %
29.09.2017 18:56 15,9 C 13,9 C 80 % 1021,4 hPa 0,0 l/m 2,4 km/h (1 Bft) O-NO 69 0 min 0,000 mm 0,0 UV-I 5 W/m 12,5 C 15,9 C 3,2 km/h (1 Bft) 97,87 %
29.09.2017 18:58 15,8 C 13,9 C 80 % 1021,4 hPa 0,0 l/m 2,5 km/h (1 Bft) O-NO 69 0 min 0,000 mm 0,0 UV-I 5 W/m 12,4 C 15,8 C 4,8 km/h (1 Bft) 97,37 %
29.09.2017 19:00 15,8 C 13,9 C 80 % 1021,5 hPa 0,0 l/m 2,8 km/h (1 Bft) O-NO 69 0 min 0,026 mm 0,0 UV-I 0 W/m 12,4 C 15,8 C 4,8 km/h (1 Bft) 97,87 %
29.09.2017 19:02 15,7 C 13,9 C 81 % 1021,4 hPa 0,0 l/m 2,6 km/h (1 Bft) O-NO 69 0 min 0,000 mm 0,0 UV-I 0 W/m 12,4 C 15,7 C 3,2 km/h (1 Bft) 95,74 %
29.09.2017 19:04 15,7 C 13,9 C 81 % 1021,5 hPa 0,0 l/m 1,4 km/h (1 Bft) O-NO 69 0 min 0,000 mm 0,0 UV-I 0 W/m 12,4 C 15,7 C 3,2 km/h (1 Bft) 98,11 %
29.09.2017 19:06 15,6 C 13,9 C 81 % 1021,5 hPa 0,0 l/m 0,8 km/h (0 Bft) O-NO 69 0 min 0,000 mm 0,0 UV-I 0 W/m 12,3 C 15,6 C 3,2 km/h (1 Bft) 95,74 %
29.09.2017 19:08 15,6 C 13,9 C 81 % 1021,5 hPa 0,0 l/m 2,8 km/h (1 Bft) O-NO 69 0 min 0,000 mm 0,0 UV-I 0 W/m 12,3 C 15,6 C 4,8 km/h (1 Bft) 97,87 %
29.09.2017 19:10 15,5 C 13,9 C 81 % 1021,5 hPa 0,0 l/m 2,5 km/h (1 Bft) O-NO 69 0 min 0,000 mm 0,0 UV-I 0 W/m 12,3 C 15,5 C 4,8 km/h (1 Bft) 95,74 %
29.09.2017 19:12 15,4 C 13,9 C 81 % 1021,5 hPa 0,0 l/m 1,9 km/h (1 Bft) O-NO 69 0 min 0,000 mm 0,0 UV-I 0 W/m 12,2 C 15,4 C 3,2 km/h (1 Bft) 97,37 %
29.09.2017 19:14 15,3 C 13,9 C 82 % 1021,5 hPa 0,0 l/m 2,7 km/h (1 Bft) O-NO 69 0 min 0,000 mm 0,0 UV-I 0 W/m 12,2 C 15,3 C 4,8 km/h (1 Bft) 95,74 %
29.09.2017 19:16 15,2 C 13,9 C 82 % 1021,5 hPa 0,0 l/m 3,7 km/h (1 Bft) O-NO 69 0 min 0,000 mm 0,0 UV-I 0 W/m 12,1 C 15,2 C 6,4 km/h (2 Bft) 98,00 %
29.09.2017 19:18 15,1 C 13,9 C 82 % 1021,5 hPa 0,0 l/m 3,1 km/h (1 Bft) O-NO 69 0 min 0,000 mm 0,0 UV-I 0 W/m 12,0 C 15,1 C 4,8 km/h (1 Bft) 96,23 %
29.09.2017 19:20 15,1 C 13,9 C 83 % 1021,6 hPa 0,0 l/m 2,6 km/h (1 Bft) O-NO 69 0 min 0,000 mm 0,0 UV-I 0 W/m 12,2 C 15,1 C 4,8 km/h (1 Bft) 100,00 %
29.09.2017 19:22 15,0 C 13,9 C 83 % 1021,6 hPa 0,0 l/m 2,4 km/h (1 Bft) O-NO 69 0 min 0,000 mm 0,0 UV-I 0 W/m 12,1 C 15,0 C 3,2 km/h (1 Bft) 100,00 %
29.09.2017 19:24 14,9 C 13,9 C 83 % 1021,6 hPa 0,0 l/m 2,0 km/h (1 Bft) O-NO 69 0 min 0,000 mm 0,0 UV-I 0 W/m 12,0 C 14,9 C 3,2 km/h (1 Bft) 100,00 %
29.09.2017 19:26 14,8 C 13,9 C 83 % 1021,6 hPa 0,0 l/m 3,0 km/h (1 Bft) O-NO 69 0 min 0,000 mm 0,0 UV-I 0 W/m 11,9 C 14,8 C 4,8 km/h (1 Bft) 97,87 %
29.09.2017 19:28 14,8 C 13,9 C 83 % 1021,6 hPa 0,0 l/m 1,6 km/h (1 Bft) O-NO 69 0 min 0,000 mm 0,0 UV-I 0 W/m 11,9 C 14,8 C 3,2 km/h (1 Bft) 95,74 %
29.09.2017 19:30 14,8 C 13,9 C 83 % 1021,6 hPa 0,0 l/m 2,9 km/h (1 Bft) O-NO 69 0 min 0,000 mm 0,0 UV-I 0 W/m 11,9 C 14,8 C 4,8 km/h (1 Bft) 97,22 %
29.09.2017 19:32 14,7 C 13,9 C 84 % 1021,6 hPa 0,0 l/m 3,0 km/h (1 Bft) NO 55 0 min 0,000 mm 0,0 UV-I 0 W/m 12,0 C 14,7 C 6,4 km/h (2 Bft) 95,74 %
29.09.2017 19:34 14,7 C 13,9 C 84 % 1021,6 hPa 0,0 l/m 3,5 km/h (1 Bft) NO 55 0 min 0,000 mm 0,0 UV-I 0 W/m 12,0 C 14,7 C 4,8 km/h (1 Bft) 100,00 %
29.09.2017 19:36 14,6 C 13,9 C 84 % 1021,6 hPa 0,0 l/m 2,2 km/h (1 Bft) NO 55 0 min 0,000 mm 0,0 UV-I 0 W/m 11,9 C 14,6 C 3,2 km/h (1 Bft) 97,87 %
29.09.2017 19:38 14,6 C 13,9 C 84 % 1021,7 hPa 0,0 l/m 2,0 km/h (1 Bft) NO 55 0 min 0,000 mm 0,0 UV-I 0 W/m 11,9 C 14,6 C 3,2 km/h (1 Bft) 100,00 %
29.09.2017 19:40 14,6 C 13,9 C 84 % 1021,7 hPa 0,0 l/m 2,7 km/h (1 Bft) NO 55 0 min 0,000 mm 0,0 UV-I 0 W/m 11,9 C 14,6 C 4,8 km/h (1 Bft) 100,00 %
29.09.2017 19:42 14,6 C 13,9 C 84 % 1021,7 hPa 0,0 l/m 2,8 km/h (1 Bft) NO 55 0 min 0,000 mm 0,0 UV-I 0 W/m 11,9 C 14,6 C 4,8 km/h (1 Bft) 100,00 %
29.09.2017 19:44 14,5 C 13,9 C 84 % 1021,7 hPa 0,0 l/m 2,6 km/h (1 Bft) NO 55 0 min 0,000 mm 0,0 UV-I 0 W/m 11,8 C 14,5 C 4,8 km/h (1 Bft) 100,00 %
29.09.2017 19:46 14,5 C 13,9 C 84 % 1021,7 hPa 0,0 l/m 1,0 km/h (0 Bft) NO 55 0 min 0,000 mm 0,0 UV-I 0 W/m 11,8 C 14,5 C 3,2 km/h (1 Bft) 98,00 %
29.09.2017 19:48 14,5 C 13,9 C 84 % 1021,7 hPa 0,0 l/m 1,6 km/h (1 Bft) NO 55 0 min 0,000 mm 0,0 UV-I 0 W/m 11,8 C 14,5 C 3,2 km/h (1 Bft) 100,00 %
29.09.2017 19:50 14,4 C 13,9 C 84 % 1021,7 hPa 0,0 l/m 0,9 km/h (0 Bft) NO 55 0 min 0,000 mm 0,0 UV-I 0 W/m 11,7 C 14,4 C 1,6 km/h (1 Bft) 100,00 %
29.09.2017 19:52 14,4 C 13,9 C 84 % 1021,7 hPa 0,0 l/m 0,2 km/h (0 Bft) NO 55 0 min 0,000 mm 0,0 UV-I 0 W/m 11,7 C 14,4 C 1,6 km/h (1 Bft) 100,00 %
29.09.2017 19:54 14,3 C 13,9 C 85 % 1021,7 hPa 0,0 l/m 0,0 km/h (0 Bft) NO 55 0 min 0,000 mm 0,0 UV-I 0 W/m 11,8 C 14,3 C 0,0 km/h (0 Bft) 100,00 %
29.09.2017 19:56 14,3 C 13,9 C 85 % 1021,8 hPa 0,0 l/m 1,8 km/h (1 Bft) O-NO 65 0 min 0,000 mm 0,0 UV-I 0 W/m 11,8 C 14,3 C 4,8 km/h (1 Bft) 100,00 %
29.09.2017 19:58 14,3 C 13,9 C 85 % 1021,7 hPa 0,0 l/m 2,7 km/h (1 Bft) O-NO 65 0 min 0,000 mm 0,0 UV-I 0 W/m 11,8 C 14,3 C 4,8 km/h (1 Bft) 100,00 %
29.09.2017 20:00 14,3 C 13,9 C 85 % 1021,7 hPa 0,0 l/m 2,9 km/h (1 Bft) O-NO 65 0 min 0,000 mm 0,0 UV-I 0 W/m 11,8 C 14,3 C 4,8 km/h (1 Bft) 97,14 %
29.09.2017 20:02 14,3 C 13,9 C 84 % 1021,7 hPa 0,0 l/m 4,4 km/h (1 Bft) O-NO 65 0 min 0,000 mm 0,0 UV-I 0 W/m 11,6 C 14,3 C 8,0 km/h (2 Bft) 100,00 %
29.09.2017 20:04 14,3 C 13,9 C 84 % 1021,7 hPa 0,0 l/m 4,9 km/h (1 Bft) NO 54 0 min 0,000 mm 0,0 UV-I 0 W/m 11,6 C 14,3 C 6,4 km/h (2 Bft) 95,83 %
29.09.2017 20:06 14,3 C 13,9 C 83 % 1021,7 hPa 0,0 l/m 6,2 km/h (2 Bft) NO 56 0 min 0,000 mm 0,0 UV-I 0 W/m 11,5 C 14,3 C 11,3 km/h (2 Bft) 97,87 %
29.09.2017 20:08 14,3 C 13,9 C 83 % 1021,8 hPa 0,0 l/m 6,7 km/h (2 Bft) O-NO 69 0 min 0,000 mm 0,0 UV-I 0 W/m 11,5 C 14,1 C 11,3 km/h (2 Bft) 97,87 %
29.09.2017 20:10 14,3 C 13,9 C 83 % 1021,7 hPa 0,0 l/m 7,7 km/h (2 Bft) O-NO 78 0 min 0,000 mm 0,0 UV-I 0 W/m 11,5 C 13,5 C 12,9 km/h (3 Bft) 97,87 %
29.09.2017 20:12 14,3 C 13,9 C 83 % 1021,7 hPa 0,0 l/m 7,4 km/h (2 Bft) O-NO 70 0 min 0,000 mm 0,0 UV-I 0 W/m 11,5 C 13,7 C 12,9 km/h (3 Bft) 100,00 %
29.09.2017 20:14 14,3 C 13,9 C 82 % 1021,7 hPa 0,0 l/m 9,6 km/h (2 Bft) O-NO 75 0 min 0,000 mm 0,0 UV-I 0 W/m 11,3 C 12,5 C 14,5 km/h (3 Bft) 98,00 %
29.09.2017 20:16 14,4 C 13,9 C 82 % 1021,7 hPa 0,0 l/m 9,3 km/h (2 Bft) O-NO 72 0 min 0,000 mm 0,0 UV-I 0 W/m 11,4 C 12,8 C 12,9 km/h (3 Bft) 100,00 %
29.09.2017 20:18 14,4 C 13,9 C 82 % 1021,6 hPa 0,0 l/m 8,7 km/h (2 Bft) O 95 0 min 0,000 mm 0,0 UV-I 0 W/m 11,4 C 13,1 C 12,9 km/h (3 Bft) 97,87 %
29.09.2017 20:20 14,5 C 13,9 C 81 % 1021,6 hPa 0,0 l/m 10,9 km/h (2 Bft) O-NO 75 0 min 0,000 mm 0,0 UV-I 0 W/m 11,3 C 12,2 C 14,5 km/h (3 Bft) 97,87 %
29.09.2017 20:22 14,6 C 13,9 C 81 % 1021,7 hPa 0,0 l/m 10,1 km/h (2 Bft) O 80 0 min 0,000 mm 0,0 UV-I 0 W/m 11,4 C 12,6 C 16,1 km/h (3 Bft) 96,00 %
29.09.2017 20:24 14,6 C 13,9 C 80 % 1021,7 hPa 0,0 l/m 9,8 km/h (2 Bft) O-NO 62 0 min 0,000 mm 0,0 UV-I 0 W/m 11,2 C 12,8 C 16,1 km/h (3 Bft) 95,74 %
29.09.2017 20:26 14,6 C 13,9 C 80 % 1021,7 hPa 0,0 l/m 7,7 km/h (2 Bft) O-NO 63 0 min 0,000 mm 0,0 UV-I 0 W/m 11,2 C 13,8 C 12,9 km/h (3 Bft) 97,56 %
29.09.2017 20:28 14,6 C 13,9 C 80 % 1021,7 hPa 0,0 l/m 10,6 km/h (2 Bft) NO 54 0 min 0,000 mm 0,0 UV-I 0 W/m 11,2 C 12,4 C 14,5 km/h (3 Bft) 94,00 %
29.09.2017 20:30 14,6 C 13,9 C 79 % 1021,8 hPa 0,0 l/m 10,3 km/h (2 Bft) O-NO 62 0 min 0,000 mm 0,0 UV-I 0 W/m 11,0 C 12,5 C 17,7 km/h (3 Bft) 97,87 %
29.09.2017 20:32 14,6 C 13,9 C 79 % 1021,8 hPa 0,0 l/m 10,3 km/h (2 Bft) O 96 0 min 0,000 mm 0,0 UV-I 0 W/m 11,0 C 12,5 C 14,5 km/h (3 Bft) 94,00 %
29.09.2017 20:34 14,7 C 13,9 C 79 % 1021,8 hPa 0,0 l/m 10,5 km/h (2 Bft) O-NO 76 0 min 0,000 mm 0,0 UV-I 0 W/m 11,1 C 12,6 C 16,1 km/h (3 Bft) 97,37 %
29.09.2017 20:36 14,7 C 13,9 C 79 % 1021,8 hPa 0,0 l/m 11,2 km/h (2 Bft) O 95 0 min 0,000 mm 0,0 UV-I 0 W/m 11,1 C 12,3 C 16,1 km/h (3 Bft) 97,87 %
29.09.2017 20:39 14,6 C 13,9 C 78 % 1021,9 hPa 0,0 l/m 10,2 km/h (2 Bft) O 79 0 min 0,000 mm 0,0 UV-I 0 W/m 10,8 C 12,6 C 14,5 km/h (3 Bft) 97,30 %
29.09.2017 20:40 14,6 C 13,9 C 78 % 1021,9 hPa 0,0 l/m 8,4 km/h (2 Bft) O 82 0 min 0,000 mm 0,0 UV-I 0 W/m 10,8 C 13,5 C 12,9 km/h (3 Bft) 100,00 %
29.09.2017 20:42 14,6 C 13,9 C 78 % 1021,9 hPa 0,0 l/m 8,9 km/h (2 Bft) O-NO 78 0 min 0,000 mm 0,0 UV-I 0 W/m 10,8 C 13,2 C 14,5 km/h (3 Bft) 98,11 %
29.09.2017 20:44 14,6 C 13,9 C 78 % 1022,0 hPa 0,0 l/m 7,5 km/h (2 Bft) O-SO 106 0 min 0,000 mm 0,0 UV-I 0 W/m 10,8 C 14,0 C 12,9 km/h (3 Bft) 97,44 %
29.09.2017 20:46 14,5 C 13,9 C 78 % 1022,0 hPa 0,0 l/m 6,7 km/h (2 Bft) O-NO 69 0 min 0,000 mm 0,0 UV-I 0 W/m 10,7 C 14,3 C 12,9 km/h (3 Bft) 93,62 %
29.09.2017 20:48 14,5 C 13,9 C 78 % 1022,0 hPa 0,0 l/m 6,8 km/h (2 Bft) O 92 0 min 0,000 mm 0,0 UV-I 0 W/m 10,7 C 14,3 C 11,3 km/h (2 Bft) 98,00 %
29.09.2017 20:50 14,4 C 13,9 C 79 % 1022,0 hPa 0,0 l/m 5,3 km/h (1 Bft) O-NO 77 0 min 0,000 mm 0,0 UV-I 0 W/m 10,8 C 14,4 C 8,0 km/h (2 Bft) 95,74 %
29.09.2017 20:52 14,4 C 13,9 C 79 % 1022,0 hPa 0,0 l/m 6,6 km/h (2 Bft) O 82 0 min 0,000 mm 0,0 UV-I 0 W/m 10,8 C 14,3 C 11,3 km/h (2 Bft) 96,00 %
29.09.2017 20:54 14,3 C 13,9 C 79 % 1022,0 hPa 0,0 l/m 6,9 km/h (2 Bft) O 84 0 min 0,000 mm 0,0 UV-I 0 W/m 10,7 C 14,0 C 9,7 km/h (2 Bft) 95,74 %
29.09.2017 20:56 14,3 C 13,9 C 79 % 1022,0 hPa 0,0 l/m 5,9 km/h (2 Bft) O-NO 77 0 min 0,000 mm 0,0 UV-I 0 W/m 10,7 C 14,3 C 8,0 km/h (2 Bft) 95,74 %
29.09.2017 20:58 14,2 C 13,9 C 79 % 1022,0 hPa 0,0 l/m 6,1 km/h (2 Bft) O 98 0 min 0,000 mm 0,0 UV-I 0 W/m 10,6 C 14,2 C 9,7 km/h (2 Bft) 95,74 %
29.09.2017 21:00 14,1 C 13,9 C 80 % 1022,0 hPa 0,0 l/m 7,3 km/h (2 Bft) O-NO 77 0 min 0,025 mm 0,0 UV-I 0 W/m 10,7 C 13,6 C 11,3 km/h (2 Bft) 92,11 %
29.09.2017 21:02 14,1 C 13,9 C 80 % 1022,0 hPa 0,0 l/m 8,0 km/h (2 Bft) O 96 0 min 0,000 mm 0,0 UV-I 0 W/m 10,7 C 13,2 C 11,3 km/h (2 Bft) 95,74 %
29.09.2017 21:04 14,0 C 13,9 C 80 % 1022,0 hPa 0,0 l/m 6,8 km/h (2 Bft) O-NO 78 0 min 0,000 mm 0,0 UV-I 0 W/m 10,6 C 13,8 C 12,9 km/h (3 Bft) 90,00 %
29.09.2017 21:06 14,0 C 13,9 C 80 % 1022,0 hPa 0,0 l/m 6,8 km/h (2 Bft) O 80 0 min 0,000 mm 0,0 UV-I 0 W/m 10,6 C 13,8 C 11,3 km/h (2 Bft) 93,62 %
29.09.2017 21:08 14,0 C 13,9 C 80 % 1022,0 hPa 0,0 l/m 6,9 km/h (2 Bft) O-NO 61 0 min 0,000 mm 0,0 UV-I 0 W/m 10,6 C 13,7 C 11,3 km/h (2 Bft) 93,62 %
29.09.2017 21:10 14,1 C 13,9 C 80 % 1022,0 hPa 0,0 l/m 7,1 km/h (2 Bft) O-NO 70 0 min 0,000 mm 0,0 UV-I 0 W/m 10,7 C 13,7 C 11,3 km/h (2 Bft) 96,00 %
29.09.2017 21:12 14,1 C 13,9 C 79 % 1022,0 hPa 0,0 l/m 5,3 km/h (1 Bft) O 84 0 min 0,000 mm 0,0 UV-I 0 W/m 10,5 C 14,1 C 8,0 km/h (2 Bft) 93,62 %
29.09.2017 21:14 14,0 C 13,9 C 79 % 1022,0 hPa 0,0 l/m 6,2 km/h (2 Bft) O-NO 61 0 min 0,000 mm 0,0 UV-I 0 W/m 10,4 C 14,0 C 9,7 km/h (2 Bft) 95,74 %
29.09.2017 21:16 13,9 C 13,9 C 80 % 1022,0 hPa 0,0 l/m 6,6 km/h (2 Bft) O 82 0 min 0,000 mm 0,0 UV-I 0 W/m 10,5 C 13,8 C 11,3 km/h (2 Bft) 93,62 %
29.09.2017 21:18 13,8 C 13,9 C 80 % 1022,0 hPa 0,0 l/m 7,2 km/h (2 Bft) O-NO 74 0 min 0,000 mm 0,0 UV-I 0 W/m 10,4 C 13,3 C 11,3 km/h (2 Bft) 93,62 %
29.09.2017 21:20 13,8 C 13,9 C 80 % 1022,0 hPa 0,0 l/m 5,8 km/h (2 Bft) O-NO 71 0 min 0,000 mm 0,0 UV-I 0 W/m 10,4 C 13,8 C 8,0 km/h (2 Bft) 94,74 %
29.09.2017 21:22 13,7 C 13,9 C 80 % 1022,0 hPa 0,0 l/m 5,7 km/h (1 Bft) O-NO 67 0 min 0,000 mm 0,0 UV-I 0 W/m 10,3 C 13,7 C 9,7 km/h (2 Bft) 93,75 %
29.09.2017 21:24 13,7 C 13,9 C 80 % 1022,0 hPa 0,0 l/m 7,3 km/h (2 Bft) O-NO 67 0 min 0,000 mm 0,0 UV-I 0 W/m 10,3 C 13,2 C 11,3 km/h (2 Bft) 95,74 %
29.09.2017 21:26 13,7 C 13,9 C 80 % 1021,9 hPa 0,0 l/m 6,5 km/h (2 Bft) O-NO 68 0 min 0,000 mm 0,0 UV-I 0 W/m 10,3 C 13,7 C 11,3 km/h (2 Bft) 96,00 %
29.09.2017 21:28 13,6 C 13,9 C 80 % 1021,9 hPa 0,0 l/m 6,0 km/h (2 Bft) O 86 0 min 0,000 mm 0,0 UV-I 0 W/m 10,2 C 13,6 C 11,3 km/h (2 Bft) 100,00 %
29.09.2017 21:30 13,6 C 13,9 C 80 % 1022,0 hPa 0,0 l/m 6,2 km/h (2 Bft) O-NO 76 0 min 0,000 mm 0,0 UV-I 0 W/m 10,2 C 13,6 C 9,7 km/h (2 Bft) 97,87 %
29.09.2017 21:32 13,6 C 13,9 C 81 % 1021,9 hPa 0,0 l/m 5,5 km/h (1 Bft) O-NO 76 0 min 0,000 mm 0,0 UV-I 0 W/m 10,4 C 13,6 C 9,7 km/h (2 Bft) 100,00 %
29.09.2017 21:34 13,6 C 13,9 C 81 % 1022,0 hPa 0,0 l/m 5,7 km/h (1 Bft) O-NO 73 0 min 0,000 mm 0,0 UV-I 0 W/m 10,4 C 13,6 C 8,0 km/h (2 Bft) 100,00 %
29.09.2017 21:36 13,5 C 13,9 C 80 % 1022,0 hPa 0,0 l/m 5,4 km/h (1 Bft) O-NO 67 0 min 0,000 mm 0,0 UV-I 0 W/m 10,1 C 13,5 C 6,4 km/h (2 Bft) 100,00 %
29.09.2017 21:38 13,5 C 13,9 C 81 % 1022,0 hPa 0,0 l/m 6,3 km/h (2 Bft) O-NO 72 0 min 0,000 mm 0,0 UV-I 0 W/m 10,3 C 13,5 C 9,7 km/h (2 Bft) 100,00 %
29.09.2017 21:40 13,4 C 13,9 C 81 % 1022,0 hPa 0,0 l/m 6,6 km/h (2 Bft) O-NO 66 0 min 0,000 mm 0,0 UV-I 0 W/m 10,2 C 13,3 C 11,3 km/h (2 Bft) 97,37 %
29.09.2017 21:42 13,4 C 13,9 C 81 % 1022,0 hPa 0,0 l/m 8,4 km/h (2 Bft) O-NO 73 0 min 0,000 mm 0,0 UV-I 0 W/m 10,2 C 12,2 C 11,3 km/h (2 Bft) 97,87 %
29.09.2017 21:44 13,4 C 13,9 C 81 % 1022,0 hPa 0,0 l/m 7,1 km/h (2 Bft) O-NO 62 0 min 0,000 mm 0,0 UV-I 0 W/m 10,2 C 13,0 C 11,3 km/h (2 Bft) 100,00 %
29.09.2017 21:46 13,4 C 13,9 C 81 % 1022,0 hPa 0,0 l/m 7,0 km/h (2 Bft) O-NO 68 0 min 0,000 mm 0,0 UV-I 0 W/m 10,2 C 13,0 C 11,3 km/h (2 Bft) 100,00 %
29.09.2017 21:48 13,4 C 13,9 C 80 % 1021,9 hPa 0,0 l/m 7,2 km/h (2 Bft) O 82 0 min 0,000 mm 0,0 UV-I 0 W/m 10,0 C 12,9 C 11,3 km/h (2 Bft) 100,00 %
29.09.2017 21:50 13,5 C 13,9 C 80 % 1022,0 hPa 0,0 l/m 6,4 km/h (2 Bft) O-NO 60 0 min 0,000 mm 0,0 UV-I 0 W/m 10,1 C 13,5 C 9,7 km/h (2 Bft) 100,00 %
29.09.2017 21:52 13,4 C 13,9 C 80 % 1021,9 hPa 0,0 l/m 5,8 km/h (2 Bft) NO 52 0 min 0,000 mm 0,0 UV-I 0 W/m 10,0 C 13,4 C 11,3 km/h (2 Bft) 100,00 %
29.09.2017 21:54 13,4 C 13,9 C 80 % 1022,0 hPa 0,0 l/m 5,0 km/h (1 Bft) O-NO 65 0 min 0,000 mm 0,0 UV-I 0 W/m 10,0 C 13,4 C 8,0 km/h (2 Bft) 100,00 %
29.09.2017 21:56 13,3 C 13,9 C 81 % 1021,9 hPa 0,0 l/m 4,5 km/h (1 Bft) O-NO 65 0 min 0,000 mm 0,0 UV-I 0 W/m 10,1 C 13,3 C 6,4 km/h (2 Bft) 100,00 %
29.09.2017 21:58 13,2 C 13,9 C 81 % 1021,9 hPa 0,0 l/m 5,3 km/h (1 Bft) NO 51 0 min 0,000 mm 0,0 UV-I 0 W/m 10,0 C 13,2 C 8,0 km/h (2 Bft) 97,87 %
29.09.2017 22:00 13,1 C 13,9 C 82 % 1021,9 hPa 0,0 l/m 6,8 km/h (2 Bft) NO 48 0 min 0,000 mm 0,0 UV-I 0 W/m 10,1 C 12,9 C 9,7 km/h (2 Bft) 97,87 %
29.09.2017 22:02 13,1 C 13,9 C 82 % 1021,9 hPa 0,0 l/m 6,5 km/h (2 Bft) O-NO 60 0 min 0,026 mm 0,0 UV-I 0 W/m 10,1 C 13,1 C 9,7 km/h (2 Bft) 100,00 %
29.09.2017 22:04 13,1 C 13,9 C 82 % 1021,9 hPa 0,0 l/m 7,4 km/h (2 Bft) NO 49 0 min 0,000 mm 0,0 UV-I 0 W/m 10,1 C 12,5 C 11,3 km/h (2 Bft) 95,83 %
29.09.2017 22:06 13,1 C 13,9 C 82 % 1021,8 hPa 0,0 l/m 7,5 km/h (2 Bft) NO 56 0 min 0,000 mm 0,0 UV-I 0 W/m 10,1 C 12,4 C 11,3 km/h (2 Bft) 100,00 %
29.09.2017 22:08 13,1 C 13,9 C 82 % 1021,9 hPa 0,0 l/m 7,4 km/h (2 Bft) NO 48 0 min 0,000 mm 0,0 UV-I 0 W/m 10,1 C 12,5 C 11,3 km/h (2 Bft) 97,87 %
29.09.2017 22:10 13,1 C 13,9 C 82 % 1021,8 hPa 0,0 l/m 7,5 km/h (2 Bft) NO 55 0 min 0,000 mm 0,0 UV-I 0 W/m 10,1 C 12,4 C 9,7 km/h (2 Bft) 100,00 %
29.09.2017 22:12 13,0 C 13,9 C 82 % 1021,9 hPa 0,0 l/m 8,1 km/h (2 Bft) NO 51 0 min 0,000 mm 0,0 UV-I 0 W/m 10,0 C 11,9 C 12,9 km/h (3 Bft) 93,62 %
29.09.2017 22:14 13,0 C 13,9 C 82 % 1021,8 hPa 0,0 l/m 8,7 km/h (2 Bft) O 84 0 min 0,000 mm 0,0 UV-I 0 W/m 10,0 C 11,6 C 12,9 km/h (3 Bft) 97,87 %
29.09.2017 22:16 13,0 C 13,9 C 82 % 1021,8 hPa 0,0 l/m 7,8 km/h (2 Bft) O-NO 71 0 min 0,000 mm 0,0 UV-I 0 W/m 10,0 C 12,1 C 12,9 km/h (3 Bft) 100,00 %
29.09.2017 22:18 12,9 C 13,9 C 82 % 1021,8 hPa 0,0 l/m 6,3 km/h (2 Bft) O-NO 58 0 min 0,000 mm 0,0 UV-I 0 W/m 9,9 C 12,9 C 11,3 km/h (2 Bft) 100,00 %
29.09.2017 22:20 12,9 C 13,9 C 82 % 1021,8 hPa 0,0 l/m 6,3 km/h (2 Bft) NO 53 0 min 0,000 mm 0,0 UV-I 0 W/m 9,9 C 12,9 C 11,3 km/h (2 Bft) 97,87 %
29.09.2017 22:22 12,9 C 13,9 C 82 % 1021,7 hPa 0,0 l/m 8,3 km/h (2 Bft) NO 56 0 min 0,000 mm 0,0 UV-I 0 W/m 9,9 C 11,7 C 14,5 km/h (3 Bft) 100,00 %
29.09.2017 22:24 12,9 C 13,9 C 82 % 1021,7 hPa 0,0 l/m 7,3 km/h (2 Bft) NO 51 0 min 0,000 mm 0,0 UV-I 0 W/m 9,9 C 12,3 C 11,3 km/h (2 Bft) 100,00 %
29.09.2017 22:26 12,9 C 13,9 C 82 % 1021,7 hPa 0,0 l/m 10,4 km/h (2 Bft) O-NO 76 0 min 0,000 mm 0,0 UV-I 0 W/m 9,9 C 10,6 C 14,5 km/h (3 Bft) 100,00 %
29.09.2017 22:28 12,9 C 13,9 C 82 % 1021,7 hPa 0,0 l/m 10,2 km/h (2 Bft) O-NO 72 0 min 0,000 mm 0,0 UV-I 0 W/m 9,9 C 10,7 C 16,1 km/h (3 Bft) 97,87 %
29.09.2017 22:30 13,0 C 13,9 C 81 % 1021,7 hPa 0,0 l/m 10,4 km/h (2 Bft) O 82 0 min 0,000 mm 0,0 UV-I 0 W/m 9,8 C 10,7 C 16,1 km/h (3 Bft) 100,00 %
29.09.2017 22:32 13,0 C 13,9 C 81 % 1021,6 hPa 0,0 l/m 10,0 km/h (2 Bft) O-NO 63 0 min 0,000 mm 0,0 UV-I 0 W/m 9,8 C 10,9 C 16,1 km/h (3 Bft) 100,00 %
29.09.2017 22:34 13,1 C 13,9 C 81 % 1021,6 hPa 0,0 l/m 11,0 km/h (2 Bft) O 97 0 min 0,000 mm 0,0 UV-I 0 W/m 9,9 C 10,5 C 16,1 km/h (3 Bft) 100,00 %
29.09.2017 22:36 13,1 C 13,9 C 80 % 1021,6 hPa 0,0 l/m 10,4 km/h (2 Bft) O-SO 111 0 min 0,000 mm 0,0 UV-I 0 W/m 9,7 C 10,8 C 17,7 km/h (3 Bft) 100,00 %
29.09.2017 22:38 13,2 C 13,9 C 80 % 1021,6 hPa 0,0 l/m 9,9 km/h (2 Bft) O-SO 113 0 min 0,000 mm 0,0 UV-I 0 W/m 9,8 C 11,2 C 17,7 km/h (3 Bft) 98,00 %
29.09.2017 22:40 13,2 C 13,9 C 80 % 1021,6 hPa 0,0 l/m 10,5 km/h (2 Bft) O 98 0 min 0,000 mm 0,0 UV-I 0 W/m 9,8 C 10,9 C 20,9 km/h (4 Bft) 100,00 %
29.09.2017 22:42 13,2 C 13,9 C 79 % 1021,6 hPa 0,0 l/m 9,8 km/h (2 Bft) O 86 0 min 0,000 mm 0,0 UV-I 0 W/m 9,6 C 11,2 C 16,1 km/h (3 Bft) 100,00 %
29.09.2017 22:44 13,2 C 13,9 C 79 % 1021,7 hPa 0,0 l/m 9,6 km/h (2 Bft) O 80 0 min 0,000 mm 0,0 UV-I 0 W/m 9,6 C 11,3 C 14,5 km/h (3 Bft) 100,00 %
29.09.2017 22:46 13,2 C 13,9 C 79 % 1021,6 hPa 0,0 l/m 10,1 km/h (2 Bft) O-NO 63 0 min 0,000 mm 0,0 UV-I 0 W/m 9,6 C 11,1 C 17,7 km/h (3 Bft) 97,87 %
29.09.2017 22:48 13,2 C 13,9 C 79 % 1021,7 hPa 0,0 l/m 10,3 km/h (2 Bft) O 80 0 min 0,000 mm 0,0 UV-I 0 W/m 9,6 C 11,0 C 16,1 km/h (3 Bft) 100,00 %
29.09.2017 22:50 13,2 C 13,9 C 79 % 1021,7 hPa 0,0 l/m 10,1 km/h (2 Bft) O-NO 69 0 min 0,000 mm 0,0 UV-I 0 W/m 9,6 C 11,1 C 14,5 km/h (3 Bft) 100,00 %
29.09.2017 22:52 13,2 C 13,9 C 79 % 1021,7 hPa 0,0 l/m 8,7 km/h (2 Bft) O-NO 64 0 min 0,000 mm 0,0 UV-I 0 W/m 9,6 C 11,8 C 14,5 km/h (3 Bft) 100,00 %
29.09.2017 22:54 13,2 C 13,9 C 79 % 1021,7 hPa 0,0 l/m 5,7 km/h (1 Bft) O-NO 59 0 min 0,000 mm 0,0 UV-I 0 W/m 9,6 C 13,2 C 9,7 km/h (2 Bft) 95,74 %
29.09.2017 22:56 13,1 C 13,9 C 79 % 1021,7 hPa 0,0 l/m 6,5 km/h (2 Bft) NO 53 0 min 0,000 mm 0,0 UV-I 0 W/m 9,5 C 13,1 C 9,7 km/h (2 Bft) 94,74 %
29.09.2017 22:58 12,9 C 13,9 C 80 % 1021,7 hPa 0,0 l/m 6,4 km/h (2 Bft) O-NO 63 0 min 0,000 mm 0,0 UV-I 0 W/m 9,5 C 12,9 C 9,7 km/h (2 Bft) 97,87 %
29.09.2017 23:00 12,8 C 13,9 C 80 % 1021,7 hPa 0,0 l/m 7,6 km/h (2 Bft) NO 55 0 min 0,000 mm 0,0 UV-I 0 W/m 9,4 C 12,0 C 11,3 km/h (2 Bft) 95,92 %
29.09.2017 23:02 12,8 C 13,9 C 81 % 1021,6 hPa 0,0 l/m 9,9 km/h (2 Bft) O-NO 72 0 min 0,025 mm 0,0 UV-I 0 W/m 9,6 C 10,7 C 16,1 km/h (3 Bft) 97,87 %
29.09.2017 23:04 12,8 C 13,9 C 81 % 1021,6 hPa 0,0 l/m 10,4 km/h (2 Bft) NO 55 0 min 0,000 mm 0,0 UV-I 0 W/m 9,6 C 10,5 C 16,1 km/h (3 Bft) 95,74 %
29.09.2017 23:06 12,8 C 13,9 C 81 % 1021,6 hPa 0,0 l/m 10,4 km/h (2 Bft) O-NO 57 0 min 0,000 mm 0,0 UV-I 0 W/m 9,6 C 10,5 C 16,1 km/h (3 Bft) 97,87 %
29.09.2017 23:08 12,8 C 13,9 C 81 % 1021,6 hPa 0,0 l/m 9,5 km/h (2 Bft) NO 51 0 min 0,000 mm 0,0 UV-I 0 W/m 9,6 C 10,9 C 17,7 km/h (3 Bft) 97,56 %
29.09.2017 23:10 12,8 C 13,9 C 81 % 1021,5 hPa 0,0 l/m 8,7 km/h (2 Bft) O-NO 61 0 min 0,000 mm 0,0 UV-I 0 W/m 9,6 C 11,4 C 12,9 km/h (3 Bft) 95,92 %
29.09.2017 23:12 12,7 C 13,9 C 81 % 1021,5 hPa 0,0 l/m 9,4 km/h (2 Bft) O-NO 67 0 min 0,000 mm 0,0 UV-I 0 W/m 9,5 C 10,9 C 14,5 km/h (3 Bft) 97,87 %
29.09.2017 23:14 12,7 C 13,9 C 81 % 1021,5 hPa 0,0 l/m 9,3 km/h (2 Bft) O-NO 67 0 min 0,000 mm 0,0 UV-I 0 W/m 9,5 C 10,9 C 14,5 km/h (3 Bft) 97,87 %
29.09.2017 23:16 12,6 C 13,9 C 81 % 1021,5 hPa 0,0 l/m 9,1 km/h (2 Bft) O-NO 72 0 min 0,000 mm 0,0 UV-I 0 W/m 9,4 C 10,9 C 14,5 km/h (3 Bft) 98,00 %
29.09.2017 23:18 12,6 C 13,9 C 81 % 1021,5 hPa 0,0 l/m 8,7 km/h (2 Bft) O-NO 65 0 min 0,000 mm 0,0 UV-I 0 W/m 9,4 C 11,2 C 12,9 km/h (3 Bft) 97,87 %
29.09.2017 23:20 12,5 C 13,9 C 82 % 1021,4 hPa 0,0 l/m 8,6 km/h (2 Bft) NO 55 0 min 0,000 mm 0,0 UV-I 0 W/m 9,5 C 11,1 C 14,5 km/h (3 Bft) 97,87 %
29.09.2017 23:22 12,4 C 13,9 C 82 % 1021,4 hPa 0,0 l/m 7,5 km/h (2 Bft) NO 49 0 min 0,000 mm 0,0 UV-I 0 W/m 9,4 C 11,7 C 11,3 km/h (2 Bft) 98,00 %
29.09.2017 23:24 12,4 C 13,9 C 82 % 1021,4 hPa 0,0 l/m 7,2 km/h (2 Bft) NO 56 0 min 0,000 mm 0,0 UV-I 0 W/m 9,4 C 11,9 C 11,3 km/h (2 Bft) 97,87 %
29.09.2017 23:26 12,4 C 13,9 C 82 % 1021,4 hPa 0,0 l/m 6,8 km/h (2 Bft) O-NO 61 0 min 0,000 mm 0,0 UV-I 0 W/m 9,4 C 12,1 C 9,7 km/h (2 Bft) 97,87 %
29.09.2017 23:28 12,4 C 13,9 C 82 % 1021,4 hPa 0,0 l/m 6,3 km/h (2 Bft) O-NO 59 0 min 0,000 mm 0,0 UV-I 0 W/m 9,4 C 12,4 C 9,7 km/h (2 Bft) 95,83 %
29.09.2017 23:30 12,4 C 13,9 C 82 % 1021,3 hPa 0,0 l/m 8,5 km/h (2 Bft) O-NO 59 0 min 0,000 mm 0,0 UV-I 0 W/m 9,4 C 11,1 C 14,5 km/h (3 Bft) 97,87 %
29.09.2017 23:32 12,4 C 13,9 C 82 % 1021,4 hPa 0,0 l/m 6,3 km/h (2 Bft) O-NO 66 0 min 0,000 mm 0,0 UV-I 0 W/m 9,4 C 12,4 C 12,9 km/h (3 Bft) 97,87 %
29.09.2017 23:34 12,4 C 13,9 C 81 % 1021,4 hPa 0,0 l/m 8,4 km/h (2 Bft) O-NO 61 0 min 0,000 mm 0,0 UV-I 0 W/m 9,2 C 11,1 C 14,5 km/h (3 Bft) 100,00 %
29.09.2017 23:36 12,4 C 13,9 C 81 % 1021,4 hPa 0,0 l/m 7,4 km/h (2 Bft) O-NO 69 0 min 0,000 mm 0,0 UV-I 0 W/m 9,2 C 11,7 C 12,9 km/h (3 Bft) 97,87 %
29.09.2017 23:38 12,4 C 13,9 C 81 % 1021,4 hPa 0,0 l/m 6,2 km/h (2 Bft) NO 49 0 min 0,000 mm 0,0 UV-I 0 W/m 9,2 C 12,4 C 11,3 km/h (2 Bft) 97,87 %
29.09.2017 23:40 12,4 C 13,9 C 81 % 1021,4 hPa 0,0 l/m 6,0 km/h (2 Bft) NO 53 0 min 0,000 mm 0,0 UV-I 0 W/m 9,2 C 12,4 C 9,7 km/h (2 Bft) 100,00 %
29.09.2017 23:42 12,4 C 13,9 C 81 % 1021,4 hPa 0,0 l/m 4,3 km/h (1 Bft) O-NO 76 0 min 0,000 mm 0,0 UV-I 0 W/m 9,2 C 12,4 C 8,0 km/h (2 Bft) 100,00 %
29.09.2017 23:44 12,3 C 13,9 C 82 % 1021,5 hPa 0,0 l/m 4,6 km/h (1 Bft) O-NO 77 0 min 0,000 mm 0,0 UV-I 0 W/m 9,3 C 12,3 C 6,4 km/h (2 Bft) 94,29 %
29.09.2017 23:46 12,2 C 13,9 C 82 % 1021,4 hPa 0,0 l/m 6,5 km/h (2 Bft) O 80 0 min 0,000 mm 0,0 UV-I 0 W/m 9,2 C 12,2 C 9,7 km/h (2 Bft) 97,87 %
29.09.2017 23:48 12,2 C 13,9 C 82 % 1021,4 hPa 0,0 l/m 6,7 km/h (2 Bft) O-NO 69 0 min 0,000 mm 0,0 UV-I 0 W/m 9,2 C 12,0 C 11,3 km/h (2 Bft) 100,00 %
29.09.2017 23:50 12,2 C 13,9 C 82 % 1021,4 hPa 0,0 l/m 8,2 km/h (2 Bft) O-SO 109 0 min 0,000 mm 0,0 UV-I 0 W/m 9,2 C 11,0 C 12,9 km/h (3 Bft) 100,00 %
29.09.2017 23:52 12,2 C 13,9 C 82 % 1021,4 hPa 0,0 l/m 8,4 km/h (2 Bft) O 88 0 min 0,000 mm 0,0 UV-I 0 W/m 9,2 C 10,9 C 12,9 km/h (3 Bft) 100,00 %
29.09.2017 23:54 12,2 C 13,9 C 82 % 1021,4 hPa 0,0 l/m 8,9 km/h (2 Bft) O 83 0 min 0,000 mm 0,0 UV-I 0 W/m 9,2 C 10,6 C 14,5 km/h (3 Bft) 100,00 %
29.09.2017 23:56 12,2 C 13,9 C 82 % 1021,3 hPa 0,0 l/m 9,6 km/h (2 Bft) O-SO 106 0 min 0,000 mm 0,0 UV-I 0 W/m 9,2 C 10,2 C 14,5 km/h (3 Bft) 95,74 %
29.09.2017 23:58 12,3 C 13,9 C 82 % 1021,3 hPa 0,0 l/m 9,3 km/h (2 Bft) O-NO 78 0 min 0,000 mm 0,0 UV-I 0 W/m 9,3 C 10,5 C 14,5 km/h (3 Bft) 100,00 %
_ Min-Zeit 07:16 02:54 15:26 16:42 - 01:16 - - - - - - 06:00 07:36 01:16 05:26
Minimum _ 7,2 C 13,3 C 66 % 1021,3 hPa - 0,0 km/h (0 Bft) - - - - - - 6,6 C 7,2 C 0,0 km/h (0 Bft) 87,23 %
_ Max-Zeit 15:56 00:00 08:20 00:08 00:00 15:56 - - 08:48 14:00 12:26 12:56 14:02 15:30 22:40 00:00
Maximum _ 19,8 C 13,9 C 98 % 1024,8 hPa 0,0 l/m 11,4 km/h
O-NO (2 Bft)
- - 4 min 0,355 mm 3,0 UV-I 624 W/m 14,2 C 19,7 C 20,9 km/h
O (4 Bft)
100,00 %
Durchschnitt _ 13,2 C 13,6 C 84 % 1023,0 hPa #0,0 l/m 4,0 km/h (1 Bft) O-NO - #9:36 h #2,413 mm 1,9 UV-I 336 W/m 10,5 C 13,0 C 6,8 km/h (2 Bft) 98,04 %